GFSWCAN_500_rhum_000.txt.gz
RH
98 96 94 99 64 48 50 54 40 36 36 34 33 53 60 64 72 74 16 18 28 34 43 40 53 75 75 46 31 25 19 17 20 25 33 38 49 66 64 74 81 75 70 54 46 30 30 32 30 31 32 32 33 36
100 98 99 97 75 68 65 54 47 43 41 38 36 40 61 63 65 75 84 22 18 24 32 34 34 42 63 62 44 31 36 30 22 17 18 27 56 78 82 87 81 64 46 33 34 34 35 35 35 36 36 37 37 37
97 96 100 95 92 83 69 58 58 53 48 45 39 35 54 61 67 64 77 93 42 20 22 31 32 27 36 55 58 50 39 42 46 38 22 20 32 62 77 80 75 57 44 39 35 36 37 36 37 38 40 41 43 46
99 100 100 91 98 93 81 70 71 65 58 52 44 36 40 64 66 66 67 75 86 71 30 21 24 26 22 23 34 46 52 50 48 44 25 19 30 58 65 61 53 45 41 38 38 41 41 43 42 42 45 50 54 56
98 99 100 97 100 100 86 78 80 77 68 60 49 38 38 47 62 68 63 64 70 77 80 79 54 40 28 20 15 14 14 18 25 18 13 39 73 71 62 51 46 42 40 40 42 45 46 46 46 48 50 58 63 67
97 99 100 100 100 100 97 94 88 86 77 65 56 44 37 42 50 56 67 68 64 69 67 72 71 71 71 81 86 63 33 25 23 28 48 75 69 57 52 46 40 41 41 42 43 43 45 48 51 53 63 67 68 70
100 100 100 100 100 100 99 100 91 89 85 73 63 52 42 40 45 51 51 56 63 61 60 73 78 74 68 59 51 48 50 58 68 71 66 58 54 50 45 41 44 40 40 41 43 45 50 54 57 62 62 58 62 69
99 100 100 98 100 100 100 100 97 95 94 91 76 62 52 45 44 48 49 51 50 50 53 52 57 78 82 78 76 72 66 58 51 46 42 38 37 34 34 38 39 42 44 46 48 51 51 56 63 64 66 72 78 80
100 96 100 100 100 100 100 100 100 98 100 100 98 82 62 57 50 50 50 50 48 45 43 44 46 52 62 79 81 76 72 71 67 61 57 54 46 45 47 48 49 50 51 52 57 64 69 70 72 79 83 86 93 90
100 100 94 88 95 100 100 100 99 96 100 100 100 97 81 70 62 54 51 45 43 40 43 54 57 50 43 52 67 75 77 68 65 58 56 56 49 46 48 49 50 55 63 72 76 76 80 82 86 90 91 91 88 80
100 100 100 100 99 97 100 100 100 96 97 100 99 100 100 98 81 75 69 60 55 49 41 40 50 56 60 61 58 56 56 57 58 52 54 54 54 57 64 75 84 90 89 85 85 83 83 92 93 94 93 86 80 75
100 100 100 100 100 100 100 100 100 99 94 100 100 100 98 98 96 91 76 66 66 68 67 68 73 67 70 72 70 58 53 56 57 58 60 63 64 84 92 90 94 92 85 82 80 81 89 93 90 86 82 78 70 58
100 100 100 100 100 100 100 100 100 100 100 100 100 100 100 98 92 74 62 61 72 88 99 99 97 97 99 94 92 96 94 92 92 92 97 99 97 92 89 85 82 79 77 79 85 88 85 80 82 81 75 69 59 48
100 100 100 100 100 100 100 100 100 100 100 100 100 98 100 84 74 66 76 81 88 99 100 100 100 99 98 100 98 98 96 96 95 100 100 95 96 94 86 79 76 74 77 78 79 81 82 82 81 77 72 64 54 47
100 100 100 100 100 100 100 100 100 100 100 100 100 95 76 70 73 74 81 82 85 99 100 100 100 100 100 97 97 97 100 97 100 97 96 88 75 70 68 69 75 76 74 75 78 82 83 82 79 77 70 61 52 40
100 98 100 100 100 100 100 100 100 98 100 100 94 87 78 77 77 79 78 79 81 93 100 100 100 100 100 100 98 99 100 100 97 92 80 73 70 68 72 72 70 69 71 74 79 84 85 82 79 74 66 54 42 33
100 100 99 100 100 100 100 100 100 100 100 97 86 86 86 88 89 86 85 84 82 83 93 95 95 97 100 100 99 100 100 95 95 90 81 74 70 74 70 67 67 69 69 70 75 79 78 75 72 65 53 42 33 23
100 100 100 99 100 100 100 100 100 100 100 92 88 84 95 100 100 100 100 98 96 94 87 84 87 92 95 96 97 100 100 94 92 83 76 75 75 71 67 66 68 68 70 72 75 75 75 68 56 44 36 29 19 13
99 100 100 100 100 100 100 100 100 100 100 94 94 90 97 100 100 100 100 100 99 95 89 86 84 83 93 100 100 99 86 72 67 68 70 72 68 64 68 72 72 70 69 71 72 66 57 46 39 34 25 15 14 43
70 96 100 100 100 100 100 100 100 100 100 100 99 100 100 100 100 100 100 99 95 87 81 81 86 97 100 100 97 84 72 72 71 69 63 66 66 69 74 73 71 69 69 65 57 48 42 34 27 20 17 32 65 73
39 62 96 100 100 100 100 100 100 100 100 100 100 100 100 100 100 100 99 93 87 83 86 94 95 100 100 86 70 67 74 73 65 60 62 69 74 72 71 69 69 65 57 51 44 37 27 19 17 20 38 61 81 86
24 54 100 100 100 100 100 100 100 100 100 100 100 100 100 100 100 99 99 98 97 100 100 100 100 88 78 77 76 68 62 59 60 64 65 62 61 61 60 58 56 51 45 38 27 15 11 18 33 51 72 82 81 79
18 51 100 100 100 100 100 100 100 100 100 99 100 100 100 100 100 100 98 98 99 100 98 87 82 76 74 73 72 72 73 73 70 64 58 56 54 53 54 51 46 39 25 13 14 21 44 65 78 81 79 78 85 96
16 33 67 100 99 99 99 100 100 98 100 100 100 100 100 100 100 100 99 99 100 100 98 97 97 94 90 86 79 73 68 61 57 54 52 51 50 49 48 41 20 11 15 30 53 69 76 80 80 81 88 94 96 94
30 30 39 57 100 95 88 97 100 100 100 100 100 100 100 100 100 98 93 100 100 100 99 97 95 90 84 77 69 63 60 57 54 51 47 45 43 38 19 7 13 34 58 76 80 83 86 87 91 94 95 95 90 85
48 41 32 37 46 92 100 100 100 100 100 100 100 100 100 100 100 92 100 100 100 99 100 100 96 88 78 70 64 59 54 50 46 44 40 27 11 2 9 23 52 86 90 90 99 99 96 98 100 98 94 88 80 75
55 39 34 34 45 47 56 80 98 100 100 100 98 100 100 97 94 91 96 100 100 100 100 100 96 87 77 68 60 52 47 43 34 16 5 3 19 43 51 65 87 94 99 100 100 100 99 96 93 89 84 81 80 79
61 65 60 59 46 49 57 55 55 65 89 96 94 96 100 99 94 88 85 87 90 87 83 77 70 63 58 51 43 34 19 6 8 14 40 78 86 82 92 99 100 100 100 100 100 96 91 88 87 86 83 84 73 53
84 94 92 72 58 48 38 38 47 54 55 55 53 51 53 58 63 67 70 68 64 60 55 51 41 33 22 12 8 7 10 38 56 96 100 97 100 100 100 100 100 100 100 100 98 94 93 93 90 89 76 52 28 13
99 89 79 87 72 52 45 40 37 35 32 31 33 35 35 33 30 26 24 22 19 16 13 10 10 11 19 41 56 72 83 95 97 100 100 100 97 99 100 100 100 100 100 100 99 96 92 92 79 53 28 12 11 13
43 42 57 75 84 88 72 49 38 31 26 22 21 21 22 21 19 18 16 15 15 14 14 24 54 79 79 84 90 94 92 92 100 100 99 94 91 92 93 99 100 100 100 98 95 90 64 40 22 11 12 14 21 25
48 38 37 42 51 47 45 37 29 23 22 23 25 26 25 23 24 27 29 32 63 83 94 96 95 95 94 93 98 100 100 100 100 98 94 95 98 100 100 100 100 100 97 75 43 30 14 10 14 20 29 32 26 24
99 99 98 90 92 96 100 95 92 89 92 82 69 66 65 54 44 53 73 90 93 90 88 87 86 86 90 95 98 100 100 100 100 100 100 100 100 100 99 96 74 41 32 19 11 11 17 27 30 31 27 20 21 29

GFSWCAN_500_rhum_003.txt.gz
RH
99 100 100 100 99 91 78 69 50 42 44 44 34 32 52 82 78 30 14 17 28 45 46 49 90 100 88 66 33 20 26 34 28 25 23 28 38 44 49 56 56 61 54 45 42 50 56 53 49 38 31 31 34 36
100 99 100 100 98 98 89 72 52 46 51 47 38 34 41 82 82 85 54 21 22 21 36 42 40 78 95 79 39 29 17 18 20 23 29 32 26 42 57 63 78 78 70 71 63 49 33 30 32 35 36 39 40 41
100 98 100 100 100 98 100 90 61 53 56 49 43 36 39 61 88 79 84 94 54 27 24 32 39 37 51 81 73 46 32 27 24 26 29 30 28 33 36 51 72 77 81 75 45 38 34 33 36 37 40 40 39 40
100 98 100 100 100 98 97 100 84 63 60 54 49 44 41 43 77 86 79 78 92 84 34 23 27 30 32 31 52 63 57 45 37 39 52 56 47 39 30 33 51 65 68 68 66 64 59 50 41 41 41 44 44 43
100 92 98 100 100 100 100 100 90 79 77 63 59 53 46 42 50 81 82 80 79 82 79 47 26 23 26 30 30 27 39 51 49 47 49 51 48 42 27 24 33 69 65 60 52 44 43 42 42 42 43 43 45 47
100 94 92 99 100 99 100 100 98 98 90 73 72 61 53 45 41 52 82 81 77 82 83 82 62 34 24 20 23 25 24 23 28 36 33 29 25 17 13 31 68 72 64 54 45 43 43 44 44 44 44 47 50 51
100 100 100 100 100 100 100 100 99 100 99 89 86 73 60 51 44 43 55 78 81 78 80 91 84 74 70 70 69 68 60 51 40 25 21 26 38 45 53 69 60 57 52 48 45 45 46 46 46 49 50 50 52 63
100 100 100 100 100 100 100 99 100 100 100 100 98 87 71 58 51 48 46 55 65 72 74 74 79 86 84 76 73 68 59 51 52 58 60 56 52 53 58 60 54 45 42 40 37 39 43 48 49 51 52 62 72 67
100 100 100 97 100 100 100 99 99 100 100 100 100 100 85 70 61 59 54 54 57 60 58 61 67 66 66 74 86 92 93 86 75 67 63 59 54 50 50 48 47 49 48 47 46 49 52 52 52 59 76 74 69 68
100 100 100 100 100 99 100 100 100 100 100 100 100 100 96 83 76 67 65 59 58 55 58 57 57 56 57 56 57 55 61 73 76 78 77 72 72 81 80 76 74 70 65 60 57 56 57 68 82 79 74 74 72 69
100 100 99 100 100 100 100 100 100 100 100 100 94 100 100 100 99 83 68 60 57 50 50 56 56 56 61 64 63 57 49 46 44 51 54 57 60 60 58 54 54 54 54 56 65 80 84 81 83 81 78 76 71 69
100 100 100 100 100 100 100 100 100 100 96 100 100 100 100 100 100 99 84 61 46 48 46 53 64 65 62 55 54 60 62 60 55 52 51 49 47 45 46 48 50 57 68 80 81 81 90 92 89 86 77 72 74 77
100 100 100 100 100 100 100 100 100 100 100 100 100 100 100 99 90 76 73 78 82 66 67 72 73 78 81 82 86 90 77 62 54 54 58 69 78 83 85 87 85 81 77 82 93 93 87 79 74 74 74 75 79 82
100 100 100 100 100 100 100 100 100 100 100 100 100 98 100 89 68 57 68 82 99 100 99 99 97 95 99 100 100 100 92 94 89 86 91 91 86 84 83 77 76 83 86 78 72 73 71 70 71 73 74 74 74 72
100 100 100 100 100 100 100 100 100 98 100 100 100 99 87 83 75 75 80 87 100 100 100 100 100 98 98 99 99 100 100 97 88 83 80 74 77 75 76 82 82 77 73 73 74 74 73 70 68 66 64 68 69 71
100 100 100 100 100 100 100 100 100 100 100 100 95 90 82 84 83 85 96 99 99 100 100 99 100 97 100 99 98 99 98 89 80 80 85 87 83 81 83 82 76 72 71 70 67 64 65 64 63 66 67 65 65 64
100 100 100 100 100 100 100 100 100 100 100 98 85 90 86 99 96 92 96 100 100 100 100 100 99 99 99 96 91 94 88 84 83 85 87 85 79 74 71 70 67 64 63 63 62 60 61 64 66 68 66 62 60 55
100 100 100 100 100 100 100 100 100 100 100 92 81 74 84 97 98 95 100 100 100 97 100 97 99 100 100 99 99 96 88 79 76 78 78 74 67 66 64 63 62 65 65 62 58 56 60 63 64 62 59 56 52 44
96 100 100 100 100 100 100 100 100 100 99 94 89 86 86 97 90 89 100 100 100 100 100 100 100 98 100 100 95 88 83 78 80 76 70 69 64 60 63 65 68 64 58 57 58 60 61 62 60 58 53 46 39 30
34 86 100 100 100 100 100 100 100 100 98 97 98 94 88 98 96 97 100 100 100 100 100 100 100 100 100 92 84 84 88 88 81 75 79 75 67 63 65 66 61 59 59 59 58 57 55 52 48 44 40 34 22 9
7 28 99 100 100 100 100 100 100 100 99 96 97 100 100 100 100 100 100 100 100 100 100 100 100 93 84 83 86 91 96 95 83 76 74 74 70 68 66 61 59 61 60 56 52 48 44 41 38 35 27 13 7 17
4 10 84 100 100 100 100 100 100 100 100 100 100 100 100 100 100 100 100 100 100 100 100 100 100 100 95 92 90 87 81 75 73 70 68 69 70 68 67 65 60 56 52 48 44 41 38 35 29 17 7 18 45 70
10 2 35 100 100 100 100 100 100 100 100 100 100 100 100 100 100 99 100 99 100 100 100 100 98 91 86 83 80 80 78 75 72 73 69 67 69 67 59 55 50 46 44 41 37 34 28 15 5 13 47 71 70 63
26 6 11 85 100 100 100 100 100 100 100 100 100 100 100 100 100 100 100 100 100 100 100 98 95 92 88 88 88 86 81 77 75 78 76 67 63 58 52 46 42 38 33 29 25 15 3 3 26 58 76 66 66 78
45 28 17 54 100 100 100 100 100 100 100 100 100 100 100 100 100 100 100 100 100 96 89 87 86 88 90 90 88 84 85 85 81 74 68 60 54 50 45 38 31 26 23 14 2 1 8 38 70 75 69 72 78 86
58 45 25 44 98 100 100 100 100 100 100 100 100 100 100 100 100 95 97 100 100 96 95 96 98 98 95 94 94 90 86 78 68 60 55 50 44 37 31 28 22 12 4 4 13 26 55 71 72 75 75 77 82 92
69 62 57 38 48 90 100 100 100 100 100 100 100 100 100 99 99 96 100 100 98 99 100 99 98 97 95 91 84 76 68 62 56 51 45 39 35 31 23 11 5 10 27 46 58 70 75 78 78 83 92 98 100 98
90 100 93 86 58 48 48 65 98 98 94 98 98 99 99 99 95 98 100 100 100 95 93 96 94 90 85 79 73 67 60 53 47 42 38 32 19 6 4 10 41 67 75 80 81 81 81 85 93 100 100 100 100 88
100 100 89 89 80 73 64 57 52 62 85 87 87 92 97 96 95 92 92 95 99 99 97 92 87 80 73 65 56 49 45 40 31 17 8 7 11 22 46 92 90 76 75 80 84 88 95 100 100 100 100 92 80 55
90 98 100 98 81 72 64 59 58 58 56 56 62 67 72 76 77 76 76 77 75 72 68 64 57 49 40 36 31 23 14 12 15 29 47 70 84 88 93 93 91 89 88 92 96 98 100 100 99 94 76 46 14 6
51 49 46 57 71 74 67 55 48 41 37 35 34 34 36 35 34 34 36 37 36 32 28 25 22 20 18 16 16 22 44 68 79 81 80 81 84 86 91 96 97 98 100 100 100 100 99 90 62 30 9 7 15 24
47 36 40 48 51 46 42 37 39 39 37 31 28 23 23 22 22 21 22 22 23 21 20 21 21 24 51 86 99 100 94 88 86 86 87 89 91 96 100 100 100 100 100 99 95 70 37 16 7 9 21 24 22 20
83 64 58 55 56 59 56 51 44 27 19 13 10 11 15 19 24 29 32 32 31 30 37 65 91 98 97 93 87 83 80 83 88 93 94 93 91 91 94 96 93 78 50 24 16 11 9 14 23 26 29 32 31 25

GFSWCAN_500_rhum_006.txt.gz
RH
100 100 100 100 100 99 97 88 80 83 71 49 39 36 32 34 49 68 15 49 56 54 71 99 98 98 92 74 61 65 55 43 50 58 63 67 57 69 75 81 86 88 86 78 80 81 76 69 66 46 42 38 46 51
100 100 100 100 99 99 99 96 86 88 77 54 43 39 34 37 52 74 28 23 52 57 55 70 94 98 85 65 46 34 29 30 27 29 28 28 33 38 42 50 50 47 55 71 83 77 75 70 72 67 55 50 38 31
97 100 100 100 97 100 95 98 100 96 63 52 44 44 37 37 49 77 83 19 23 45 50 54 52 62 95 88 82 46 26 22 25 29 28 33 56 57 60 69 57 63 74 79 74 67 64 53 43 32 31 32 35 40
93 100 100 100 100 100 100 100 100 89 62 53 48 49 41 37 44 82 87 96 36 21 25 33 47 48 45 68 91 82 59 32 22 21 23 28 31 38 40 37 39 43 55 66 76 82 74 52 42 39 37 41 42 43
83 100 100 99 96 96 98 98 99 90 71 58 55 52 45 38 42 56 88 90 96 91 38 24 22 31 39 41 38 48 78 76 55 36 31 32 39 41 43 48 48 40 30 37 47 66 68 68 64 58 50 44 44 43
97 100 100 100 98 99 97 98 100 98 88 72 64 58 51 44 43 46 59 91 88 84 96 96 44 24 24 30 33 34 32 36 47 57 54 50 48 44 42 42 38 30 25 36 59 69 70 61 51 45 43 43 45 47
100 100 100 91 98 98 100 100 100 100 100 99 79 70 74 54 50 46 48 64 88 95 88 87 98 88 53 28 25 26 29 31 31 29 27 26 28 27 21 16 15 14 22 47 64 65 61 52 45 44 45 45 45 46
100 100 100 96 100 100 100 100 100 100 100 99 98 98 87 68 59 52 49 55 68 88 98 84 80 87 90 81 62 44 31 25 24 26 26 26 26 25 23 42 80 67 71 62 55 53 50 44 42 40 39 42 48 55
96 100 100 100 100 100 100 100 100 100 100 100 100 97 91 84 70 59 54 50 57 65 78 88 84 94 97 96 95 86 80 75 71 66 62 57 54 55 56 51 50 47 44 39 35 34 39 47 59 65 66 64 60 60
92 100 100 100 100 100 100 100 100 100 100 99 99 96 93 93 90 73 60 54 48 56 57 62 79 90 92 95 95 95 95 95 88 87 84 79 75 75 73 69 68 66 65 71 76 78 74 69 63 59 57 60 71 77
55 100 100 100 100 100 100 100 100 100 100 99 97 100 100 100 100 92 74 63 54 47 48 55 61 66 72 79 77 75 69 66 64 65 73 74 77 82 86 83 83 82 77 72 63 56 55 57 58 65 78 78 82 86
42 100 100 100 100 100 100 100 100 100 99 100 100 100 100 100 98 94 81 68 57 51 47 49 54 59 60 59 59 59 61 62 60 53 50 46 46 45 45 46 46 47 48 52 60 69 77 87 86 86 86 80 72 67
89 100 100 100 100 100 100 100 100 100 100 100 100 100 100 100 97 79 73 78 78 80 83 71 63 63 64 59 57 55 52 49 48 46 44 45 45 45 47 51 61 73 83 88 93 95 93 92 83 72 68 65 62 59
100 100 100 100 100 100 100 100 100 99 99 100 99 100 100 94 76 67 76 89 95 100 100 99 92 78 84 83 80 74 68 65 52 47 54 73 79 80 85 91 95 96 99 99 96 94 83 72 64 62 59 55 52 50
100 100 100 100 100 100 100 99 100 100 100 100 98 99 90 70 66 72 80 90 100 100 99 99 99 100 100 90 78 74 76 68 64 74 85 99 100 100 97 92 90 89 90 89 85 79 72 64 61 58 54 52 52 51
100 100 100 100 100 100 100 100 100 100 100 100 100 88 87 81 69 79 89 100 100 100 99 98 98 96 100 99 91 89 79 75 81 81 96 99 95 91 92 90 89 85 82 78 72 65 57 52 53 55 51 49 49 46
100 100 100 100 100 100 100 100 100 100 100 98 91 85 81 76 76 86 100 100 100 100 100 100 100 99 92 89 89 95 95 100 94 87 89 85 78 72 73 73 70 68 62 56 51 49 51 51 50 49 50 46 44 41
100 100 100 100 100 100 100 100 100 100 100 91 81 92 86 88 100 91 93 100 100 100 100 100 100 100 95 93 95 95 90 89 91 97 93 87 80 72 69 69 66 64 61 58 54 51 51 51 50 49 48 45 40 36
100 100 100 100 100 100 100 100 100 100 99 97 89 88 90 91 94 91 99 100 100 100 100 100 99 96 93 93 89 85 87 89 92 95 93 89 82 75 71 68 63 61 60 56 54 54 55 54 52 51 45 39 35 31
67 100 100 100 100 100 100 100 100 100 100 100 99 94 90 100 100 100 100 100 100 100 100 100 96 96 96 98 96 88 87 86 86 88 91 91 87 83 77 70 67 64 61 60 58 57 56 56 52 45 40 34 29 26
16 57 100 100 100 100 100 100 100 100 97 100 100 100 100 99 99 100 100 100 100 100 100 99 97 95 99 96 93 90 85 80 78 85 95 91 84 81 80 77 70 67 65 64 64 61 60 55 48 41 35 30 25 21
12 13 43 100 100 100 100 98 100 100 97 96 100 100 100 100 100 100 100 100 100 100 100 97 96 95 91 91 95 99 100 100 100 100 98 88 81 76 78 81 81 79 76 71 69 65 56 48 42 36 30 24 20 14
15 12 8 42 100 100 100 100 100 100 100 100 100 100 99 100 100 100 100 100 100 100 100 99 95 97 100 99 99 100 100 99 97 93 91 91 94 100 100 98 89 81 79 75 66 56 48 41 35 28 24 16 7 3
25 19 7 14 97 100 99 100 100 100 100 99 99 100 100 100 100 100 100 100 100 100 98 99 100 98 92 90 91 93 91 92 94 94 94 96 96 96 94 89 88 85 76 65 55 47 40 33 28 21 10 5 9 30
33 33 14 10 67 100 100 100 100 100 100 100 100 100 100 100 100 100 100 100 100 100 100 100 100 99 95 89 85 84 86 89 92 93 93 93 94 95 98 98 88 74 62 53 44 37 33 26 15 8 13 31 59 79
46 47 38 18 46 98 100 100 99 95 100 100 100 100 100 100 100 100 97 99 100 99 98 98 96 93 89 85 83 79 79 84 90 97 100 100 100 98 93 83 70 58 49 43 36 29 17 8 10 36 60 72 77 79
61 62 60 41 27 68 100 100 100 99 100 100 100 100 100 100 100 100 100 100 100 100 99 95 89 85 82 84 88 91 93 94 97 98 99 99 94 85 73 64 55 47 40 30 17 7 11 38 60 68 74 77 80 82
67 71 65 63 40 30 66 99 100 100 100 100 100 100 100 100 100 99 97 96 98 94 91 90 91 94 95 96 97 99 100 100 100 99 93 83 73 64 55 47 37 27 15 7 7 27 67 78 79 79 81 82 84 82
78 68 60 62 57 46 34 43 90 100 100 100 100 100 100 100 100 100 100 100 100 100 100 100 100 99 99 100 100 100 98 94 88 78 68 58 48 39 27 16 11 10 16 33 50 76 94 91 83 84 86 86 86 82
50 50 59 64 66 65 57 43 34 43 67 82 95 100 100 100 98 99 100 100 100 100 100 99 96 93 90 87 82 75 65 54 43 34 25 17 13 12 14 23 42 62 67 72 80 87 91 94 95 92 86 81 59 26
45 48 62 69 62 57 54 49 43 36 32 35 41 50 66 85 94 96 95 94 93 90 84 77 70 58 50 42 38 35 28 20 15 13 13 15 25 51 69 76 80 84 86 89 90 90 90 87 83 68 34 15 9 12
74 52 36 32 40 53 58 64 68 60 49 41 36 32 36 40 45 49 54 56 57 53 48 43 38 34 30 26 23 20 18 16 18 37 73 83 85 84 84 88 89 89 87 84 82 73 50 25 16 12 10 16 30 43
94 96 90 78 68 66 60 44 35 29 28 32 35 32 30 26 24 26 27 24 24 23 22 22 21 21 22 21 26 44 73 91 95 88 82 80 81 88 92 89 86 78 58 32 20 16 13 11 13 23 39 52 56 60

GFSWCAN_500_rhum_012.txt.gz
RH
4 3 4 62 100 100 100 100 100 100 100 64 57 63 30 20 19 26 31 30 65 39 72 100 96 97 98 98 97 98 94 95 99 98 97 91 84 77 87 97 90 97 95 94 97 90 92 97 95 91 80 77 88 89
4 4 4 89 100 100 100 100 100 100 100 100 66 54 27 20 22 32 30 32 69 42 62 98 99 94 97 97 99 97 98 98 98 97 97 99 99 97 99 98 100 98 98 98 99 90 94 92 97 94 86 74 71 74
4 4 3 47 100 100 100 100 100 100 100 99 98 96 31 23 25 31 33 36 72 48 46 92 99 100 100 97 98 98 96 98 98 97 98 97 95 97 97 100 99 96 98 89 85 78 66 58 61 71 69 66 63 52
4 4 4 34 99 100 100 100 100 98 100 100 100 98 33 28 29 34 35 40 74 64 35 75 98 100 100 100 95 96 97 97 92 89 97 98 98 94 96 95 74 71 68 70 78 90 93 96 95 88 84 86 88 86
4 4 4 34 62 99 100 100 100 100 100 100 99 86 46 37 34 38 38 40 67 89 28 59 91 98 100 100 98 79 77 46 41 38 46 60 63 58 54 52 69 88 90 81 62 57 52 46 45 60 75 81 82 80
4 4 3 6 49 91 100 97 100 100 100 100 100 99 98 78 41 40 46 40 54 95 40 34 69 97 99 99 100 94 74 54 39 32 31 38 39 41 48 53 59 53 50 50 47 45 45 43 32 21 21 31 46 60
4 3 3 4 56 97 98 89 100 100 100 100 100 100 100 99 85 47 50 46 46 98 93 33 35 64 84 88 97 100 95 80 66 61 45 41 30 30 46 48 44 39 37 41 46 46 46 40 23 16 15 27 56 79
4 3 2 3 64 100 95 87 100 100 100 100 100 100 100 100 99 80 56 51 55 81 99 89 36 28 43 60 76 74 81 88 88 80 77 70 59 42 26 47 56 53 43 35 31 27 20 17 19 21 34 54 66 58
4 2 1 6 91 99 91 91 100 100 100 100 100 100 99 97 99 72 57 59 47 59 71 77 78 70 48 33 33 34 40 44 48 47 42 43 42 42 41 35 31 31 30 28 28 28 28 35 51 69 76 76 58 41
4 1 0 17 100 100 86 83 100 100 100 100 100 98 93 99 95 67 69 69 58 48 44 48 76 96 98 91 72 59 54 39 24 24 26 27 27 28 29 30 30 30 28 30 43 58 59 51 46 41 38 44 67 88
4 1 0 22 99 100 98 100 100 100 100 95 92 90 98 100 95 84 82 77 66 54 46 40 45 66 93 95 93 90 82 85 85 84 78 51 38 53 49 45 52 60 67 68 70 71 75 80 88 94 90 75 56 50
4 1 0 49 100 100 100 100 100 100 100 84 90 96 100 100 99 92 80 77 72 64 55 49 48 47 57 68 83 90 90 88 85 78 86 76 87 94 89 83 85 87 90 88 84 78 68 60 54 51 51 50 52 70
4 1 4 74 100 100 100 100 100 100 100 100 100 99 100 96 89 76 64 59 57 63 66 63 58 53 52 52 55 64 73 75 78 78 73 73 85 91 86 78 74 71 68 63 58 54 53 53 52 50 52 74 91 87
4 1 10 76 100 100 100 100 100 100 100 100 100 93 100 95 80 66 74 79 80 95 99 98 98 84 66 63 60 58 57 56 56 56 57 64 68 73 73 70 67 62 58 54 51 50 49 50 57 83 93 83 74 68
5 2 5 68 100 100 100 100 100 100 100 100 99 98 93 75 70 80 82 93 100 100 100 100 96 95 93 79 65 57 55 52 52 52 53 51 50 49 49 50 53 54 56 60 64 70 80 93 91 82 76 70 67 61
5 3 13 63 100 100 100 100 100 100 100 100 99 88 84 81 78 88 92 97 100 99 99 95 97 93 92 89 77 72 69 67 68 70 68 67 62 60 62 62 60 61 68 77 92 100 94 83 79 77 71 63 59 55
5 4 39 98 100 100 100 100 100 100 100 100 93 75 83 86 94 95 100 100 100 97 100 98 96 94 92 88 81 82 84 91 93 92 88 80 78 74 72 74 76 80 92 100 97 91 84 83 77 68 61 58 55 51
5 5 50 100 100 100 100 100 100 100 100 98 96 93 85 95 99 100 100 100 96 87 94 98 100 100 95 85 88 97 89 83 81 82 85 87 88 90 92 95 100 100 98 93 87 86 85 80 72 69 69 66 58 48
5 6 62 100 100 100 100 100 100 100 99 96 96 95 100 100 100 100 100 100 100 100 100 100 98 91 89 91 96 95 92 87 87 93 92 94 98 100 100 100 100 100 98 97 96 94 89 82 72 66 65 56 47 45
6 7 20 100 100 100 100 100 100 100 99 98 100 100 100 100 100 100 100 100 100 100 100 98 97 98 99 100 100 100 100 99 95 96 98 99 99 100 100 100 100 98 95 95 94 88 75 64 64 65 61 61 59 60
7 7 8 54 100 100 100 100 100 100 100 100 100 100 100 100 100 100 100 100 100 100 100 100 100 100 100 98 100 100 100 100 100 100 100 100 100 100 98 98 97 96 94 92 86 80 77 80 80 82 80 74 67 65
11 9 10 25 100 100 100 100 100 100 100 100 100 100 100 100 100 100 100 100 100 100 100 100 100 100 100 100 99 100 100 100 100 100 100 100 100 100 100 99 95 92 89 86 86 89 87 85 82 75 69 68 70 74
14 13 9 17 80 100 100 100 100 100 100 100 100 100 100 100 100 100 100 96 94 100 100 100 100 100 100 100 100 100 100 100 100 100 100 100 100 100 99 98 97 96 98 98 94 89 84 77 73 72 73 74 79 84
14 14 14 9 28 77 100 100 100 100 100 100 100 100 100 100 100 100 99 99 98 100 100 100 100 100 100 100 100 100 100 100 100 100 100 100 100 100 100 100 100 100 98 93 87 83 80 76 74 73 78 84 87 86
12 12 14 13 11 19 59 100 100 100 100 100 100 100 100 100 100 99 99 100 100 100 100 100 100 100 100 100 100 100 100 100 100 100 100 100 100 100 100 99 96 94 90 86 83 80 76 76 79 84 86 84 82 83
15 15 14 18 17 13 14 44 100 100 100 100 100 100 100 100 100 99 100 100 100 100 100 98 98 98 100 100 100 100 100 100 100 100 100 100 100 98 96 94 91 89 85 81 77 77 82 88 86 84 83 81 75 66
20 20 20 18 24 22 20 37 92 100 100 100 100 99 98 99 100 96 98 100 100 100 100 100 100 100 100 100 100 100 100 100 100 99 99 98 96 94 93 91 88 86 83 85 90 92 91 87 85 80 74 66 53 34
25 23 22 25 25 29 25 39 97 100 100 100 100 100 100 99 98 94 98 100 100 100 100 100 100 99 97 95 95 97 99 100 100 100 96 94 92 89 86 86 93 97 99 99 94 88 83 79 74 64 50 34 20 20
25 29 33 37 31 27 31 28 65 100 100 100 100 100 100 100 100 100 100 100 100 100 100 100 100 100 100 100 100 100 100 100 100 100 99 93 91 92 96 99 100 100 98 92 87 80 72 60 47 33 20 24 38 56
45 35 30 34 40 41 38 31 31 55 100 100 100 100 100 100 100 100 100 100 100 100 100 100 100 100 100 100 100 100 100 100 100 95 88 89 90 94 97 96 94 91 85 76 63 52 38 25 16 26 49 62 67 65
65 60 59 52 41 37 42 48 44 42 39 61 94 99 100 100 100 100 100 100 100 100 100 100 100 100 100 100 100 100 100 98 93 91 93 96 98 98 94 85 74 64 55 42 26 18 23 39 55 66 74 72 44 15
73 75 71 70 67 62 39 42 54 53 50 45 43 36 52 81 100 100 100 100 100 100 100 100 100 100 100 100 100 100 100 100 100 100 100 96 91 82 74 60 40 22 16 17 32 51 65 79 83 76 45 16 12 13
81 83 83 76 78 78 75 54 30 42 50 53 47 42 36 30 28 32 55 86 98 99 100 100 100 99 99 99 99 99 99 98 94 93 91 83 65 34 18 16 21 38 59 71 84 90 84 64 33 15 12 13 18 40

GFSWCAN_500_rhum_015.txt.gz
RH
5 4 3 3 4 14 99 100 100 98 100 100 97 88 97 72 24 19 23 28 30 37 54 52 86 96 98 97 98 97 96 95 70 83 94 94 96 86 88 93 91 92 90 71 98 92 93 97 95 97 92 85 93 89
5 4 3 3 4 31 99 100 100 96 100 100 98 95 97 65 22 21 24 30 32 31 59 49 89 95 98 97 98 98 98 98 93 78 73 92 93 96 74 82 82 86 82 85 92 95 99 96 98 95 100 96 86 83
5 4 4 3 5 71 98 100 100 100 100 100 100 99 100 33 24 22 30 34 38 34 60 46 81 93 97 98 97 98 97 98 97 98 98 97 96 94 83 76 86 94 99 94 97 95 99 96 98 92 94 88 84 82
5 4 4 3 7 71 100 100 100 100 100 100 100 100 100 98 82 28 34 36 42 39 52 50 83 97 97 98 98 98 99 99 97 95 98 97 98 98 98 98 97 99 96 97 95 95 95 84 74 73 87 96 92 90
4 4 4 3 3 48 98 99 100 99 100 100 96 86 96 55 29 35 38 40 39 42 52 59 60 99 98 94 97 97 99 96 98 98 98 99 97 98 90 95 97 97 98 85 91 95 95 88 72 57 51 53 64 76
4 4 4 3 4 57 100 95 97 100 100 100 100 100 98 88 38 37 36 36 39 40 52 77 39 93 99 97 95 95 96 98 96 95 88 93 97 96 95 95 90 89 80 85 91 78 53 44 42 44 45 39 24 19
4 4 4 3 8 93 100 100 100 100 100 100 100 100 100 99 94 44 36 41 44 41 47 87 46 50 99 100 100 98 93 95 82 43 39 41 47 47 46 46 50 57 66 62 54 50 43 40 42 44 45 39 21 13
4 4 4 3 11 93 100 99 100 100 100 100 100 99 99 99 67 49 42 56 64 54 49 77 84 32 58 90 99 100 100 97 90 66 45 39 37 33 32 49 55 57 58 47 40 33 36 37 34 34 26 20 20 22
4 4 3 3 5 61 100 99 100 100 100 100 100 100 100 91 68 74 56 60 69 81 73 54 84 67 32 47 74 92 96 94 96 93 83 70 63 50 62 72 61 45 42 45 48 51 36 27 28 29 28 27 45 69
4 4 3 3 3 70 100 96 100 100 100 100 100 100 95 97 90 99 97 83 72 75 75 90 69 91 80 41 36 41 46 54 61 61 71 78 74 66 57 49 49 51 49 44 36 30 30 30 28 29 46 55 50 45
4 4 3 2 4 60 85 90 100 100 100 100 95 98 100 100 100 100 100 94 85 74 63 54 56 77 98 98 74 57 39 35 32 32 39 29 24 38 30 26 26 27 28 27 27 26 23 25 42 55 58 68 79 88
4 4 3 1 3 30 69 79 100 100 100 100 89 92 98 100 98 95 84 77 76 69 63 55 53 59 74 84 95 96 91 85 75 56 60 39 69 82 75 64 53 43 40 40 40 42 59 72 78 83 83 75 64 56
4 4 2 1 3 44 96 100 100 100 100 100 100 100 100 95 91 72 58 55 55 56 65 66 59 55 57 54 59 74 90 84 82 78 68 73 82 88 91 90 88 88 88 86 83 77 68 63 58 56 55 53 54 51
3 4 2 1 2 37 100 100 100 100 100 100 100 88 100 85 64 55 56 61 73 78 91 100 97 84 65 63 65 65 60 58 59 56 62 72 82 91 92 92 92 88 80 76 74 73 70 66 61 56 53 54 64 85
4 4 2 1 10 78 100 100 100 100 100 100 99 85 79 67 65 68 68 71 84 98 100 100 98 98 93 77 66 62 61 52 45 44 49 52 54 58 63 66 66 63 61 58 58 57 57 60 70 77 83 91 91 80
4 4 2 2 32 98 100 100 100 100 100 98 98 79 64 69 78 78 83 96 100 100 100 98 97 96 97 92 78 72 63 57 56 57 54 51 50 47 45 45 45 46 52 57 58 60 70 82 89 98 99 92 81 75
4 4 3 10 58 100 100 100 100 100 100 100 94 80 69 77 84 90 100 100 100 99 100 98 95 90 86 86 84 86 86 94 96 91 83 78 74 71 68 65 64 64 67 71 73 77 85 97 100 100 96 82 77 76
4 4 4 5 68 99 100 100 100 100 100 98 94 85 77 82 94 100 100 100 100 99 96 100 100 96 83 82 93 100 100 100 98 92 85 79 77 82 85 85 83 81 82 85 87 94 100 100 99 90 83 84 84 80
3 4 4 4 87 100 100 100 100 100 98 98 92 94 88 82 89 100 100 100 100 100 100 100 100 88 85 89 98 100 100 100 99 96 88 80 74 78 86 87 88 91 94 98 100 99 98 98 95 92 87 85 82 75
3 4 4 7 75 100 100 100 100 100 100 98 99 100 100 94 92 100 100 100 100 100 100 99 92 89 94 96 100 100 100 100 100 99 96 92 90 89 88 86 88 92 92 94 97 98 97 95 93 90 87 82 76 72
5 4 4 8 76 100 100 100 100 100 100 100 100 100 100 99 98 99 100 100 100 100 100 100 100 94 100 100 100 100 98 100 100 100 100 100 100 99 97 95 93 90 90 87 83 80 83 84 82 80 80 78 74 72
5 5 4 6 49 100 100 100 100 100 100 99 100 100 100 100 100 100 100 100 100 100 100 99 100 100 100 100 100 100 100 100 100 100 100 100 100 100 100 99 99 97 92 87 85 83 84 87 88 86 83 82 80 80
6 6 6 6 15 81 100 100 100 100 100 100 100 100 100 100 100 100 100 100 100 100 100 100 100 100 100 100 100 100 100 100 100 100 100 100 100 100 100 99 98 98 96 91 92 94 94 91 86 82 82 83 77 72
9 6 7 8 8 28 70 100 100 100 100 100 100 100 100 100 100 100 95 100 100 100 100 100 100 100 100 100 100 100 100 100 100 100 100 100 100 99 98 98 97 94 90 87 86 85 85 86 87 86 81 76 72 68
14 8 7 9 10 19 74 94 100 100 100 100 100 100 100 100 100 100 100 97 93 99 100 100 100 100 100 100 100 100 100 100 100 100 100 100 100 98 95 92 90 88 85 84 85 87 86 82 80 76 73 72 70 68
15 11 9 8 11 11 33 100 100 100 100 100 100 100 100 100 100 100 99 100 100 100 100 100 100 100 100 100 99 99 99 100 100 98 94 91 92 92 91 91 92 92 90 89 86 84 82 80 76 74 73 72 72 70
21 15 13 10 10 13 14 41 100 100 100 100 100 100 100 100 100 97 100 100 100 100 100 100 100 100 100 100 100 100 100 100 100 96 94 93 93 94 95 97 96 94 91 87 84 80 77 77 78 76 76 74 70 61
33 21 16 16 14 12 16 17 57 100 100 100 100 100 100 100 99 99 100 100 100 100 100 100 100 100 100 100 100 100 100 99 98 99 98 98 98 98 97 98 94 87 81 80 80 79 78 77 76 77 74 66 56 46
41 36 26 20 20 17 16 19 22 61 100 100 100 100 100 100 100 100 100 100 100 100 100 100 100 100 100 100 100 100 100 100 99 100 100 100 99 96 93 89 87 90 89 81 76 76 78 79 78 70 57 45 34 24
50 43 38 35 27 25 24 20 23 31 82 100 100 100 100 100 100 100 100 100 100 100 100 100 100 100 100 100 100 100 100 100 98 97 96 98 100 100 98 97 99 89 76 76 81 84 80 72 60 46 35 25 18 21
57 57 47 44 44 29 28 30 24 24 36 89 98 100 100 100 100 100 100 100 100 100 100 100 100 100 100 100 100 100 100 100 100 100 100 100 100 97 95 97 89 81 85 88 84 73 59 45 32 21 16 24 46 68
72 69 66 57 50 46 30 26 35 32 26 26 61 82 94 100 100 100 100 100 100 100 100 100 100 100 100 100 100 100 100 100 100 100 100 100 94 94 93 88 85 86 82 68 54 42 27 17 21 39 69 74 56 25
88 86 82 83 59 59 59 35 19 25 34 35 34 30 37 62 91 97 100 100 100 100 100 100 100 100 100 100 100 100 100 99 97 94 91 86 83 83 85 84 76 67 56 40 24 20 34 62 81 71 32 14 14 15

GFSWCAN_500_rhum_018.txt.gz
RH
7 10 5 3 3 3 21 100 100 100 88 92 99 94 96 84 81 27 30 26 31 32 80 60 65 98 98 98 98 98 99 96 86 70 76 100 98 82 85 77 84 95 95 90 82 77 97 88 93 96 99 97 80 71
7 9 6 4 3 3 8 92 100 99 82 96 97 98 96 91 78 30 32 28 33 35 41 64 53 100 97 98 98 98 98 97 91 96 88 90 98 100 98 99 96 84 84 90 90 95 96 97 97 95 95 96 98 98
7 9 6 3 3 2 23 90 100 100 94 88 100 100 100 98 70 29 40 36 35 43 31 66 51 91 99 98 98 98 98 98 97 81 90 91 96 97 90 74 84 82 96 84 94 97 89 97 98 98 96 94 96 95
8 9 5 3 3 3 29 85 98 100 95 89 99 100 98 43 49 63 36 37 43 46 35 71 56 57 92 98 98 98 98 98 99 97 89 84 91 97 98 96 75 74 80 91 91 96 94 98 97 97 97 87 75 85
8 7 4 3 3 3 14 52 76 100 96 93 100 100 97 100 98 53 34 35 45 45 40 52 59 49 75 96 99 98 99 96 99 100 94 95 97 98 98 97 91 88 90 97 95 98 98 98 87 84 94 86 66 57
8 4 3 3 3 3 10 47 99 99 90 93 100 100 100 99 100 52 30 33 42 41 49 44 64 51 67 91 99 97 98 100 96 96 97 94 94 94 95 97 96 95 98 99 98 84 96 90 66 54 44 46 48 46
7 3 3 4 3 3 6 47 100 94 87 100 99 100 100 99 99 70 79 66 40 46 48 43 64 60 52 88 93 98 98 98 96 97 100 99 100 99 99 100 98 96 96 94 93 97 97 73 48 41 41 42 41 44
5 3 3 4 3 3 13 72 97 93 98 100 100 100 99 100 99 95 72 49 48 49 48 46 47 74 49 66 98 100 98 92 97 96 95 92 88 87 87 77 66 61 63 78 82 69 54 48 38 35 40 36 29 25
4 3 3 4 3 3 27 75 84 89 100 100 100 100 100 90 90 79 58 50 52 54 62 56 50 72 75 44 83 98 99 98 88 94 93 61 42 36 44 47 48 49 53 56 60 62 53 40 34 37 43 28 27 29
3 3 3 4 3 3 21 78 83 92 100 100 100 100 92 86 100 98 91 81 66 52 68 100 58 58 89 91 40 60 92 98 93 99 93 77 61 71 71 72 77 69 59 46 44 42 42 47 50 40 31 29 26 26
2 3 3 3 3 3 20 83 92 94 100 100 100 98 77 100 100 100 98 92 76 60 59 85 88 100 84 93 95 56 41 50 64 63 66 66 67 73 85 76 74 72 61 52 44 37 36 34 29 27 26 30 46 64
2 2 3 3 3 4 59 94 100 100 100 99 99 100 100 100 99 97 86 78 69 55 57 66 87 100 100 100 100 99 76 46 39 41 42 40 48 45 40 37 32 32 36 37 33 32 30 31 36 43 58 76 88 94
2 3 3 3 3 4 65 100 100 100 100 100 100 100 96 96 94 80 60 63 59 55 60 71 86 98 98 99 86 83 87 80 69 58 40 52 74 72 74 70 76 83 85 86 86 86 86 86 89 86 78 67 63 64
3 3 3 3 2 4 70 100 100 100 100 100 100 98 99 95 81 58 68 81 84 84 92 100 99 99 97 91 73 67 61 58 61 63 73 91 92 90 88 88 89 89 88 89 95 97 98 94 86 81 77 66 59 57
4 3 3 3 2 2 31 100 100 100 100 100 98 79 67 68 71 76 80 87 92 93 100 100 98 98 97 89 86 76 64 52 46 48 57 62 69 76 78 80 82 87 88 87 83 81 77 70 61 57 57 58 61 71
5 3 3 3 1 2 19 91 100 100 100 100 92 66 56 70 72 81 88 93 99 100 100 97 94 88 93 91 79 75 64 60 62 61 57 58 57 56 54 52 52 53 54 54 52 52 52 53 56 57 58 69 84 98
6 3 3 3 2 6 86 94 100 100 100 100 89 77 74 74 76 77 82 99 100 99 99 95 95 87 84 87 80 77 77 80 77 77 74 67 67 63 57 55 54 55 53 52 56 58 61 66 69 76 90 100 100 100
6 5 3 3 2 7 100 100 100 100 100 93 82 87 84 78 72 77 98 100 100 98 100 100 100 100 93 90 88 96 100 98 92 83 81 79 76 77 79 78 78 77 76 76 78 80 84 90 98 100 100 100 100 100
5 7 3 3 3 8 73 100 100 100 100 91 82 88 94 92 92 100 100 98 100 100 100 100 98 89 80 86 98 100 97 96 93 86 81 83 86 84 76 71 71 76 79 80 81 82 87 92 95 95 95 96 98 95
5 8 5 3 4 19 92 100 100 100 99 98 98 95 94 100 100 100 100 100 100 100 100 96 87 92 98 100 100 100 99 99 100 100 97 92 90 86 82 79 80 81 82 83 85 86 85 85 86 90 90 87 81 76
6 8 10 4 4 6 77 100 100 100 100 100 100 100 100 100 100 100 100 100 100 100 99 99 100 96 100 100 100 100 99 97 100 100 100 98 93 88 89 91 89 87 85 84 84 84 85 87 86 84 80 77 77 77
7 10 13 5 4 5 34 100 100 100 98 99 100 100 100 100 100 100 100 100 100 100 100 100 100 100 100 100 100 100 100 100 100 99 97 97 98 100 99 98 96 93 90 89 86 86 87 87 88 84 80 77 76 76
10 13 15 7 4 4 13 79 100 100 100 100 100 100 100 100 100 100 100 95 96 100 100 100 100 100 100 100 100 100 100 100 100 100 100 100 100 100 100 97 93 90 88 90 93 95 95 93 86 81 79 77 75 71
16 16 16 8 5 5 8 41 100 100 100 100 100 100 100 100 100 100 100 98 99 100 100 100 100 99 100 100 100 100 100 100 100 100 100 100 100 100 98 98 98 96 96 94 89 85 82 80 80 77 74 70 69 70
22 23 20 10 6 6 7 23 69 100 100 100 100 100 100 100 100 100 98 100 100 100 100 100 100 100 100 100 100 98 99 100 100 100 100 100 100 100 98 96 94 94 90 90 88 85 82 80 78 75 71 70 69 70
29 28 24 14 8 7 8 12 80 100 100 100 100 100 100 100 100 100 100 99 100 100 100 100 100 100 100 100 100 100 100 100 100 100 100 100 100 96 93 90 90 91 88 85 81 79 79 79 78 76 75 76 71 62
37 35 29 24 12 9 8 11 33 100 100 100 100 100 100 100 100 100 100 100 100 100 98 99 100 100 100 100 100 100 100 100 100 100 100 99 93 89 89 90 88 87 86 86 88 90 88 87 85 82 74 64 58 55
47 39 36 28 21 12 10 9 14 70 100 100 100 100 100 100 100 100 100 100 99 100 100 100 100 100 100 100 100 100 100 100 100 100 98 94 92 92 92 93 95 96 96 98 99 97 92 86 76 67 63 59 57 59
54 46 41 40 34 23 15 12 12 15 66 100 100 100 100 100 100 100 100 100 100 100 100 100 100 100 100 100 100 100 100 100 100 100 99 98 97 95 95 97 99 100 100 100 100 93 86 75 69 70 66 63 62 65
59 53 50 47 47 36 22 16 14 14 20 59 100 100 100 100 100 100 100 100 100 100 100 100 100 100 100 100 100 100 100 100 100 100 100 100 100 100 100 100 100 100 100 97 92 88 86 78 77 74 66 65 63 53
58 61 58 58 56 52 38 15 16 18 17 22 50 100 100 100 100 100 100 100 100 100 100 100 100 100 100 100 100 100 100 100 100 100 100 100 100 100 100 100 100 100 97 94 94 91 83 75 67 64 62 52 38 24
57 66 69 68 70 62 52 24 12 14 21 19 22 32 75 100 100 99 100 100 100 100 100 100 100 100 100 100 100 100 100 100 100 100 100 100 100 100 100 100 100 97 91 90 85 77 66 62 61 54 40 24 23 50
68 71 78 78 79 74 57 44 27 12 17 23 23 22 34 70 100 100 100 99 100 100 100 100 100 100 100 100 100 100 100 100 100 100 100 100 100 99 98 98 96 87 81 74 64 62 59 55 42 25 27 59 64 38

GFSWCAN_500_rhum_021.txt.gz
RH
6 3 6 7 6 3 2 21 100 94 91 87 96 100 100 98 100 92 98 75 39 58 77 82 60 93 100 98 98 98 98 98 88 70 68 64 56 48 48 55 62 68 66 74 79 91 94 81 84 87 85 88 72 61
6 3 6 7 4 3 2 17 84 100 76 71 96 100 100 100 100 100 87 53 44 59 73 100 66 70 98 98 98 96 98 97 97 91 82 64 74 78 79 74 72 85 83 90 87 94 98 98 92 94 93 85 82 81
6 4 6 6 3 3 2 18 59 100 93 64 97 94 95 96 98 100 69 51 43 62 60 74 68 80 100 100 98 98 97 98 98 96 76 72 93 96 97 92 86 86 91 94 95 89 80 92 93 94 93 89 88 90
6 4 5 4 3 3 2 8 67 87 56 72 79 87 98 100 100 99 78 40 48 54 53 54 70 60 100 100 94 97 98 97 97 79 97 97 91 86 87 92 88 93 79 77 91 95 92 83 89 95 93 88 87 88
6 4 5 3 3 3 2 5 67 80 100 93 82 96 100 100 100 98 57 40 49 49 52 52 64 56 88 100 98 97 99 96 98 99 94 80 74 76 85 91 96 95 73 70 82 87 94 88 90 91 96 96 90 92
6 4 4 3 3 3 2 4 84 100 96 90 93 100 100 100 100 100 67 38 46 52 50 58 60 61 54 98 98 86 99 96 99 98 97 92 96 91 94 98 98 94 89 85 96 97 97 98 96 94 91 66 52 48
7 4 3 3 3 3 2 3 61 94 85 79 99 100 100 100 97 89 56 57 53 52 47 50 63 63 57 80 99 99 98 100 94 99 98 96 99 98 96 97 98 90 94 100 100 98 95 96 93 82 66 50 47 49
7 4 3 2 3 3 3 7 52 92 78 75 93 100 100 99 100 87 99 74 50 51 43 45 52 68 70 60 89 98 100 97 92 95 98 97 95 92 97 98 99 100 100 100 97 92 97 97 89 68 48 42 46 44
8 4 3 2 3 3 3 5 56 88 85 74 96 100 100 100 98 96 100 69 58 53 41 42 55 55 72 75 52 91 94 97 98 96 96 98 98 98 96 92 76 69 66 68 83 91 88 76 58 51 47 47 49 45
7 4 3 2 3 3 3 4 45 76 74 80 98 100 100 90 88 99 100 95 71 81 51 40 53 60 58 93 74 48 93 89 86 92 84 87 95 93 76 61 57 50 50 50 48 48 47 46 49 47 47 48 43 33
8 4 3 2 3 3 3 4 50 83 74 88 100 100 100 100 100 100 97 89 83 73 48 40 54 60 58 62 90 76 51 78 86 95 75 72 98 92 75 58 59 69 69 74 77 76 69 57 50 41 34 31 30 31
10 4 4 3 3 3 3 6 52 93 92 100 100 100 100 100 100 98 79 72 64 58 44 42 51 96 90 79 77 79 84 63 51 57 68 73 83 76 70 72 70 69 63 47 34 33 35 36 37 35 35 40 47 63
11 4 4 3 3 3 3 10 61 100 100 100 100 100 99 95 93 73 55 55 61 58 62 70 60 70 99 100 100 100 99 86 80 55 43 63 68 63 48 44 42 38 37 40 53 66 72 75 80 84 88 93 92 85
14 7 4 3 3 3 3 11 86 100 100 100 100 100 99 84 63 52 52 61 70 80 92 98 98 95 94 96 94 94 82 75 79 80 93 99 100 86 80 80 80 72 69 74 77 81 88 90 92 98 100 99 97 92
17 10 4 4 3 3 3 7 85 100 100 100 100 100 73 47 47 56 70 80 87 100 100 100 98 97 100 92 78 75 71 64 62 59 60 64 76 91 96 95 89 86 86 89 91 94 95 97 94 90 84 74 66 66
23 11 4 4 3 2 3 10 84 100 100 100 100 94 63 50 52 68 87 100 98 100 100 95 94 91 89 88 79 77 76 71 72 74 62 58 57 57 58 60 63 67 69 71 72 73 71 67 62 57 58 64 69 70
28 16 7 4 3 2 2 5 81 100 100 100 98 84 67 58 60 64 94 100 100 96 97 91 84 88 91 89 69 71 78 83 84 80 74 72 69 63 57 53 51 50 50 50 50 51 52 52 56 61 66 70 75 84
34 18 8 4 5 3 2 2 24 94 100 98 96 85 72 74 73 70 94 100 100 100 95 90 91 85 78 86 88 97 99 98 90 85 86 85 85 82 79 76 72 68 70 74 77 76 76 76 78 80 82 88 97 100
39 22 9 4 6 4 3 3 7 63 98 99 100 84 75 89 91 98 100 98 100 100 99 99 92 83 84 94 100 98 94 90 84 86 84 85 82 78 78 80 82 78 70 65 62 66 72 77 81 86 90 93 95 96
47 25 9 5 6 7 3 6 49 96 100 98 100 99 98 100 99 100 100 100 100 100 99 88 88 99 100 100 100 95 92 88 86 86 86 84 79 80 88 89 86 82 74 68 69 74 77 80 84 88 92 91 91 89
53 27 10 5 5 9 4 4 62 100 100 100 99 100 100 100 100 100 100 100 100 95 89 88 97 100 98 98 100 100 100 93 91 94 88 83 78 82 88 87 88 86 81 79 79 79 80 84 91 90 87 89 90 88
51 27 10 6 5 10 6 3 11 88 100 100 100 100 100 100 100 100 100 100 100 97 98 100 98 100 100 100 100 100 100 100 100 99 98 94 90 91 93 89 81 80 82 81 81 85 87 86 82 80 84 87 86 82
49 23 9 6 7 11 8 4 8 71 100 100 100 100 100 100 100 100 100 99 99 99 98 99 99 100 100 100 100 100 100 100 100 100 100 100 100 100 97 90 92 96 96 95 93 92 89 88 86 85 83 81 78 75
42 18 9 8 10 14 12 5 5 17 99 100 100 100 100 100 99 100 100 100 99 96 100 100 99 97 98 96 100 100 100 100 100 100 99 100 100 100 100 98 100 100 100 96 87 88 92 90 88 86 83 79 73 67
22 12 10 9 15 18 14 6 5 8 36 100 100 100 100 100 100 94 96 100 100 100 99 100 100 100 100 100 99 98 97 100 100 100 100 100 100 100 100 100 98 96 94 96 92 86 82 82 82 83 81 75 70 68
14 13 13 15 25 23 20 9 6 6 22 81 100 100 100 100 100 100 93 99 100 100 98 99 100 100 100 100 100 100 100 100 100 100 100 100 100 100 100 100 100 100 96 92 92 93 90 88 86 85 83 81 78 77
14 16 15 21 32 30 23 15 7 7 12 99 100 100 100 100 100 100 100 100 100 100 100 100 100 100 100 100 100 100 100 100 100 100 100 100 100 100 100 100 100 99 98 100 96 92 93 95 95 92 90 88 84 79
18 18 17 33 40 38 31 18 11 7 9 47 100 100 100 100 100 100 100 100 100 100 100 100 100 100 100 100 100 100 100 100 100 100 100 100 100 100 100 100 100 100 100 100 100 100 100 99 98 93 88 85 81 76
24 25 28 45 44 43 42 28 15 11 9 14 72 100 100 100 100 100 100 100 100 100 100 100 100 100 100 100 100 100 100 100 100 100 100 100 99 100 100 100 100 100 100 100 100 100 100 96 92 88 86 82 76 66
26 26 32 52 50 52 52 43 17 14 12 10 15 68 100 100 100 100 100 100 100 100 100 100 100 100 100 100 100 100 100 100 98 100 100 100 98 96 96 98 100 100 100 100 100 100 99 99 97 90 85 75 67 62
21 24 42 58 57 59 61 47 20 9 13 14 13 16 46 96 100 100 100 100 100 100 100 100 100 100 100 100 100 100 100 100 100 100 100 100 100 100 100 100 100 100 100 100 100 100 98 94 90 86 80 72 64 57
18 27 48 60 63 67 66 47 35 10 8 14 17 16 19 29 62 99 100 100 100 100 100 100 100 100 100 100 100 100 100 100 100 100 100 100 100 100 100 100 100 100 100 100 100 98 95 91 84 76 68 60 53 48
19 32 49 65 70 72 70 59 64 34 12 14 20 20 19 23 44 65 73 97 100 100 100 100 100 100 100 100 100 100 100 100 100 100 100 100 100 100 100 100 99 99 98 95 92 91 86 77 70 63 57 52 50 33

GFSWCAN_500_rhum_024.txt.gz
RH
28 23 14 5 3 3 2 5 39 79 76 77 88 97 100 100 100 100 100 95 59 96 72 82 100 94 99 99 99 98 100 96 95 85 53 49 52 58 59 64 59 51 53 66 84 82 76 78 76 85 77 66 66 64
29 24 16 5 3 2 2 2 25 58 74 83 94 97 100 99 100 100 100 88 73 74 68 98 100 90 99 99 99 97 90 96 100 98 81 81 70 57 56 68 54 62 76 85 75 70 73 86 87 86 91 91 88 84
29 24 16 5 3 2 2 2 14 56 69 62 86 99 100 100 100 99 100 84 92 64 70 90 100 74 96 99 99 98 96 94 92 95 100 100 75 73 66 75 84 88 94 95 87 86 90 100 97 91 99 100 100 100
26 23 13 3 3 2 3 2 4 58 75 56 72 93 100 100 99 100 100 91 93 62 74 94 98 70 96 98 99 98 99 99 100 99 100 88 79 85 100 98 89 91 96 97 95 90 91 92 89 90 96 96 96 100
26 21 7 3 2 2 3 3 6 29 72 48 66 100 100 100 99 91 95 97 72 59 61 75 70 78 96 99 98 98 100 99 97 99 90 82 80 92 92 94 98 91 89 95 90 78 80 87 92 89 92 93 93 95
26 18 6 2 2 2 3 3 12 71 81 47 80 99 100 100 100 100 93 96 57 56 60 62 62 74 84 99 98 98 97 100 97 91 91 97 94 83 81 91 93 92 92 89 78 82 87 94 97 96 94 96 96 84
26 18 9 3 2 2 3 3 15 72 68 44 68 93 100 100 100 90 91 100 58 58 55 79 57 69 66 87 100 91 93 100 100 97 96 93 96 93 95 97 98 97 98 94 83 94 97 94 96 98 97 87 79 67
27 21 11 4 2 2 3 2 11 58 76 57 60 77 100 100 100 100 100 97 61 60 54 55 62 74 75 68 98 100 100 98 100 98 96 97 98 97 97 97 99 98 96 97 98 99 99 96 95 95 90 64 50 48
29 24 14 5 2 3 3 2 5 37 68 64 49 81 100 100 99 100 100 100 67 49 42 47 50 58 81 78 89 100 100 100 99 98 98 98 97 98 97 92 97 98 98 96 99 99 94 99 99 95 84 61 50 48
33 26 17 6 3 2 3 2 7 42 56 57 49 96 100 100 100 100 98 96 82 52 34 38 46 52 63 70 80 85 92 100 100 100 96 98 97 100 100 99 100 98 94 80 87 89 79 68 65 57 54 50 48 50
35 29 19 7 3 2 2 2 8 56 71 54 87 100 100 100 100 100 97 89 82 70 48 38 46 48 62 61 64 76 68 77 96 99 94 94 100 95 95 92 88 76 56 50 52 52 53 52 56 64 66 57 47 37
38 31 22 9 3 2 2 3 8 56 72 78 89 100 100 100 100 100 81 80 79 68 53 47 56 53 58 70 58 72 88 71 65 92 95 98 96 86 84 85 72 60 56 53 56 66 78 76 54 34 29 32 36 39
41 34 24 12 4 2 2 2 4 48 84 96 100 100 100 100 99 78 54 50 48 48 62 79 86 56 56 80 96 74 88 79 82 73 79 85 78 77 81 85 85 81 78 76 68 54 42 41 50 65 73 75 79 86
44 38 27 16 4 3 2 3 3 27 100 100 100 100 100 87 68 50 44 51 72 79 84 95 91 61 56 75 100 100 98 89 81 79 99 86 76 66 67 70 68 52 44 44 42 42 57 75 84 95 98 99 99 99
49 41 31 18 5 3 2 3 4 15 98 100 100 100 90 69 64 58 56 63 79 94 100 100 98 94 93 83 75 90 94 81 84 92 92 92 92 95 83 71 62 62 70 73 75 82 90 94 94 94 94 91 90 91
52 46 35 20 5 3 3 2 4 16 100 100 100 100 75 56 52 58 64 69 97 100 100 87 80 85 89 91 84 87 84 78 81 93 94 92 85 82 68 66 74 81 86 88 89 88 86 86 85 82 78 73 68 62
58 47 41 24 8 5 3 2 3 8 90 100 100 93 89 65 59 59 66 83 100 96 95 88 83 80 80 92 85 81 90 89 82 83 85 93 92 82 66 61 56 51 49 50 52 52 51 50 51 51 52 54 60 71
60 51 47 28 11 7 4 4 2 4 52 100 100 89 86 87 86 78 85 92 94 98 99 99 95 92 90 87 84 96 100 96 91 93 94 92 87 81 76 70 67 63 58 55 54 54 54 59 67 73 79 86 90 92
63 53 50 37 16 9 7 4 3 2 6 83 100 96 91 93 98 99 99 92 96 99 100 100 98 84 85 94 94 89 87 84 81 90 96 99 97 88 83 81 81 76 75 74 73 73 71 68 72 79 84 87 88 87
66 57 52 44 19 10 8 5 4 3 3 26 98 99 96 99 100 100 100 100 100 99 99 92 87 93 100 100 98 96 90 92 85 87 94 98 99 98 92 82 76 78 84 79 75 72 70 72 77 80 82 84 84 86
72 63 56 39 14 11 9 6 5 5 3 8 54 99 100 100 100 100 100 100 100 95 90 94 100 100 100 100 100 100 92 86 88 91 89 93 100 99 95 89 85 92 93 91 85 80 76 75 77 81 84 83 85 88
74 63 59 50 14 12 9 6 6 6 4 5 39 79 100 100 100 100 100 100 95 98 93 97 100 100 100 100 99 99 92 92 91 88 92 94 100 100 100 100 100 99 92 84 78 76 75 76 82 85 84 85 87 86
69 64 59 32 15 13 10 7 6 8 4 7 46 100 100 100 100 100 100 99 98 85 89 98 99 99 99 100 100 100 99 96 98 99 100 100 100 100 99 100 98 94 91 91 86 84 89 95 93 93 93 92 90 84
71 64 56 21 16 14 11 8 10 11 6 5 26 99 100 100 100 100 100 98 90 98 100 100 97 96 97 100 100 100 100 95 96 100 100 100 100 100 100 100 100 97 97 92 88 89 96 99 100 100 97 93 87 82
72 60 27 18 16 14 11 10 12 15 8 5 11 65 100 100 100 100 99 100 100 100 97 100 99 99 99 100 100 100 100 100 100 100 100 100 100 100 100 100 100 97 96 93 92 100 100 100 100 100 100 100 94 87
39 22 20 16 15 14 11 11 17 19 15 6 6 47 98 100 100 100 100 100 100 100 100 100 94 98 100 99 100 100 100 100 100 100 100 100 100 100 100 100 100 100 100 100 100 100 99 100 100 100 100 98 90 89
28 20 17 13 16 16 15 20 23 24 18 9 6 13 79 100 100 100 100 100 100 100 100 100 100 100 98 100 100 100 100 100 100 100 100 100 100 100 100 100 100 100 100 100 97 99 100 100 100 100 98 98 98 98
20 14 10 13 17 19 23 32 32 29 23 13 7 8 31 100 100 99 100 100 100 100 100 97 100 100 100 95 99 100 100 100 100 100 100 100 100 100 100 100 100 100 100 98 100 100 100 100 100 100 99 98 95 93
10 7 9 13 17 21 36 45 43 34 26 16 10 8 16 72 100 100 96 98 98 99 100 100 100 100 100 100 100 100 100 100 100 100 100 100 100 100 100 100 100 100 98 99 100 100 100 100 100 99 98 95 90 86
6 7 11 15 19 24 47 51 50 39 27 16 9 9 9 26 97 100 100 99 100 100 100 100 100 100 100 100 100 100 100 100 100 100 100 100 100 100 100 100 100 99 99 100 100 100 100 99 98 96 94 92 89 85
7 10 14 17 22 32 58 59 56 41 27 12 5 10 11 11 32 97 100 100 100 100 100 100 100 100 100 100 100 100 100 100 100 100 100 100 100 100 100 100 100 100 100 100 100 100 98 96 96 95 91 87 84 80
8 11 14 16 25 45 63 67 61 43 29 10 4 8 12 12 15 31 91 100 100 100 100 100 100 100 100 100 100 100 100 100 100 100 100 100 100 100 100 100 100 100 99 99 99 99 97 94 90 86 81 79 76 70
12 15 13 16 35 60 68 72 68 55 43 17 6 8 12 14 15 24 35 76 100 100 100 100 100 100 100 100 100 100 100 100 100 100 100 100 100 100 100 100 100 100 100 100 100 98 96 91 86 82 76 70 66 60

GFSWCAN_500_rhum_027.txt.gz
RH
45 39 26 18 11 5 2 2 3 33 45 50 80 90 78 84 88 92 100 100 100 100 100 93 94 99 100 99 100 99 99 83 50 34 33 32 36 36 48 56 55 50 56 62 74 69 77 69 68 71 70 60 60 65
46 38 26 20 15 5 2 2 2 27 40 48 75 84 90 92 88 98 98 100 100 84 79 97 96 100 100 99 99 99 94 97 69 58 43 46 41 42 52 51 58 50 45 56 72 77 75 74 70 66 72 78 84 78
46 36 28 22 14 4 2 2 2 27 49 45 65 89 100 100 90 93 100 100 97 63 81 92 99 100 98 99 99 99 96 96 95 89 87 78 67 56 46 43 53 51 53 79 82 88 83 79 86 84 86 87 90 96
45 36 30 24 12 3 2 2 2 24 62 48 64 98 99 91 88 91 85 91 100 67 91 85 100 100 94 99 100 99 98 98 99 98 98 92 80 74 63 51 45 46 75 85 82 96 94 83 86 84 88 98 100 96
44 38 32 25 11 3 2 2 2 10 46 59 63 88 100 95 100 89 97 98 97 81 77 81 93 100 91 100 98 99 99 98 99 100 99 99 96 90 79 89 92 98 92 91 77 87 96 93 89 88 90 93 96 96
44 39 34 26 10 3 2 2 2 5 20 47 48 81 100 100 100 100 97 95 100 99 67 78 97 98 98 100 100 99 99 99 99 99 97 89 94 83 87 99 96 88 96 96 95 84 84 93 95 97 96 94 92 98
46 41 34 25 8 3 2 2 2 2 12 41 48 67 88 96 99 84 88 100 97 94 62 88 92 80 98 95 100 97 98 99 99 100 98 89 100 91 92 98 85 86 94 88 92 80 80 92 98 99 97 96 99 91
46 41 36 26 10 3 2 3 2 3 6 33 48 65 84 96 100 100 94 99 97 98 62 79 83 72 89 88 93 98 92 98 98 99 98 97 95 90 91 87 95 96 90 96 98 85 88 90 99 100 100 97 89 71
47 41 37 28 10 3 2 2 2 4 9 25 54 72 100 100 100 100 96 92 100 92 55 69 85 71 82 84 80 98 95 97 97 97 97 98 97 98 97 98 96 92 96 96 95 96 91 99 97 98 95 85 66 56
48 44 38 30 8 4 2 2 2 11 46 30 72 87 100 100 100 100 100 90 93 92 49 56 66 62 72 85 80 92 97 97 90 93 91 96 98 90 81 86 94 89 92 89 88 98 100 98 99 97 95 90 74 60
50 47 41 31 8 4 2 2 2 8 50 37 68 83 90 100 100 98 100 91 76 76 52 46 54 53 60 68 75 87 86 86 92 88 83 83 88 82 82 78 88 90 100 100 93 96 95 86 69 61 58 58 61 64
50 49 43 34 12 6 3 2 2 6 45 37 39 76 82 97 100 99 80 76 68 71 68 44 52 54 58 66 72 76 83 78 70 76 79 94 98 79 76 86 99 98 90 75 67 61 62 63 67 73 76 75 66 40
48 49 45 37 20 7 4 2 2 9 27 55 71 93 74 99 100 87 56 49 54 61 78 97 82 59 59 61 72 77 74 77 85 78 73 83 85 92 85 82 83 89 87 84 62 58 60 63 74 80 62 41 48 62
47 48 46 39 29 9 5 2 2 4 34 41 58 83 78 86 85 68 56 55 75 93 100 100 100 93 80 74 74 73 84 81 70 84 93 80 78 77 77 77 84 88 88 86 82 82 80 68 54 46 50 73 92 99
50 50 48 43 35 11 7 3 2 2 20 69 71 92 98 70 70 69 73 78 80 100 100 100 98 93 96 88 81 62 76 85 89 100 92 84 78 85 82 74 67 70 76 72 58 47 47 50 56 70 88 96 98 99
50 53 52 48 38 22 10 5 3 2 3 53 99 100 93 72 62 65 72 83 90 100 100 99 92 87 75 69 69 62 59 66 100 98 98 91 84 79 79 85 87 85 88 89 90 85 83 85 87 89 93 96 97 92
47 51 52 52 42 23 10 8 5 3 3 7 90 100 86 75 68 72 76 85 100 99 94 100 98 96 88 77 72 76 81 99 86 87 91 91 84 84 84 76 74 69 60 58 66 73 73 75 75 74 70 66 60 58
51 53 51 52 45 28 13 9 5 4 2 4 58 100 99 83 76 78 86 86 94 100 99 96 95 81 76 71 74 94 100 85 80 84 85 81 79 77 82 88 78 70 66 63 58 54 54 55 55 54 55 63 73 81
55 54 53 54 46 39 21 14 7 4 3 2 11 85 100 100 87 85 96 100 96 100 98 98 93 82 82 92 100 100 96 83 76 67 65 69 72 78 78 83 83 77 72 70 70 71 69 70 77 84 88 86 82 83
53 49 52 55 48 41 31 17 11 6 4 3 3 42 93 100 100 100 100 100 100 100 99 88 84 97 100 100 100 100 98 89 75 66 61 66 72 81 87 86 85 84 83 82 81 82 86 84 76 75 75 77 81 86
58 53 53 57 52 47 19 19 13 9 5 3 4 3 43 96 100 100 100 100 100 100 93 79 88 100 100 100 100 100 94 81 67 62 59 69 82 87 97 94 87 89 89 85 85 85 80 82 81 79 81 85 85 82
63 57 58 61 55 42 22 22 15 10 6 4 4 4 3 41 100 100 100 100 100 96 88 76 82 99 100 100 100 100 99 88 73 76 79 85 93 95 96 96 98 95 94 98 94 93 95 91 85 84 86 86 86 89
61 58 60 62 56 37 24 23 13 8 6 5 5 6 5 8 82 100 100 100 100 93 79 74 84 98 100 100 100 100 100 100 97 84 86 89 95 99 100 100 100 100 100 99 99 100 96 92 91 90 88 88 88 86
60 60 62 60 52 31 28 18 8 6 6 6 7 9 6 6 53 100 100 100 100 94 100 97 95 97 98 100 100 99 99 100 100 96 85 85 100 100 100 100 100 100 100 100 100 100 100 100 98 95 99 100 99 99
67 68 60 58 39 29 18 9 6 6 6 8 10 12 8 8 23 95 100 100 100 100 100 100 100 100 100 100 100 100 99 100 100 99 99 96 98 100 100 100 100 100 100 100 100 100 100 100 100 100 100 100 100 100
68 62 46 35 28 16 8 6 6 7 9 11 15 16 13 7 18 77 100 100 100 100 100 100 100 100 100 100 100 100 100 100 98 98 100 100 100 100 100 100 100 100 100 100 100 100 100 100 100 100 100 100 100 100
63 46 36 26 15 8 6 6 6 7 10 15 20 19 16 8 8 44 96 100 100 100 100 100 100 100 100 100 100 100 100 100 100 100 100 100 100 100 100 100 100 100 100 100 100 100 100 100 100 100 100 100 100 100
55 45 29 17 8 6 5 6 8 10 14 19 24 22 18 11 6 12 58 97 100 100 100 100 100 100 100 100 100 100 100 100 100 100 100 100 100 99 97 99 97 99 100 100 100 100 98 99 100 100 100 100 100 100
54 35 18 10 6 5 6 8 11 13 20 25 29 24 19 12 8 7 17 65 96 100 100 100 100 100 100 100 100 100 100 100 100 100 100 100 100 100 100 100 100 100 100 100 97 95 99 100 100 100 100 100 99 98
42 20 12 7 5 6 7 11 14 23 32 36 33 26 20 12 9 7 7 24 63 90 96 100 100 100 100 100 100 100 100 100 100 100 100 100 100 100 100 100 100 100 100 100 100 100 100 100 100 100 100 99 99 96
23 13 7 5 6 7 9 14 18 37 46 45 37 27 16 6 6 8 8 19 58 97 97 93 100 100 100 99 100 100 100 100 100 100 100 100 100 100 100 100 100 100 100 100 100 100 100 100 100 98 99 97 93 89
13 7 6 6 6 8 12 16 24 50 55 48 38 27 8 3 8 10 10 24 89 100 100 100 100 100 100 100 100 100 100 100 100 100 100 100 100 100 100 100 100 100 100 100 100 100 100 100 100 98 95 90 89 86
9 6 6 7 7 12 14 18 41 61 61 51 42 26 6 5 9 11 14 22 76 100 100 100 100 100 100 100 100 100 100 100 100 100 100 100 100 100 100 100 100 100 100 100 100 100 100 100 98 96 93 87 83 78

GFSWCAN_500_rhum_033.txt.gz
RH
49 38 38 28 25 21 21 18 7 2 11 30 37 53 58 72 67 75 84 90 96 83 94 100 98 100 95 97 99 98 100 100 100 83 37 24 44 67 85 76 74 62 66 56 54 67 77 75 73 79 67 68 89 97
49 41 39 29 25 22 21 20 9 2 2 22 34 40 45 52 64 68 79 80 86 87 95 98 100 93 93 100 99 100 100 100 100 78 30 27 44 71 67 67 58 53 45 44 58 70 68 66 73 74 72 69 74 83
53 39 37 28 26 22 21 20 9 2 2 16 30 51 60 76 78 69 69 68 63 68 90 92 87 91 100 98 100 100 100 99 100 58 34 32 48 54 53 49 52 55 52 52 49 77 80 78 84 81 79 80 80 77
58 40 37 29 27 24 21 20 8 2 2 6 29 40 58 68 64 67 72 88 74 91 97 100 97 99 99 100 100 100 100 99 84 40 37 30 33 36 38 34 35 46 54 55 56 76 83 90 99 99 98 90 85 89
58 44 36 29 28 24 22 19 8 2 2 2 23 41 53 69 71 78 72 71 78 80 79 86 98 99 99 100 100 100 100 98 81 47 49 50 49 39 34 40 40 31 40 50 64 82 89 98 98 98 96 98 99 96
56 45 33 29 29 24 22 18 7 2 2 2 12 48 67 76 80 76 55 61 69 80 84 82 95 98 98 99 100 99 100 100 86 84 89 87 87 64 70 73 53 54 55 69 86 93 95 100 99 99 98 95 98 99
58 48 38 33 30 24 23 17 7 2 2 2 15 45 73 93 66 80 74 77 77 73 89 92 93 98 99 96 100 100 100 100 95 92 91 93 88 72 81 100 68 60 82 85 82 92 95 98 97 97 97 92 99 97
61 49 43 35 31 25 24 13 6 2 3 2 18 51 89 100 98 94 86 88 77 74 84 90 90 85 99 96 99 100 99 99 98 98 98 97 97 90 96 80 71 78 86 84 79 84 90 98 95 98 98 99 98 95
67 55 41 39 32 26 24 10 6 4 7 3 17 43 59 97 100 100 90 84 69 73 84 93 97 81 93 97 97 99 99 99 97 98 98 98 99 94 87 90 78 88 90 81 94 97 97 99 87 99 98 98 100 98
71 56 37 39 32 27 25 11 6 6 11 4 26 36 67 93 100 100 94 87 69 70 85 98 96 79 88 95 96 96 97 100 99 99 98 98 98 98 95 91 91 96 92 94 96 98 99 98 97 98 98 98 100 98
66 49 36 38 34 29 26 15 8 5 9 7 40 50 63 96 98 95 96 82 62 68 92 100 94 77 91 98 94 95 93 97 98 100 100 96 93 100 100 100 97 92 96 100 99 98 100 98 98 98 99 98 99 98
68 47 39 40 34 30 27 20 11 4 8 11 41 65 78 97 94 94 76 73 60 74 82 97 96 74 71 79 92 85 88 89 94 93 96 94 89 89 90 97 93 90 90 98 99 98 97 97 99 99 99 98 96 94
72 51 42 41 34 32 30 24 15 6 11 8 36 60 71 89 96 84 67 59 71 81 66 78 94 84 65 66 71 78 75 78 80 83 78 72 70 89 86 87 87 84 90 98 99 100 98 98 98 98 97 92 90 87
68 55 46 43 36 34 30 28 22 12 4 14 24 45 67 81 69 56 48 61 77 79 86 96 99 96 71 62 60 60 68 78 79 76 78 78 73 71 70 74 87 90 87 94 100 100 98 90 86 88 89 86 82 84
73 58 51 42 37 35 31 29 25 17 8 4 16 26 58 63 62 60 52 67 84 76 88 96 91 95 90 79 66 58 56 64 75 77 80 81 72 73 77 78 76 79 88 90 93 98 100 99 96 94 86 83 85 84
78 66 53 43 38 35 35 30 28 24 10 7 3 15 38 68 65 56 49 65 83 83 88 95 79 75 85 78 74 68 55 56 63 73 75 74 76 78 78 85 79 78 81 83 81 80 84 88 88 89 92 92 92 98
84 76 62 47 43 37 37 34 31 28 18 11 9 5 3 37 76 79 62 68 80 85 81 78 68 70 75 74 71 76 82 93 78 69 65 63 62 72 76 83 76 73 72 77 84 88 86 89 97 100 100 100 100 100
90 86 73 55 46 38 42 37 33 31 28 19 15 11 6 3 6 49 67 68 68 68 74 74 74 71 70 65 80 100 98 83 82 77 66 66 69 66 73 75 78 71 67 68 75 85 85 83 83 83 85 82 76 72
96 98 80 60 49 37 38 42 38 34 32 30 26 18 16 9 5 3 12 43 56 62 60 66 68 66 66 68 83 100 100 92 89 81 70 66 64 65 65 65 63 67 69 67 68 76 76 72 69 66 67 68 70 78
97 100 86 63 48 37 40 44 40 36 35 35 32 26 19 17 11 6 3 4 33 65 73 56 52 53 55 68 77 94 100 100 95 92 84 74 66 66 59 65 69 74 74 72 70 75 83 89 86 80 79 85 92 95
100 100 89 70 58 44 43 43 40 38 36 33 33 29 22 18 12 9 6 4 3 13 80 91 71 45 49 60 75 97 100 96 96 95 89 83 76 74 68 73 82 81 76 74 78 81 85 90 90 92 96 98 100 100
100 100 90 74 66 55 56 47 40 42 37 31 28 25 22 15 10 9 7 4 3 3 11 97 100 97 78 68 78 89 100 99 99 96 88 87 84 80 80 84 90 88 81 78 81 89 95 100 100 100 100 100 100 100
100 100 95 78 60 56 54 50 50 44 37 33 32 33 27 15 12 12 7 4 3 3 3 6 83 100 100 100 84 100 100 100 100 100 100 96 96 99 100 100 100 94 88 85 86 95 100 100 100 100 100 100 100 100
100 100 89 72 64 61 55 56 48 38 38 39 39 36 22 17 16 12 6 4 3 3 3 4 5 59 100 100 100 100 100 100 100 100 100 100 100 100 100 100 100 97 92 87 96 100 100 100 100 100 100 100 100 100
100 99 81 68 67 63 62 54 42 41 45 44 40 28 21 20 14 8 4 4 4 4 4 5 6 6 35 100 100 100 100 100 100 100 100 100 100 100 100 100 100 100 100 99 100 100 100 100 100 100 100 100 100 100
99 84 79 71 65 64 58 50 46 45 43 42 36 28 24 16 8 5 4 4 5 5 8 10 9 7 11 94 100 100 100 100 100 100 100 100 100 99 100 100 100 100 100 100 100 100 100 100 100 100 100 100 100 100
100 84 75 70 64 55 49 47 44 42 43 42 33 26 17 8 5 5 5 5 7 9 12 12 11 9 9 27 97 100 100 100 100 100 100 100 98 92 98 100 100 100 100 100 100 100 100 100 100 100 100 100 100 100
99 85 75 70 66 58 50 45 43 45 44 37 28 16 8 5 5 5 6 8 12 12 14 14 13 10 10 53 74 95 100 100 100 100 100 100 100 100 100 100 100 100 100 100 100 100 100 100 100 100 100 100 99 100
88 81 77 71 61 54 50 44 44 43 38 31 19 8 5 5 6 6 7 11 14 17 18 17 15 11 11 26 99 100 96 100 100 100 100 100 100 100 97 97 100 100 100 100 100 100 100 100 100 100 100 100 100 100
83 76 68 60 55 50 47 46 45 42 35 22 10 6 5 6 6 8 13 17 20 19 18 17 14 9 10 33 79 100 100 98 100 100 100 100 100 100 100 100 100 100 100 100 100 100 100 100 100 100 100 100 100 100
76 69 60 58 55 47 46 45 44 40 27 12 6 5 6 7 11 17 20 21 19 13 10 10 10 8 8 50 86 100 100 100 100 100 100 100 100 100 100 100 100 100 100 100 100 100 100 100 100 100 100 100 100 100
73 67 66 56 51 47 47 48 46 35 16 7 6 6 7 9 20 26 24 19 15 7 4 5 6 9 22 57 87 100 100 100 100 100 100 100 100 100 100 100 100 100 100 100 100 100 100 100 100 100 100 100 100 100
68 66 61 53 51 52 51 48 43 22 8 6 7 8 9 19 31 25 21 18 10 5 5 7 13 20 74 100 74 98 100 100 100 100 100 100 100 100 100 100 100 100 100 100 100 100 100 100 100 100 100 100 100 100

GFSWCAN_500_rhum_036.txt.gz
RH
42 54 58 43 38 23 21 21 18 12 2 26 59 95 74 69 77 98 95 80 90 85 84 84 73 91 100 99 94 94 100 92 87 87 75 38 57 63 91 92 93 64 60 52 58 68 77 78 77 81 73 90 100 100
47 50 57 47 34 25 23 21 18 11 3 9 34 71 78 64 68 73 76 82 78 73 76 76 73 76 85 96 99 100 92 89 96 78 57 32 50 61 91 92 82 56 51 47 61 74 78 80 78 79 67 56 70 79
44 46 62 53 36 28 21 21 18 9 3 2 31 37 59 69 50 44 60 81 76 82 84 87 84 72 70 91 96 97 93 84 100 99 66 34 38 56 80 85 71 54 48 49 51 65 73 80 87 86 89 78 74 82
53 49 63 55 40 35 20 20 17 8 3 2 10 32 41 56 46 50 54 67 61 59 64 77 74 64 92 97 100 99 97 94 100 100 69 34 35 52 68 74 67 52 51 58 57 54 82 82 88 82 88 93 91 91
49 55 69 60 46 40 20 20 17 8 4 4 2 15 40 42 44 52 59 59 60 66 79 82 83 94 93 100 99 100 100 100 98 83 51 28 34 52 59 52 45 36 33 40 51 53 89 92 94 98 95 98 99 99
50 56 72 61 53 31 21 20 18 8 6 5 2 24 52 50 55 61 50 57 74 64 66 72 95 100 99 96 100 100 100 100 94 59 40 33 33 37 43 42 34 34 39 39 42 54 79 93 98 98 98 94 96 99
49 56 72 60 49 26 20 19 17 7 7 4 2 50 50 50 59 53 56 73 70 61 73 80 87 100 99 96 99 100 100 100 91 56 43 43 38 39 60 69 34 47 56 53 50 75 89 91 90 90 96 99 93 100
53 63 71 65 48 24 20 19 17 6 7 2 4 62 56 60 59 61 72 79 67 67 70 86 95 94 100 99 98 99 100 100 96 86 86 87 80 76 90 79 74 76 70 77 87 94 98 96 89 94 97 97 93 95
62 69 74 62 47 24 21 19 16 5 5 2 16 68 72 65 68 77 88 78 73 72 82 95 95 91 96 100 98 98 99 98 99 97 95 93 94 91 88 80 69 67 69 81 87 87 98 94 90 95 91 94 91 96
65 72 75 65 48 24 21 21 16 5 4 2 46 83 94 90 94 85 79 76 80 78 98 99 92 94 92 100 99 97 99 99 99 98 98 98 98 81 89 82 87 87 81 80 84 97 96 94 96 97 93 94 93 100
69 70 76 70 50 25 19 21 19 6 4 7 59 85 98 90 86 84 81 74 75 73 98 95 82 84 90 98 96 94 98 99 99 99 99 95 96 97 100 100 97 97 96 96 96 98 92 93 100 100 100 99 100 100
72 72 78 73 54 28 19 22 21 8 5 10 46 64 82 94 87 78 68 66 72 77 81 82 76 86 77 76 74 81 85 94 98 99 98 99 99 96 94 98 98 91 92 98 98 100 99 100 99 98 99 99 100 99
80 79 82 75 60 30 22 22 23 15 7 13 34 49 59 57 55 51 54 64 67 63 65 75 64 62 82 70 65 64 72 82 91 94 90 87 94 98 99 100 98 97 98 99 99 99 98 97 97 98 98 98 97 97
88 84 82 77 64 30 24 24 25 23 7 10 29 51 54 50 43 44 47 55 61 58 58 63 59 61 72 77 67 60 58 67 77 84 80 85 84 77 81 94 95 93 90 85 92 97 98 98 98 97 98 98 97 97
85 88 80 81 66 35 26 24 26 26 21 8 7 22 42 50 57 50 48 63 69 64 58 61 64 76 84 85 81 67 62 63 73 85 84 80 76 77 84 86 82 82 87 93 90 92 96 100 100 98 98 98 99 97
85 93 84 80 74 44 27 23 26 29 27 21 11 5 12 32 53 59 61 66 70 71 66 68 61 66 85 83 84 84 81 74 68 72 83 84 78 76 82 82 86 84 82 89 95 93 93 97 100 100 100 98 94 95
86 96 94 87 82 58 34 24 24 30 31 30 22 16 10 4 9 30 50 69 80 88 82 78 63 56 55 59 63 71 93 87 77 67 64 66 70 75 71 72 84 93 84 79 82 89 90 88 88 94 98 98 100 100
95 100 92 88 91 70 41 27 28 29 33 32 31 29 24 20 13 5 6 32 49 65 86 88 80 67 52 47 51 62 82 79 74 80 69 64 62 63 63 67 77 87 93 91 83 76 79 88 92 98 99 99 96 92
100 100 99 100 97 76 58 38 32 31 30 33 32 32 32 30 26 20 12 6 4 21 59 73 85 68 60 55 59 68 85 86 78 78 81 78 71 67 69 67 72 82 80 72 76 82 77 78 80 81 76 72 70 71
100 100 100 100 94 80 69 48 41 37 38 36 35 34 34 32 31 26 22 17 10 7 4 7 30 63 71 71 67 68 80 96 93 82 81 79 79 77 78 77 76 79 79 74 69 81 84 83 82 86 87 83 83 83
100 100 100 100 91 80 72 63 62 48 41 40 39 39 33 29 31 29 22 16 11 11 10 6 4 3 12 41 57 54 62 71 93 91 93 88 79 82 80 79 77 72 79 80 74 86 90 87 85 88 93 94 94 96
100 100 100 100 94 81 74 73 72 61 46 43 42 38 34 33 28 30 30 24 17 16 16 13 7 4 3 3 7 29 50 59 77 80 85 97 99 87 83 81 84 80 80 85 86 91 92 89 88 90 94 98 99 100
100 100 100 100 92 84 80 78 76 59 51 48 43 37 33 34 35 34 34 30 25 22 20 15 10 6 4 3 3 3 14 54 75 78 92 92 100 100 88 86 86 90 91 91 91 91 94 92 91 96 99 100 100 100
100 100 100 94 93 90 86 85 74 60 55 52 43 36 37 36 33 34 34 30 28 24 17 12 8 5 4 3 3 3 31 93 100 100 92 99 100 100 100 100 100 100 100 100 100 99 99 91 93 100 100 100 100 100
100 100 88 91 91 91 92 88 75 66 60 52 44 41 35 32 30 32 34 30 24 18 12 8 5 3 3 3 3 3 4 61 100 100 100 100 100 99 100 100 100 100 100 100 100 100 98 100 100 100 100 100 100 100
100 94 90 95 96 97 92 88 76 67 57 48 42 37 33 33 35 34 31 23 16 10 6 4 3 3 4 4 4 5 5 5 78 100 100 100 100 100 100 100 97 100 100 100 100 100 100 100 100 100 100 100 100 100
98 98 100 100 94 92 95 91 73 61 52 47 40 36 34 36 35 30 22 14 8 4 3 4 4 4 5 6 7 10 8 7 14 91 100 100 100 100 100 100 100 100 100 100 100 100 100 100 100 100 100 100 100 100
100 100 100 97 91 97 97 82 69 64 54 43 38 37 37 37 31 23 15 8 4 4 4 4 4 5 6 8 11 12 10 8 8 38 98 100 100 100 100 100 100 100 100 100 100 100 100 100 100 100 100 100 100 100
100 99 88 89 94 97 90 75 65 54 45 40 38 39 40 34 26 17 9 5 4 4 5 6 7 10 12 14 14 14 12 9 14 16 63 100 100 100 100 100 100 100 100 100 100 100 100 100 100 100 100 100 100 100
97 92 93 97 99 94 78 65 56 48 45 43 41 42 38 29 19 10 5 4 5 6 7 10 12 13 13 14 14 14 12 10 29 73 70 98 100 100 100 100 100 100 100 100 100 100 100 100 100 100 100 100 100 100
100 94 99 100 93 78 66 58 51 47 46 46 43 40 34 23 10 5 4 5 7 10 11 11 12 10 7 9 13 12 12 39 56 100 100 100 100 100 100 100 100 100 100 100 100 100 100 100 100 100 100 100 100 100
95 100 100 96 80 70 62 53 48 47 48 46 44 37 28 13 5 5 5 9 12 14 14 14 13 6 4 5 8 8 20 95 83 100 100 100 100 100 100 100 100 100 100 100 100 100 100 100 100 100 100 100 100 100
100 100 95 85 76 69 61 54 50 50 50 47 42 30 18 8 5 6 9 15 18 18 16 13 6 5 6 7 11 14 83 100 100 100 100 100 100 97 100 100 100 100 100 100 100 100 100 100 100 100 100 100 100 100

GFSWCAN_500_rhum_039.txt.gz
RH
61 39 50 47 48 49 42 36 29 18 19 12 12 39 55 59 71 61 60 60 70 61 55 58 71 81 92 84 88 100 100 100 100 89 90 83 31 46 77 97 88 87 77 54 54 59 76 68 75 80 77 72 73 89
45 33 49 48 47 53 47 34 19 17 18 15 4 33 36 55 55 61 63 70 76 86 75 63 81 86 99 100 97 100 100 100 100 91 88 74 35 49 73 96 88 72 62 52 55 67 67 65 68 71 80 89 86 80
68 44 50 47 43 57 48 30 14 16 17 14 4 16 57 53 58 69 55 61 67 71 73 81 90 82 81 97 99 98 100 100 85 85 75 57 41 49 64 92 85 67 60 56 53 53 60 71 69 77 80 92 92 89
72 52 55 49 40 61 45 25 12 15 16 12 4 4 62 60 74 57 61 64 74 73 85 87 85 84 95 97 99 100 100 93 84 90 78 46 38 50 53 79 77 67 60 60 58 56 54 67 68 79 79 84 98 98
61 55 54 51 50 59 44 23 12 14 14 10 3 5 71 82 51 48 49 53 60 65 61 63 70 73 83 100 100 100 100 97 92 93 90 64 39 43 47 63 76 63 61 47 41 41 53 70 71 73 80 87 90 94
62 64 55 57 56 56 42 21 13 14 12 5 3 3 33 77 59 42 43 46 52 49 83 76 92 97 100 100 100 100 100 100 98 94 93 78 43 35 37 51 63 49 44 35 37 36 49 81 89 88 88 95 94 92
62 65 55 64 57 60 41 20 15 15 10 3 2 2 30 51 58 53 39 52 52 69 68 71 84 100 100 100 100 98 100 100 100 98 71 45 26 29 36 53 42 40 37 43 53 49 54 87 96 98 100 97 93 92
65 66 62 63 61 60 42 20 18 14 8 2 2 3 41 48 47 47 56 54 54 75 60 74 82 100 100 100 100 100 100 100 100 95 52 30 23 25 36 33 35 45 60 65 57 56 64 84 94 95 96 98 96 95
69 68 69 56 68 59 44 24 19 15 6 2 4 44 53 49 41 51 50 53 68 68 76 83 95 100 100 100 100 100 100 100 100 96 65 41 41 63 65 59 53 62 67 65 71 84 90 96 99 93 92 92 93 92
79 72 64 56 64 61 48 28 22 16 6 4 29 68 60 49 55 53 51 59 68 80 77 78 86 93 91 96 100 99 100 100 100 96 88 95 95 72 86 82 75 76 69 69 71 85 91 96 95 95 97 97 98 97
80 70 60 56 62 70 51 30 24 18 6 11 40 54 48 41 43 46 56 63 70 86 76 76 81 80 90 97 98 98 99 99 100 99 100 98 97 96 95 84 82 82 82 89 86 84 92 99 99 100 97 98 97 94
84 72 65 59 62 78 54 31 28 21 8 10 33 44 32 40 48 50 53 60 63 74 72 66 71 79 82 86 94 100 99 98 99 100 100 99 100 99 96 98 98 93 99 99 99 98 96 98 99 99 100 99 97 99
86 79 73 64 77 78 58 32 29 23 17 6 30 50 56 50 40 42 47 58 60 65 70 69 66 66 62 77 75 75 86 98 99 99 99 98 98 100 98 98 98 99 98 98 98 100 100 100 99 99 100 99 99 100
92 81 64 67 88 78 67 37 28 27 22 10 9 40 53 44 26 29 48 56 59 62 64 66 60 57 55 51 57 70 65 74 94 100 98 99 99 93 93 99 100 99 98 99 99 99 99 98 98 98 98 98 99 98
100 82 76 77 96 78 74 48 29 30 24 25 13 8 13 29 39 45 47 53 58 59 65 62 58 57 58 60 62 69 74 68 70 82 90 89 86 91 97 93 90 88 87 92 99 100 99 100 100 100 99 98 98 96
98 95 90 83 89 86 82 64 39 30 25 26 26 17 8 9 21 35 47 58 72 73 72 74 67 62 67 64 69 79 86 87 76 66 72 89 89 84 84 89 91 95 96 96 96 97 97 97 99 100 100 100 100 100
100 94 89 92 100 100 90 76 56 35 25 24 30 28 24 17 8 5 20 33 50 69 81 84 78 74 61 61 60 71 80 93 82 80 76 70 69 84 82 80 81 88 91 92 92 92 93 97 96 95 95 94 93 96
93 91 94 100 100 100 99 84 75 46 30 28 31 29 28 26 28 25 14 7 7 24 45 62 73 74 69 58 54 66 78 86 85 71 63 66 67 62 63 70 76 75 72 76 90 92 89 87 84 87 91 98 100 98
89 100 100 100 100 100 100 95 86 68 38 28 26 29 29 28 29 29 31 28 18 11 5 6 19 39 60 63 64 58 60 78 81 77 71 56 55 60 62 59 60 63 67 67 72 83 90 90 89 81 80 82 85 84
89 82 97 100 100 100 100 99 92 83 56 36 30 28 29 28 29 28 26 27 31 24 21 13 10 7 5 13 37 54 48 48 66 77 78 65 57 55 59 66 69 69 71 70 67 71 80 76 70 80 89 87 84 83
100 100 100 100 100 100 100 100 98 92 79 55 48 38 33 32 31 29 26 25 28 28 24 19 14 14 15 13 7 5 15 29 42 51 76 79 67 72 63 63 69 72 78 83 79 78 83 81 74 79 90 94 91 88
100 100 100 100 100 100 100 100 100 98 87 70 67 64 48 38 35 32 28 29 31 30 29 30 30 26 23 21 19 15 8 5 5 16 52 74 73 71 73 72 73 82 82 86 90 86 79 75 75 82 94 96 94 95
100 100 100 100 100 100 100 100 100 100 90 82 74 64 50 41 36 31 30 32 32 30 31 31 31 30 28 26 23 19 14 10 7 5 3 18 59 68 70 80 82 92 87 86 86 87 85 84 82 89 99 100 100 100
100 100 100 100 98 100 100 100 99 98 95 85 77 65 53 45 38 34 34 34 31 30 28 28 28 28 26 22 19 16 14 12 9 6 4 3 4 41 83 82 84 92 100 100 90 84 86 90 91 92 100 100 100 100
100 100 98 96 100 100 100 100 100 97 97 88 78 68 61 51 41 35 36 35 32 28 28 28 27 23 19 16 15 14 12 9 6 4 3 3 3 4 41 89 100 100 100 100 99 98 99 100 100 100 100 100 100 100
100 99 96 100 100 100 100 100 98 98 93 87 75 69 60 45 40 41 38 32 29 28 28 26 23 20 18 16 10 6 4 3 2 2 3 3 3 5 47 100 100 100 100 100 100 100 100 100 100 100 100 100 100 100
96 93 100 100 100 100 100 100 100 100 94 85 83 75 57 49 47 41 35 32 30 28 27 24 20 14 9 5 3 3 3 3 3 3 3 3 3 4 69 100 100 100 100 100 100 100 100 100 100 100 100 100 100 100
99 100 100 100 100 99 95 100 100 96 92 89 86 75 59 52 43 37 34 32 32 29 24 18 11 5 3 3 3 4 4 3 3 3 4 4 5 5 55 100 100 100 100 100 100 100 100 100 100 100 100 100 100 100
100 100 100 100 98 94 100 100 98 98 97 91 80 64 53 45 39 35 34 34 30 25 17 9 4 3 4 4 4 5 6 7 7 6 6 8 8 7 33 93 100 100 100 100 100 100 100 100 100 100 100 100 100 100
100 100 100 96 93 96 95 89 95 99 92 80 66 54 47 41 37 34 34 31 26 16 8 4 4 4 5 5 6 6 7 9 11 11 12 12 9 8 25 78 100 100 100 100 100 100 100 100 98 99 98 100 100 100
100 97 91 92 100 94 86 99 100 95 79 65 58 50 42 38 38 36 32 27 18 9 4 4 4 6 7 8 9 9 7 7 11 13 13 11 14 19 66 90 100 100 100 100 100 100 100 100 100 100 100 100 100 100
97 94 94 98 99 94 100 99 89 78 69 62 54 48 41 39 39 35 29 20 11 5 5 5 7 9 11 11 7 4 3 5 10 12 14 14 43 100 100 94 100 100 100 100 100 100 100 100 100 100 100 100 100 100
99 100 97 98 100 100 98 93 87 77 69 63 55 47 43 42 38 32 23 14 6 5 5 9 12 13 13 7 5 6 8 7 7 17 28 34 68 100 100 100 100 100 100 100 100 100 100 100 100 100 100 100 100 100

GFSWCAN_500_rhum_042.txt.gz
RH
98 95 93 73 45 37 30 42 37 27 12 15 18 13 26 39 45 44 57 54 52 57 59 57 62 63 60 80 79 70 89 100 100 100 99 89 75 69 40 33 61 88 91 80 56 59 64 67 64 71 84 86 67 63
98 96 94 70 55 45 36 44 34 27 12 12 15 14 6 48 55 42 54 54 56 47 57 50 61 61 79 82 74 84 99 100 100 99 97 83 74 55 29 41 78 93 74 60 58 74 66 60 68 76 81 88 87 76
98 96 85 63 58 49 41 45 33 26 14 11 14 8 3 47 62 70 49 60 73 74 60 55 67 70 90 95 99 89 98 100 97 93 83 77 70 46 32 59 86 90 65 54 61 55 50 54 66 79 85 87 88 86
98 93 73 66 60 51 45 42 36 22 11 10 10 3 4 22 55 68 54 55 74 80 76 77 77 87 89 86 93 100 96 100 97 92 75 68 68 42 32 56 80 84 66 52 55 59 56 56 62 76 85 82 82 80
98 96 78 65 60 54 49 42 35 18 10 10 7 3 5 20 88 84 62 56 68 70 71 80 82 83 94 95 100 98 99 100 100 94 84 71 66 45 33 55 73 89 70 56 56 51 42 48 60 76 90 89 91 90
99 94 89 66 65 56 54 48 29 14 10 10 5 2 4 44 99 98 70 62 65 67 68 68 76 71 71 95 100 100 100 100 95 93 97 70 62 38 37 46 60 77 69 65 52 38 39 44 53 83 93 91 98 96
98 94 86 62 63 58 55 48 25 11 11 8 3 2 4 64 100 91 48 55 59 55 57 73 79 92 90 99 100 100 100 100 100 95 90 81 65 37 37 46 60 51 62 54 41 36 45 44 51 84 98 96 96 98
99 96 70 66 66 58 55 42 21 11 11 6 3 2 30 100 86 49 58 59 59 58 71 70 81 86 100 100 100 100 100 100 100 97 94 85 80 60 43 40 40 43 46 41 36 49 53 46 57 82 96 93 98 99
100 96 66 73 74 59 55 42 18 12 10 6 4 22 79 86 60 63 55 55 55 54 75 70 76 83 100 100 100 100 100 100 100 100 98 65 56 48 31 30 30 30 36 44 64 72 70 73 80 92 97 87 97 100
99 94 74 78 75 65 53 44 18 13 10 9 13 49 80 83 69 61 49 54 50 68 67 68 80 88 99 100 100 100 100 100 100 100 100 86 62 28 39 57 67 56 64 73 75 72 71 79 89 94 93 95 96 97
100 91 90 85 79 70 56 48 20 14 12 11 22 30 43 46 41 38 46 50 47 53 60 69 73 84 92 96 98 100 99 100 100 100 100 100 100 94 84 83 84 87 91 88 77 67 72 84 88 94 94 98 98 98
99 99 95 86 76 76 65 53 26 14 14 10 28 37 37 35 35 39 46 44 43 50 48 67 64 70 78 93 98 100 100 99 99 100 100 100 100 100 99 98 92 87 96 94 90 90 94 98 98 98 96 99 99 97
100 100 99 87 82 83 76 58 37 16 17 14 12 32 37 38 37 36 39 42 49 54 56 59 64 65 65 72 96 96 97 100 99 99 100 100 100 100 100 100 98 97 94 92 97 99 99 99 98 98 98 98 98 99
100 100 100 95 90 86 88 70 50 21 17 19 16 14 26 36 32 41 44 46 47 53 58 62 68 68 59 52 51 49 67 84 90 99 100 100 100 99 100 100 100 99 99 98 99 99 99 99 99 99 99 99 100 100
100 100 100 100 94 87 95 81 63 38 20 19 22 18 9 14 28 49 59 54 56 57 58 62 62 62 60 55 48 45 52 66 73 72 85 98 100 100 100 99 98 96 96 97 98 99 100 100 99 99 99 99 100 100
100 100 100 100 99 93 96 90 76 58 30 23 24 26 21 11 9 17 34 45 51 57 57 58 56 55 59 58 56 57 60 78 86 80 70 69 85 98 97 98 100 100 100 100 97 93 92 94 96 98 100 100 100 100
100 100 100 100 100 100 100 98 88 73 49 33 29 31 28 26 22 11 7 14 21 32 42 46 48 55 50 50 56 61 71 97 94 90 86 77 69 69 78 95 95 98 100 100 100 100 100 98 98 100 100 100 100 98
100 100 100 100 100 100 100 100 99 90 76 47 32 29 30 27 28 26 28 24 15 8 10 17 25 34 40 42 41 55 67 72 83 84 83 80 75 75 74 68 69 84 89 88 90 98 100 100 100 95 94 94 97 100
100 100 100 100 100 100 100 100 100 100 98 73 47 32 30 30 29 27 29 30 30 29 26 17 10 6 7 11 22 35 43 54 62 65 68 66 65 66 63 62 66 68 65 70 78 78 78 85 91 99 99 97 95 91
100 100 100 100 100 100 100 100 100 100 100 97 68 48 36 30 29 28 28 27 27 29 27 29 28 18 13 11 9 9 7 9 19 44 58 54 56 59 61 56 57 59 60 69 68 62 62 65 68 72 85 88 82 91
100 100 100 100 100 100 100 100 100 100 100 100 98 69 53 42 36 34 30 27 25 22 23 27 29 28 26 22 18 14 14 16 15 8 6 20 46 48 52 56 53 53 58 61 64 75 78 73 69 72 72 78 82 82
100 100 100 100 100 100 100 100 100 100 100 100 100 97 74 65 64 64 53 37 30 27 24 27 31 34 34 33 31 30 29 28 26 23 21 12 7 17 31 43 50 50 48 51 58 67 72 78 80 85 88 89 87 84
100 100 100 100 100 97 99 100 100 100 100 100 100 100 98 82 77 70 61 50 37 30 29 29 32 32 31 29 27 26 26 26 26 25 23 22 19 14 8 9 23 36 54 59 62 75 81 74 76 86 89 88 90 96
100 100 100 98 91 94 100 100 100 100 100 100 100 100 100 94 84 74 65 57 44 40 34 30 32 33 29 27 26 25 24 23 22 20 19 18 17 15 14 11 6 6 26 63 67 67 71 79 89 90 91 99 100 100
100 100 97 91 95 96 97 100 100 100 100 100 100 100 100 98 87 80 74 66 56 43 36 35 34 31 27 26 24 23 22 20 19 18 16 15 14 13 12 11 9 6 4 8 56 70 71 80 92 96 87 97 100 100
100 99 92 93 99 97 95 100 100 100 100 99 100 100 100 96 88 79 74 63 51 46 39 36 34 31 27 25 24 22 20 18 16 12 8 7 5 4 3 3 3 3 3 3 14 92 87 84 90 95 91 96 100 100
91 83 93 99 100 100 100 100 100 100 100 100 100 100 100 92 87 85 73 63 51 42 37 36 32 27 26 24 22 19 16 13 9 5 3 2 2 2 2 2 2 2 2 3 4 73 100 100 100 98 94 100 100 100
81 93 100 100 100 100 100 100 100 100 100 100 100 100 90 94 90 77 71 60 47 41 39 31 27 26 24 21 18 15 10 5 3 2 3 3 3 3 3 3 3 3 3 3 6 73 100 100 100 100 100 100 100 100
90 100 100 100 100 100 100 100 100 100 100 100 100 100 100 100 88 79 65 51 43 38 32 29 27 25 21 18 14 7 4 3 3 3 4 4 4 4 4 3 3 3 3 4 10 95 100 100 100 100 100 100 100 100
100 100 100 100 100 100 100 100 100 100 100 100 99 100 100 100 82 65 54 46 40 35 32 29 26 23 20 14 6 3 3 3 4 4 5 5 5 5 7 7 5 5 4 5 55 100 100 100 98 100 100 100 98 97
100 100 100 99 100 100 100 100 100 100 100 94 95 99 95 76 64 56 49 43 39 35 31 28 26 23 17 7 4 4 4 5 6 7 6 6 7 9 11 10 10 8 7 15 86 100 100 100 100 100 100 100 100 100
99 97 99 100 100 99 98 100 96 96 100 99 99 89 77 68 62 56 49 43 38 34 32 29 26 19 9 4 4 4 6 8 6 4 4 6 10 12 13 13 11 8 9 28 84 100 100 100 100 100 100 100 100 100
99 97 94 95 96 99 95 93 99 100 100 100 99 89 77 66 57 51 48 43 38 35 32 28 20 10 4 4 5 7 9 6 5 6 7 8 10 12 14 15 19 26 94 100 100 100 100 100 100 100 100 100 100 100

GFSWCAN_500_rhum_045.txt.gz
RH
58 96 100 99 100 97 94 71 51 41 34 33 21 12 13 9 13 28 35 32 37 39 39 32 30 47 57 49 57 61 59 80 81 91 93 91 62 56 49 52 42 42 80 92 93 66 62 67 77 76 80 73 61 64
57 92 100 100 99 96 91 68 53 40 31 29 18 10 11 6 7 34 46 45 42 45 57 49 68 64 65 67 78 85 69 85 100 100 99 92 81 75 60 54 38 65 85 92 72 62 73 72 80 74 87 83 75 77
71 90 100 100 99 93 89 66 55 42 28 24 12 12 8 5 8 58 66 59 57 63 63 67 67 63 66 87 98 86 70 89 95 95 98 92 77 72 63 44 39 78 87 85 62 78 62 60 62 83 92 84 94 91
100 100 100 98 99 97 87 65 53 46 28 18 13 7 6 3 6 81 84 63 58 70 74 69 60 69 72 84 86 88 81 79 89 89 83 81 69 65 60 41 40 81 91 76 57 60 64 53 58 79 92 88 92 95
100 99 100 99 99 98 72 62 52 38 22 14 8 5 3 2 8 81 92 67 83 88 80 87 80 77 77 90 99 100 86 71 82 86 90 82 68 54 55 38 49 78 92 75 60 55 54 39 42 58 94 96 94 94
99 99 100 100 99 92 70 58 48 30 15 11 4 4 2 3 15 80 91 80 74 88 80 80 82 80 76 79 87 100 90 83 90 96 98 90 74 54 49 43 53 63 81 83 74 67 55 41 43 46 66 100 100 98
97 100 99 100 98 75 64 58 42 17 14 7 4 2 2 6 48 82 70 77 83 78 75 76 79 88 89 92 94 100 100 100 99 89 87 92 80 51 61 63 52 54 79 83 82 71 47 37 44 45 46 86 100 97
98 99 100 100 96 62 67 55 38 13 12 6 4 4 8 43 74 86 89 81 67 62 62 72 79 95 99 100 100 100 100 99 99 100 98 94 88 84 88 48 40 51 73 67 65 53 42 42 51 44 48 76 99 99
98 100 98 100 91 64 73 56 28 13 11 8 10 24 42 65 91 81 67 61 50 55 73 64 72 90 100 100 100 100 100 100 97 100 100 100 100 100 80 52 45 52 88 52 47 41 46 62 54 58 76 90 100 100
98 100 99 99 75 70 73 60 24 12 12 16 35 56 66 89 76 50 52 49 50 51 67 61 83 89 96 100 100 100 100 100 100 100 100 100 89 79 71 51 42 41 81 47 32 44 52 57 61 68 84 91 100 100
100 100 99 100 82 73 77 64 27 13 11 21 23 44 64 56 47 43 42 39 47 45 50 60 78 84 94 93 98 100 99 100 100 99 100 98 100 78 57 50 41 40 49 53 54 56 62 66 66 76 89 94 100 100
100 100 100 100 92 77 81 70 39 15 12 14 29 36 46 48 46 44 36 35 32 40 42 55 74 66 72 89 100 99 99 98 100 100 100 100 100 100 100 100 88 89 84 82 80 77 80 79 79 90 94 98 99 98
100 100 100 100 100 83 83 80 57 20 14 13 20 29 44 54 52 36 29 30 46 48 52 56 59 62 66 74 73 79 93 98 94 100 100 100 100 100 100 100 100 100 94 93 98 92 82 94 100 100 98 100 95 98
100 100 100 99 100 96 86 89 75 40 17 16 15 20 18 30 28 36 38 39 49 50 53 55 57 60 64 70 64 58 51 56 77 85 96 99 99 100 100 100 100 100 100 100 100 100 100 100 99 100 100 99 100 99
100 100 100 100 100 100 95 93 90 69 30 16 18 16 11 15 30 38 39 45 53 58 56 60 63 66 66 64 63 57 51 50 62 80 78 77 84 98 99 99 99 99 100 100 100 100 100 100 100 100 100 100 100 100
100 100 100 100 100 100 100 98 96 84 64 29 18 22 20 16 9 19 32 44 51 55 53 48 51 52 53 54 53 54 55 60 66 75 83 81 74 72 87 97 99 99 99 99 99 100 100 100 99 99 99 100 100 99
100 100 100 100 100 100 100 100 100 96 84 58 28 20 24 24 20 12 8 15 25 29 29 28 28 38 37 38 42 53 64 67 62 64 73 78 85 82 76 74 86 100 100 100 100 98 98 97 96 96 98 100 100 100
100 100 100 100 100 100 100 100 100 100 100 94 59 32 25 25 24 24 23 22 16 10 8 10 14 15 19 24 28 35 43 56 56 54 54 54 60 75 85 86 82 77 78 92 100 100 100 100 100 97 97 97 98 100
100 100 100 100 100 100 100 100 100 100 100 100 97 63 39 31 27 24 25 27 27 26 26 26 25 23 11 7 6 5 7 13 22 33 39 41 46 46 47 54 67 72 74 75 74 75 84 93 91 88 92 96 99 100
100 100 100 100 100 100 100 100 100 100 100 100 100 99 78 45 36 31 28 26 26 25 26 25 19 18 21 24 21 16 13 10 9 9 8 11 22 35 44 45 44 46 50 55 60 62 65 70 70 75 79 76 71 71
100 100 100 100 100 100 100 100 100 100 100 100 100 100 100 89 57 43 37 32 32 32 28 26 22 20 19 18 22 25 26 24 22 19 18 18 18 17 12 9 18 39 42 43 46 50 53 54 54 64 69 69 72 74
99 98 100 100 100 100 100 100 100 100 99 100 100 100 100 100 100 85 51 48 52 51 48 37 30 27 24 22 22 25 27 28 27 26 25 25 26 26 25 23 18 9 12 34 43 37 43 51 50 51 56 60 70 80
82 100 100 97 99 98 95 100 99 100 97 100 100 99 100 100 100 100 98 84 75 67 64 54 44 38 34 29 26 27 28 28 26 24 23 23 23 23 24 24 24 22 20 11 11 27 36 37 46 51 56 60 66 78
59 100 100 92 85 86 99 100 99 94 95 100 100 100 99 100 99 95 100 100 91 76 70 62 55 51 44 36 31 29 29 28 26 24 23 22 22 22 21 20 20 20 19 18 17 13 7 17 33 43 63 63 60 75
21 93 100 87 88 92 100 100 99 99 100 100 99 98 100 100 96 96 100 100 87 83 79 71 64 53 43 38 34 31 30 28 25 23 21 20 19 18 18 17 16 16 16 17 17 16 14 10 7 17 51 77 78 88
16 53 76 83 92 100 100 100 100 100 100 98 95 100 100 98 95 97 100 97 97 93 82 73 66 55 45 37 34 30 27 23 21 20 18 17 16 15 14 12 9 8 9 10 10 11 13 13 10 6 8 55 82 93
22 28 50 80 98 100 100 100 100 100 100 98 98 99 98 95 99 100 100 100 100 96 89 78 66 52 44 38 32 26 23 22 20 18 17 16 14 12 9 5 3 2 2 2 2 3 3 5 6 6 4 19 84 100
37 56 87 93 94 98 100 100 100 100 96 99 100 100 95 96 100 98 100 100 100 96 87 72 59 49 40 33 30 26 24 22 21 20 19 16 13 8 5 2 2 2 2 2 2 2 2 2 2 3 3 19 100 100
35 82 100 99 92 99 100 100 100 100 100 100 100 100 99 100 93 96 100 100 98 89 73 59 48 40 35 33 29 27 25 24 21 20 18 9 4 2 2 2 3 3 3 3 3 3 3 3 3 3 3 50 100 100
86 92 89 94 100 100 100 100 100 100 98 100 100 100 100 98 94 100 100 94 85 69 57 49 43 39 34 31 30 28 26 22 20 18 9 3 3 3 3 4 6 6 5 5 4 4 3 3 3 3 13 96 100 100
92 100 100 100 100 100 100 100 98 97 100 100 100 100 100 100 100 97 90 78 68 60 53 45 40 36 34 33 31 28 24 21 15 7 3 3 4 5 6 5 6 7 7 6 8 8 4 3 4 13 93 100 100 100
100 98 99 99 100 100 98 96 96 100 100 100 100 100 100 100 100 89 82 76 66 55 45 41 39 38 36 32 27 25 22 12 4 3 3 5 6 5 6 5 7 10 11 12 12 10 8 6 6 73 100 100 100 100
100 97 92 84 90 95 100 100 100 100 100 100 100 100 100 99 100 92 82 67 52 46 44 42 40 36 33 29 26 22 11 4 3 4 6 6 7 7 8 10 11 12 13 13 13 11 8 8 16 90 100 100 100 100

GFSWCAN_500_rhum_048.txt.gz
RH
70 82 49 69 74 83 99 100 99 95 79 55 45 46 40 17 15 10 14 41 40 41 39 44 49 40 44 58 44 39 35 43 54 56 64 59 51 37 24 23 24 50 34 85 97 100 92 75 81 82 74 80 69 68
96 84 47 60 100 98 98 99 99 95 81 49 42 40 30 13 12 8 6 36 43 42 45 40 40 34 47 61 53 52 53 53 64 74 83 97 93 70 39 44 48 47 53 96 100 86 70 83 80 81 87 85 84 76
24 50 67 78 99 100 100 99 98 97 60 39 34 27 16 10 8 6 5 49 51 61 56 58 55 49 68 68 64 69 71 73 66 98 100 98 82 82 67 62 61 44 66 100 100 70 84 74 74 79 80 83 85 82
24 21 69 90 92 99 100 100 99 85 46 31 24 15 6 6 4 3 6 54 69 71 57 73 71 69 60 66 84 84 86 93 72 88 97 100 93 74 68 69 67 46 80 100 96 73 60 66 59 52 72 82 89 92
58 77 63 65 94 99 100 99 98 64 35 25 15 7 5 3 2 3 16 84 90 75 64 78 68 60 70 73 80 81 97 90 68 70 74 84 84 71 66 60 68 46 87 100 90 61 54 59 44 41 43 68 90 98
81 84 72 57 98 100 100 100 87 42 27 15 7 5 3 2 3 23 95 100 99 84 86 73 75 70 72 72 88 92 100 83 73 71 79 86 85 67 61 68 69 42 69 94 92 73 58 55 48 40 45 49 83 94
89 82 88 82 99 100 100 99 54 36 15 9 6 4 2 4 40 83 94 98 100 85 76 79 77 76 78 80 78 96 100 99 92 94 97 100 96 78 71 79 62 37 57 85 99 85 68 57 52 42 47 47 61 88
75 87 95 95 99 100 100 82 48 27 12 6 5 4 14 49 90 100 100 100 87 78 67 76 79 93 97 97 100 100 100 100 100 100 100 99 100 88 69 71 56 41 47 69 93 88 79 66 50 40 50 50 66 82
67 96 100 99 100 100 100 70 47 15 8 7 9 18 55 76 78 83 96 94 82 74 72 72 76 98 100 100 100 100 100 100 99 100 100 100 100 84 77 71 58 42 46 64 86 77 66 55 43 49 57 62 77 89
56 99 100 100 100 100 100 67 44 12 10 18 43 49 58 58 65 75 76 61 58 67 72 78 93 97 96 100 100 100 100 100 100 100 100 100 98 83 85 79 71 52 51 71 80 58 50 45 40 52 61 66 81 90
65 100 99 100 100 100 100 69 40 12 14 29 43 36 36 41 61 58 55 47 45 48 59 72 90 90 94 99 97 100 99 100 100 100 100 95 89 80 83 88 84 59 59 66 75 70 43 42 56 68 66 70 73 87
86 100 100 100 100 100 99 74 43 13 17 29 35 42 33 52 48 40 34 37 37 48 52 66 80 80 78 84 100 100 100 98 100 100 100 100 98 98 96 77 61 53 54 51 66 64 65 72 80 79 76 70 73 91
97 100 100 100 100 100 100 83 55 15 16 21 27 40 50 50 41 34 34 34 36 45 47 48 61 74 72 76 77 77 66 66 80 100 100 100 100 100 100 100 100 93 86 75 83 80 83 91 91 83 87 84 80 95
98 100 100 100 100 100 100 91 73 36 14 19 29 42 48 40 36 35 35 36 34 36 41 46 51 55 61 64 69 70 64 56 51 61 93 100 100 100 100 100 100 100 100 95 98 98 100 98 97 96 93 100 98 99
100 100 100 100 100 100 100 98 90 71 30 14 16 28 29 35 51 49 46 41 34 40 41 50 57 63 62 62 63 63 65 57 52 49 52 71 92 99 100 100 100 100 100 100 100 100 100 100 100 100 100 100 100 100
100 100 100 100 100 100 100 100 100 95 76 34 18 16 19 27 32 37 41 40 40 40 41 46 45 42 48 48 49 52 52 54 55 47 46 48 60 77 84 86 98 99 99 99 100 100 100 100 100 100 100 100 100 100
100 100 100 100 100 100 100 100 100 97 92 77 42 25 19 15 13 14 18 30 30 29 33 36 40 41 33 30 30 44 51 50 49 53 54 49 46 48 59 77 80 71 79 97 98 98 100 100 100 100 99 99 100 100
100 100 100 100 100 100 100 100 100 100 100 100 94 60 33 26 21 17 11 11 10 10 11 16 26 31 30 27 30 30 29 33 36 37 40 42 45 45 43 43 47 69 82 77 70 81 96 98 100 100 100 100 100 100
100 100 100 100 100 100 100 100 100 100 100 100 100 98 90 46 30 26 24 22 20 20 21 21 22 24 22 18 13 8 7 6 8 10 13 17 22 31 37 37 39 41 45 56 73 79 77 74 74 83 93 98 99 100
100 100 100 100 100 100 100 100 100 100 100 100 100 100 100 98 72 38 30 26 25 24 23 24 24 22 22 21 21 22 24 22 16 14 12 11 11 11 10 11 12 15 23 27 36 44 51 58 62 66 67 69 71 80
64 94 100 97 100 100 100 100 100 100 100 100 100 97 99 100 100 98 68 37 28 32 29 26 19 17 20 20 19 18 16 17 20 22 25 24 24 24 22 19 16 19 18 13 12 18 27 34 40 49 56 59 58 61
11 17 51 97 98 100 100 100 100 100 100 100 100 100 100 99 97 98 99 96 58 48 33 33 31 32 30 26 23 23 23 21 18 17 19 22 24 25 25 25 24 24 24 23 21 21 18 12 9 18 39 48 54 58
12 11 10 13 70 98 100 98 99 100 99 100 100 100 100 100 100 98 87 98 100 92 80 53 49 60 61 55 41 35 32 32 31 28 22 20 20 21 23 22 21 21 21 20 21 22 23 23 22 16 10 26 52 59
18 13 13 10 18 63 98 98 98 99 98 100 100 98 99 99 100 92 87 100 100 90 85 97 97 94 80 66 55 50 50 46 40 33 27 22 22 20 21 21 20 19 18 19 18 18 19 21 21 22 18 11 12 34
26 23 16 12 12 54 96 92 92 93 98 100 100 99 97 93 87 84 96 100 96 90 92 99 100 96 81 71 67 63 52 45 40 34 28 23 23 23 22 20 19 17 16 15 16 16 16 16 17 18 19 17 14 9
27 24 18 14 14 38 98 99 97 95 96 95 96 100 96 83 79 81 100 100 97 95 97 100 100 99 92 80 71 64 57 48 42 37 30 26 23 21 21 21 20 18 16 14 14 13 12 11 12 13 14 16 17 14
23 21 19 20 20 27 91 100 100 99 97 98 100 100 95 82 86 97 98 98 98 99 99 99 100 100 93 84 78 67 59 52 42 32 28 27 25 22 22 22 21 18 16 14 13 12 10 7 4 4 6 7 10 12
20 19 20 22 21 44 71 85 96 100 100 100 100 100 87 90 97 95 96 99 100 100 99 98 100 100 96 86 73 63 52 40 34 29 27 27 26 24 23 21 18 16 15 11 7 5 4 2 2 2 2 2 3 4
16 16 18 19 24 58 82 95 97 100 100 99 97 94 94 95 91 93 96 100 100 100 99 100 100 95 89 75 59 47 41 35 28 26 26 26 25 24 21 18 16 14 8 3 2 2 2 2 2 2 2 2 2 2
13 14 17 21 24 56 90 100 100 100 99 97 98 96 97 96 88 89 97 100 98 100 100 100 92 86 69 56 48 41 34 27 24 23 24 25 23 20 18 15 9 3 2 3 4 5 6 5 5 4 4 3 3 3
13 17 23 29 48 86 100 100 100 99 98 99 99 99 98 94 96 93 96 94 96 100 99 94 81 66 56 48 40 35 29 24 22 23 24 23 20 16 9 4 2 3 5 5 6 5 6 7 6 6 5 5 4 4
33 46 82 87 91 100 100 96 91 87 99 100 100 98 98 96 99 98 94 94 100 100 90 80 67 54 45 39 33 29 25 27 28 26 23 19 10 3 3 5 7 9 7 7 7 8 9 8 7 8 8 5 4 4
100 100 99 92 94 94 96 90 88 96 99 100 100 96 97 98 100 100 96 91 89 86 76 60 49 43 37 30 29 29 32 30 26 22 14 5 3 4 7 23 58 59 33 11 11 12 12 10 9 10 8 5 5 18

GFSWCAN_500_rhum_054.txt.gz
RH
2 2 2 6 26 8 6 13 25 25 58 82 100 100 100 100 100 98 94 81 64 26 31 41 56 65 63 55 46 39 31 23 22 28 32 40 41 38 48 46 42 41 32 19 13 20 38 79 92 94 83 67 67 67
2 2 4 8 43 6 8 12 17 51 42 78 94 98 100 100 100 100 88 95 94 74 28 41 65 70 68 59 52 46 40 28 21 26 32 36 43 39 37 38 42 34 25 25 32 44 68 99 96 86 73 77 74 69
2 2 3 27 34 7 8 20 41 62 44 67 91 100 100 100 99 74 65 63 63 39 40 28 51 57 69 63 61 54 50 44 34 32 35 40 35 47 47 48 39 35 31 32 43 56 96 95 89 71 74 72 66 74
2 2 2 11 14 6 10 22 52 49 51 63 92 100 100 96 58 29 21 13 7 4 9 32 31 57 80 83 78 52 48 50 46 42 44 46 50 63 82 75 68 54 45 47 48 67 92 93 75 81 67 69 73 78
3 2 2 12 14 6 15 54 64 82 60 73 98 100 98 45 21 16 8 3 2 4 9 17 26 63 88 86 72 52 46 55 63 72 72 66 61 73 80 74 80 72 60 51 50 52 96 91 91 67 53 45 49 59
4 2 2 27 15 17 62 68 56 88 78 97 100 95 30 18 10 5 3 3 35 75 100 100 96 70 93 70 57 56 60 67 91 90 83 74 68 75 60 71 76 71 67 66 64 53 99 90 74 60 52 45 49 46
4 4 18 46 10 59 70 61 57 94 92 100 95 26 15 8 6 4 36 93 98 100 100 100 100 63 58 73 75 69 73 82 89 94 90 76 71 68 55 61 76 71 59 63 65 49 76 91 74 67 64 63 51 46
7 18 81 29 27 78 86 61 61 100 100 100 41 10 8 8 21 47 70 95 100 100 98 99 92 86 81 80 73 76 82 92 92 95 100 100 94 80 65 97 86 75 65 56 62 55 56 94 85 72 65 69 62 49
43 79 56 47 52 72 78 69 72 100 100 85 12 13 15 40 56 67 77 75 83 89 87 98 100 90 84 81 82 90 99 99 100 100 100 94 93 91 98 94 87 79 70 53 54 57 47 80 95 90 77 81 70 53
100 93 58 61 80 82 56 49 68 100 100 36 16 28 43 57 60 67 76 79 95 100 100 100 95 98 99 100 100 99 99 100 98 100 95 88 92 93 92 95 86 76 72 55 48 56 44 50 84 97 95 91 71 55
100 76 55 72 82 76 62 44 60 100 100 19 28 40 56 65 65 67 74 83 93 95 88 87 97 100 100 100 99 96 100 100 100 99 93 97 100 98 100 100 97 100 98 81 66 58 54 49 76 89 98 95 66 51
100 80 67 82 85 76 54 91 88 100 94 25 40 39 66 68 70 71 73 75 73 76 83 100 95 87 92 98 100 99 100 100 100 100 93 94 96 93 97 98 90 86 91 92 83 72 58 55 66 87 97 83 72 53
100 94 90 77 82 63 34 96 100 100 85 32 44 49 62 52 54 51 43 52 59 68 75 77 80 86 80 75 75 90 94 82 86 80 91 95 87 90 89 80 94 86 84 100 91 84 73 63 69 88 94 94 77 63
100 96 76 81 71 37 42 100 100 100 74 31 51 57 62 50 44 46 55 54 51 47 51 48 50 51 56 60 65 66 66 75 70 60 50 65 95 96 98 90 100 100 100 100 91 85 70 66 67 74 87 89 91 92
93 74 61 54 44 43 66 100 100 100 81 34 43 61 48 54 46 51 52 50 45 41 43 43 41 40 41 41 46 49 50 49 56 58 55 47 40 43 72 98 100 100 100 100 100 99 100 99 80 83 97 100 100 100
85 64 55 58 74 87 97 100 100 100 100 35 41 35 46 44 52 47 52 49 44 47 46 45 43 46 44 37 37 44 45 50 53 48 44 44 40 34 36 38 53 87 100 100 100 100 100 100 100 100 100 97 99 100
81 66 59 94 100 98 99 100 100 100 100 72 40 42 54 41 40 41 45 45 44 42 44 41 39 40 46 48 37 38 53 50 40 32 32 32 32 36 36 35 35 38 41 48 84 98 100 100 100 100 100 100 100 100
64 81 87 97 100 100 100 100 100 98 99 99 39 41 44 43 44 39 38 38 39 43 47 47 42 38 36 36 43 47 42 43 44 39 35 35 31 28 27 29 32 32 32 33 36 38 36 54 79 94 99 99 100 100
76 99 100 100 100 100 100 100 100 100 100 100 99 41 29 41 38 31 33 32 31 34 32 24 16 13 15 19 22 18 22 25 29 30 28 24 22 16 12 12 13 12 11 11 14 19 25 29 30 30 30 34 47 66
100 100 100 100 100 100 100 100 100 100 100 100 100 100 72 29 25 21 18 18 18 18 18 18 15 14 16 16 17 18 18 19 21 22 20 18 15 16 12 12 15 16 17 18 18 17 17 16 16 15 14 13 14 16
100 100 100 100 100 100 100 100 100 100 100 100 100 100 100 100 91 61 42 30 29 30 34 31 26 24 24 22 23 24 24 23 22 19 17 15 14 13 14 12 11 11 12 12 13 12 11 12 14 16 18 20 22 22
47 38 66 91 99 100 100 100 100 100 100 100 100 100 100 100 100 100 100 95 93 92 90 72 48 36 36 33 30 29 27 25 21 20 19 20 21 21 21 21 22 22 21 20 17 18 18 19 18 14 14 16 16 18
28 26 23 20 27 40 83 98 100 100 100 100 100 100 100 100 100 97 94 100 100 100 93 90 90 91 95 75 54 50 38 30 28 26 24 25 26 32 31 29 29 31 35 39 33 26 24 22 18 16 13 12 14 16
40 38 35 30 26 20 22 28 53 86 97 100 100 100 100 100 100 100 100 100 99 94 94 91 92 95 95 97 97 98 96 79 62 44 39 39 52 68 77 65 49 45 46 48 44 38 33 29 23 19 17 14 13 11
50 45 41 34 31 30 29 22 17 16 26 66 95 98 99 96 97 99 100 100 93 94 98 94 92 96 97 94 96 99 98 90 81 87 89 92 89 92 91 81 67 62 59 54 49 46 45 39 30 26 25 22 17 11
49 39 34 28 27 26 25 29 27 21 14 15 44 64 62 67 69 72 84 83 86 86 88 88 89 92 94 96 98 99 98 94 92 94 92 97 96 97 95 87 80 74 67 63 58 53 45 36 27 20 16 12 11 11
55 44 30 23 21 22 21 19 22 27 23 17 17 32 42 45 47 53 61 76 82 80 82 86 92 97 98 95 93 94 96 98 100 100 99 99 91 88 91 93 90 86 79 68 55 44 37 30 22 15 13 13 13 13
46 39 31 30 28 25 23 20 19 20 24 24 18 17 58 81 87 78 71 75 80 83 87 89 88 90 93 94 92 91 90 93 100 100 100 100 95 94 96 95 92 86 72 56 47 39 30 21 16 15 15 14 14 14
42 42 41 37 28 24 23 21 17 18 21 24 22 17 20 81 96 78 82 87 79 83 91 94 95 96 93 90 93 93 92 97 100 100 99 100 95 95 95 90 81 67 54 45 32 20 17 17 17 15 16 16 17 16
33 30 28 26 25 22 21 22 21 21 21 21 22 18 19 57 91 89 86 89 94 93 93 100 99 96 94 92 91 93 92 93 95 95 100 100 100 94 84 68 56 42 24 18 18 18 16 15 18 19 17 11 6 4
21 20 20 20 21 20 18 14 18 19 17 19 20 17 17 32 71 86 90 90 88 92 94 94 91 92 91 97 98 96 90 93 99 100 99 96 78 62 49 32 20 19 19 18 18 20 21 18 11 5 3 3 4 5
26 24 20 15 12 11 14 8 8 12 14 16 19 18 17 24 51 94 100 89 82 88 95 96 92 93 98 100 95 93 96 96 96 86 68 55 39 24 20 20 20 19 21 23 22 15 6 4 6 16 30 30 25 19
68 55 41 24 12 8 6 6 9 12 13 15 17 17 16 31 70 98 100 84 74 83 89 95 99 97 95 96 97 97 96 83 65 48 30 21 20 20 21 25 26 26 22 10 5 11 24 38 38 38 28 17 16 12

GFSWCAN_500_rhum_057.txt.gz
RH
7 4 3 2 2 2 2 3 2 2 9 21 34 36 46 79 98 100 97 100 100 90 74 33 20 24 45 45 57 61 48 38 34 33 34 42 44 46 63 74 69 73 68 60 52 46 36 29 25 66 94 91 76 70
4 4 3 3 3 3 3 3 2 3 5 20 33 30 46 68 87 100 99 100 97 100 100 84 57 22 33 48 65 64 54 44 33 34 36 37 44 44 40 42 51 50 49 45 42 28 21 21 50 93 99 97 76 76
4 4 4 4 4 4 4 3 3 4 7 36 62 66 47 60 83 100 100 100 100 100 100 99 96 78 29 51 61 74 61 49 38 40 40 35 28 35 43 46 44 43 46 41 26 24 34 54 85 100 97 78 77 74
6 4 4 5 5 5 5 3 6 5 19 66 56 71 64 74 97 96 100 100 90 53 25 18 50 98 71 53 77 75 70 56 49 44 31 36 36 35 42 62 74 74 59 46 34 29 40 58 92 98 92 75 75 72
4 4 5 6 6 6 5 4 7 5 50 66 59 95 100 99 97 84 57 20 9 5 3 2 3 28 88 44 78 74 81 63 52 47 32 32 45 48 41 47 88 95 86 64 59 43 46 65 96 97 81 74 71 65
5 4 5 5 6 6 5 11 7 20 73 67 68 100 100 100 74 21 8 6 5 3 28 36 32 37 46 52 84 92 97 77 49 46 39 37 69 61 49 48 84 87 82 75 64 48 49 54 95 95 87 70 52 46
10 6 8 5 6 6 8 22 16 47 81 71 79 100 100 79 11 8 10 28 56 76 96 99 100 61 57 98 91 98 98 76 56 51 54 69 78 65 45 46 75 77 70 70 66 62 52 44 74 92 81 65 56 55
10 10 7 7 7 9 42 34 52 68 85 63 91 100 90 13 13 15 53 89 100 97 97 100 100 100 94 92 98 92 75 63 62 70 70 86 82 65 51 81 70 70 76 63 60 61 57 50 49 87 80 72 67 69
10 10 13 10 14 52 85 67 69 70 56 61 99 92 19 17 18 29 54 59 68 87 84 100 99 100 90 94 82 79 72 76 78 82 93 91 88 96 100 97 92 82 76 72 63 58 58 57 43 63 83 77 73 69
9 34 39 46 93 100 95 100 99 72 62 69 100 32 30 36 32 54 57 47 53 69 93 100 100 100 90 88 89 88 83 88 86 97 99 100 100 98 94 90 86 84 78 70 58 51 51 54 50 45 78 89 83 75
29 100 78 100 100 78 73 99 85 64 78 89 97 32 48 52 48 61 61 62 63 72 79 91 92 97 90 93 95 87 93 96 96 100 100 100 100 100 100 99 90 87 87 81 66 55 49 50 51 47 56 87 95 92
97 76 98 100 100 76 76 96 79 80 70 100 92 40 57 59 52 70 76 76 76 84 87 91 98 100 100 100 100 100 99 98 100 100 100 100 100 100 100 100 94 88 92 98 93 78 60 52 52 54 46 62 89 95
86 92 100 100 100 88 96 99 96 66 76 100 96 41 66 78 69 72 73 82 86 91 88 100 100 100 99 98 100 100 100 100 97 96 89 95 100 100 100 100 97 100 82 91 97 92 89 77 65 59 54 61 78 93
100 100 100 100 100 98 95 83 75 55 91 100 96 45 62 74 54 71 87 87 78 75 82 87 83 81 87 83 79 82 76 77 89 81 74 56 69 94 100 100 100 100 96 100 100 100 100 83 78 69 67 71 83 96
100 100 100 100 100 98 91 69 61 52 92 100 100 61 51 71 54 74 83 63 58 59 65 62 58 54 52 46 48 48 49 45 53 56 63 62 57 44 48 69 98 100 100 99 98 100 100 100 100 96 72 63 65 70
100 100 100 100 96 73 65 44 30 69 98 100 100 92 61 76 63 64 83 68 60 54 54 51 45 44 45 41 40 38 36 54 58 52 49 48 51 47 43 42 46 57 83 100 100 100 100 100 100 100 100 100 100 99
100 100 100 88 70 64 51 29 77 100 100 95 100 98 53 87 80 60 65 71 64 59 52 46 47 50 44 42 41 40 48 47 42 45 41 40 36 35 34 32 32 36 37 39 43 53 93 100 100 100 100 100 100 100
100 98 83 68 55 51 53 80 100 100 100 100 100 100 68 62 94 80 65 58 63 63 55 50 46 44 43 42 50 57 43 42 42 42 41 42 41 38 35 31 26 23 21 23 25 26 28 34 43 72 92 98 100 100
94 76 65 59 69 68 80 98 100 100 100 100 100 100 100 62 65 82 81 72 58 51 47 44 39 39 48 55 46 29 25 23 26 28 29 30 27 25 23 19 14 14 13 12 12 12 10 12 17 23 28 30 30 30
81 78 86 91 91 100 100 100 100 100 100 100 100 100 100 99 62 60 67 64 58 50 42 38 44 50 39 18 13 14 13 13 12 11 12 14 15 12 10 13 16 14 14 15 16 17 16 16 16 16 15 16 16 17
100 99 93 100 99 99 100 100 100 100 100 100 100 100 100 100 100 67 36 40 45 47 45 28 21 19 18 18 19 19 21 24 26 23 21 20 19 17 16 14 14 13 13 12 12 12 13 16 18 19 19 18 16 15
100 99 99 98 100 100 100 100 100 100 100 100 100 100 100 100 100 100 98 61 34 34 26 23 23 24 30 32 32 33 30 28 26 25 23 21 20 20 20 21 21 21 22 23 25 27 30 31 29 25 24 25 24 23
71 66 58 76 75 83 90 99 100 100 100 100 100 100 100 100 100 100 99 100 100 98 92 90 89 87 89 95 98 88 75 61 46 39 36 30 26 24 23 22 21 23 31 38 38 34 32 34 39 43 41 36 32 27
31 29 26 26 31 32 53 58 70 90 99 100 100 100 100 100 100 100 100 100 98 97 99 100 100 98 99 100 98 94 94 93 92 88 90 91 77 56 44 37 38 43 61 72 72 82 69 56 54 53 50 45 42 42
40 43 41 40 36 33 30 27 23 20 32 62 94 100 100 100 100 100 100 100 100 100 100 100 100 97 97 96 96 98 98 94 96 97 95 92 93 92 88 83 77 82 92 100 100 96 82 72 67 63 59 56 53 50
55 50 48 46 40 34 30 26 24 26 26 19 14 29 76 98 100 100 100 100 100 100 100 100 100 95 92 93 93 95 96 98 100 98 97 100 100 100 99 98 100 95 100 100 100 100 95 90 83 77 73 69 62 53
67 66 63 50 41 34 26 21 20 20 19 21 24 19 13 21 61 79 82 86 91 85 78 78 81 82 81 82 82 85 89 94 97 96 96 100 100 100 100 100 99 99 99 96 97 99 100 95 90 86 78 69 58 49
60 66 76 71 59 47 34 28 27 27 26 23 17 19 22 18 15 22 44 46 44 51 60 68 71 74 78 78 80 84 86 90 92 94 94 95 92 88 89 96 98 100 100 100 100 99 97 94 92 79 66 56 46 37
73 76 83 76 69 58 48 39 37 37 34 26 22 18 14 21 21 15 19 45 66 68 66 70 81 80 77 73 77 85 91 93 95 100 100 96 89 85 88 95 98 99 100 100 97 94 87 74 61 47 30 22 22 24
89 87 80 69 57 48 48 47 44 38 29 24 20 17 14 13 21 20 15 15 39 68 71 84 91 90 86 85 88 88 91 94 94 92 90 91 91 93 92 93 93 91 88 81 68 52 36 27 24 24 25 22 18 15
70 79 82 78 68 61 55 48 40 34 27 20 17 14 13 12 13 20 19 16 30 82 88 86 85 87 90 93 91 90 87 81 82 82 88 93 94 96 100 97 84 67 46 30 26 26 24 19 16 16 19 21 19 14
30 29 30 29 28 27 27 27 29 29 25 22 19 16 11 10 10 18 20 20 18 52 79 85 92 95 92 88 84 83 82 83 88 90 97 99 95 85 71 51 31 28 27 22 19 18 20 22 23 18 10 8 12 18
24 20 21 25 29 29 28 25 20 18 18 16 14 11 9 8 8 16 18 24 33 37 60 82 93 97 94 93 93 94 94 96 99 100 91 78 56 36 30 25 20 20 20 20 24 22 15 11 19 40 46 46 44 34

GFSWCAN_500_rhum_060.txt.gz
RH
47 37 15 8 6 5 5 5 5 6 5 4 3 2 3 20 56 58 47 80 99 100 100 96 80 59 28 22 35 38 34 44 53 46 36 39 55 79 84 88 84 76 72 66 56 62 51 44 42 34 26 36 91 99
30 10 8 8 7 7 6 5 5 5 6 4 3 3 5 33 44 69 42 57 79 94 100 94 100 94 82 42 25 40 47 66 60 49 35 32 37 48 52 60 72 74 71 70 67 59 53 47 40 32 26 76 100 99
10 11 9 6 5 6 5 4 4 5 6 5 4 4 16 40 47 75 70 65 88 88 100 98 100 96 93 92 50 28 44 54 67 59 37 32 30 42 46 49 47 48 57 57 54 50 46 36 24 21 36 92 100 93
22 15 12 10 10 10 8 5 5 5 6 5 4 7 40 49 51 90 100 98 93 86 91 100 93 100 100 100 99 52 40 70 74 62 44 35 32 33 33 35 41 56 57 55 50 46 37 29 32 40 68 98 100 86
13 14 11 13 14 13 11 7 6 5 6 7 11 19 52 55 76 100 100 100 95 70 47 30 21 25 50 100 100 98 49 85 81 66 52 46 44 40 34 33 39 54 82 71 77 50 36 31 43 60 93 100 99 80
19 16 22 22 17 13 11 8 6 6 7 21 24 37 60 56 91 100 88 17 9 9 8 13 15 5 3 18 100 100 80 92 78 67 53 48 55 40 31 31 55 52 64 85 83 74 46 35 38 50 93 100 92 83
21 22 26 23 19 14 11 9 7 9 17 52 75 60 70 64 100 75 13 15 16 39 64 67 35 14 15 36 92 100 100 94 85 84 59 50 60 38 28 30 88 60 53 78 84 77 67 41 34 37 68 95 90 81
25 27 30 22 18 14 12 9 9 21 71 90 70 62 61 89 78 16 30 39 36 45 76 77 50 91 100 98 92 100 100 90 94 92 62 60 50 43 31 81 90 68 61 69 72 64 64 52 38 37 43 90 92 76
26 23 19 13 10 10 11 9 20 58 100 90 80 64 75 90 26 54 60 46 54 85 88 69 59 84 100 100 100 90 91 100 93 66 63 62 62 66 78 72 76 70 66 67 67 58 53 53 45 41 41 54 89 80
21 18 14 11 10 8 8 13 31 100 100 98 70 82 100 42 48 59 79 83 75 88 87 98 100 95 100 91 88 96 91 73 68 73 78 72 77 85 86 91 91 86 79 76 72 67 57 54 47 42 45 42 62 86
15 12 12 7 5 7 23 48 100 100 100 77 72 100 86 44 51 58 56 56 62 80 81 95 100 100 100 100 100 92 99 88 79 83 86 94 100 100 98 89 86 86 84 82 76 68 61 56 51 44 39 46 44 65
8 8 4 5 17 57 49 100 100 100 100 80 80 99 83 45 55 67 60 62 60 65 81 100 99 100 98 100 95 99 98 90 95 100 98 100 100 100 100 98 95 96 93 89 85 87 83 68 59 53 48 50 51 48
4 4 6 21 54 99 100 100 100 100 98 94 77 98 95 62 69 68 60 73 82 96 96 91 100 100 97 100 100 100 100 100 100 100 98 99 100 100 100 100 100 99 100 95 92 100 100 100 93 74 56 52 58 54
50 94 100 100 100 100 100 100 100 100 100 86 71 98 100 69 53 73 79 97 100 96 94 94 93 100 100 95 98 97 98 97 100 100 99 91 96 85 96 100 100 100 100 99 99 100 100 100 93 92 88 78 71 65
88 99 100 100 100 100 100 100 100 100 100 76 60 93 99 78 68 80 99 98 100 99 100 100 90 86 81 72 68 59 59 54 60 62 64 79 85 86 58 55 83 100 100 100 100 100 92 97 100 100 98 88 81 75
100 100 100 100 100 100 99 100 100 100 77 54 32 74 100 98 74 100 100 100 100 97 91 90 87 72 60 49 45 43 44 45 40 45 47 50 54 56 50 44 43 44 54 78 98 100 100 100 100 100 99 100 100 100
75 100 100 100 100 100 100 100 93 75 61 42 40 97 100 100 82 99 100 100 100 87 83 74 69 60 46 43 45 55 61 48 43 37 32 40 46 48 40 40 40 35 32 32 38 43 63 84 100 100 100 100 94 91
100 100 100 100 100 100 100 87 69 48 42 48 89 100 100 100 94 85 100 100 100 90 74 70 65 56 47 46 58 58 57 54 51 52 45 39 36 40 40 36 32 28 27 25 22 22 23 28 30 40 59 90 99 100
99 100 100 100 99 89 56 46 53 63 82 97 100 100 100 100 100 83 95 100 100 100 80 66 57 55 58 56 62 56 47 41 40 31 33 38 38 33 31 27 26 24 19 12 12 15 15 14 14 13 15 23 34 40
100 100 100 88 65 50 67 77 65 78 99 100 100 99 100 100 100 95 75 94 100 100 87 69 71 73 75 60 46 37 33 28 13 12 13 14 14 15 16 17 15 10 13 15 14 14 14 16 17 17 16 15 15 15
100 93 79 68 71 92 89 88 95 100 100 100 100 98 99 100 100 100 86 62 79 93 100 98 91 72 58 40 38 36 26 14 17 22 22 23 22 21 20 20 19 15 15 15 14 14 13 12 13 14 16 17 18 20
85 93 99 97 95 94 92 99 99 100 100 100 100 100 100 100 100 100 100 91 69 62 67 72 65 57 48 39 23 19 19 21 23 22 22 24 24 23 22 21 20 21 20 22 24 25 26 27 27 28 31 34 36 35
97 99 100 99 94 93 97 99 100 100 100 100 100 100 100 100 100 100 100 100 100 89 58 36 30 28 26 23 25 30 33 35 39 38 38 38 34 31 28 27 25 24 22 21 21 21 23 26 37 53 61 62 50 40
75 69 59 55 61 56 74 80 86 96 100 100 100 100 100 100 100 100 100 100 100 100 100 99 96 85 76 75 82 85 85 88 89 88 91 91 90 88 86 85 84 77 58 44 38 36 36 40 56 68 76 84 85 73
45 41 37 32 32 31 29 28 25 24 31 49 89 100 100 100 100 100 100 100 100 100 100 100 100 100 98 96 95 95 96 95 94 95 92 88 91 91 88 91 91 91 98 99 97 96 93 94 96 94 94 94 94 88
38 44 45 44 41 37 35 31 29 28 27 24 21 24 54 87 98 100 100 100 100 100 100 100 100 100 100 100 100 100 100 100 96 94 95 98 96 96 95 97 98 96 100 100 99 99 97 94 93 95 98 97 98 98
63 58 60 58 54 51 47 40 33 26 23 22 22 22 22 20 22 42 83 99 100 100 100 100 100 100 100 100 100 100 100 100 99 98 99 98 97 96 96 98 98 96 92 91 92 92 92 94 96 97 98 99 98 96
54 65 86 100 99 84 65 51 43 38 31 21 18 18 19 19 19 20 19 19 32 74 93 95 97 95 84 78 80 82 83 84 84 83 84 84 81 84 84 85 86 89 89 88 90 92 88 90 93 94 94 96 98 90
79 97 89 86 79 71 69 70 66 59 53 46 41 33 27 24 19 17 16 19 18 15 22 43 59 63 54 48 48 50 57 65 70 74 75 77 75 77 82 84 87 91 90 85 85 85 87 90 93 95 94 84 67 51
76 75 72 73 74 77 82 78 74 70 62 56 48 41 35 29 24 18 15 14 14 18 17 14 25 46 58 61 64 65 63 67 72 76 85 94 95 92 88 84 78 75 76 80 86 89 87 82 65 45 32 28 28 27
72 71 66 61 57 60 62 61 62 62 60 56 52 45 38 29 22 17 14 15 14 12 17 17 11 12 26 58 63 64 68 70 80 83 85 86 86 86 84 84 85 88 90 84 70 50 35 29 29 28 27 24 20 18
44 43 41 39 38 36 34 31 27 27 32 37 38 37 34 26 14 12 13 16 16 14 11 14 15 15 33 79 85 80 80 79 79 80 80 84 84 86 89 90 86 73 46 31 29 28 28 25 21 21 22 20 17 18
26 24 22 21 20 19 17 17 16 16 16 16 15 16 19 17 12 9 10 15 15 11 10 11 14 17 43 77 85 80 80 84 85 90 91 92 91 88 78 50 30 27 30 31 27 20 21 22 17 16 29 46 48 56

GFSWCAN_500_rhum_063.txt.gz
RH
32 19 30 43 25 12 11 15 14 9 6 6 4 4 4 5 4 9 18 33 35 51 44 90 100 100 98 62 25 21 24 26 34 30 48 44 41 71 84 85 84 74 68 64 52 46 48 50 52 47 40 38 35 40
16 32 45 28 19 21 15 10 8 7 7 7 5 4 4 5 5 17 43 44 46 62 56 61 90 100 100 99 82 36 21 32 31 39 51 50 39 36 44 60 84 85 79 74 71 65 61 56 51 48 44 38 27 40
37 44 34 32 20 12 10 9 10 11 12 11 9 4 5 6 8 30 69 54 64 80 72 51 73 93 93 100 99 94 59 25 35 42 63 57 38 35 34 37 44 55 66 74 71 66 64 62 56 53 46 38 28 68
35 37 25 13 12 12 11 10 13 15 20 18 12 6 5 7 15 78 75 54 76 81 85 100 87 84 97 100 96 100 100 88 33 44 62 66 51 37 35 38 39 39 46 50 54 61 58 56 55 51 41 27 25 72
41 31 24 12 12 14 10 12 15 17 17 17 13 8 6 7 47 87 78 65 92 96 90 92 97 96 97 100 100 100 100 100 90 56 68 70 56 39 36 31 30 35 32 34 57 52 52 49 45 35 26 29 32 87
42 43 25 18 15 13 10 13 18 24 16 16 12 9 10 17 98 68 69 98 81 40 12 9 10 10 12 44 100 100 100 100 100 97 88 78 53 47 37 37 58 34 27 26 33 66 61 53 46 36 33 40 63 92
32 26 22 20 18 17 11 20 21 21 16 16 12 8 15 76 80 68 88 63 24 21 39 50 32 18 14 14 10 19 100 100 100 100 94 78 61 49 34 35 100 51 38 26 31 40 72 63 54 44 34 36 66 100
17 13 13 13 14 12 13 19 22 19 16 14 11 11 36 100 75 91 45 34 32 38 36 34 60 60 36 10 4 45 100 100 99 100 99 81 69 53 33 68 78 58 42 31 31 34 53 70 61 56 44 38 45 91
14 16 18 18 15 13 17 22 20 15 13 11 8 30 99 99 83 68 48 51 58 70 48 53 81 99 89 99 100 97 100 99 99 99 93 93 75 52 50 45 47 58 58 65 54 42 52 68 62 56 52 47 42 47
20 21 23 23 22 24 22 18 15 15 10 7 24 98 100 100 96 55 91 62 64 88 83 61 68 94 100 100 95 100 100 100 98 94 100 82 66 58 47 54 65 75 76 70 77 74 62 57 53 48 44 44 43 45
20 22 24 18 16 16 15 14 10 12 10 30 99 100 100 100 88 86 100 75 78 96 91 81 82 94 100 100 100 90 92 98 100 95 82 58 64 80 80 84 83 88 90 84 80 82 80 76 65 55 44 38 40 43
23 25 21 16 14 14 10 12 22 64 85 100 100 100 100 100 86 88 93 87 99 100 94 100 91 94 100 100 100 99 93 89 75 85 85 86 98 99 100 100 100 98 97 98 95 93 88 86 83 73 61 51 43 42
21 14 11 10 10 7 86 32 96 100 100 100 100 100 100 100 93 73 79 74 97 98 100 100 100 100 100 100 100 100 100 100 100 100 100 100 100 100 100 100 100 100 100 100 100 98 98 100 100 97 84 67 56 49
10 9 12 15 10 9 70 100 96 100 100 100 100 100 99 95 96 53 79 100 100 100 100 100 100 100 100 100 100 100 100 100 100 94 98 97 100 98 95 99 100 100 100 100 100 100 100 100 100 100 98 91 80 70
12 20 78 100 100 100 100 100 100 99 100 100 100 99 76 90 100 63 73 100 100 100 100 100 100 100 100 100 100 100 98 86 83 81 78 71 83 88 94 73 66 94 100 100 100 100 99 97 88 94 100 100 96 88
40 87 100 100 100 100 100 100 100 100 100 100 100 78 70 88 100 98 75 100 100 100 100 100 100 100 100 90 81 62 56 56 53 53 54 54 54 55 60 59 57 51 50 62 80 94 99 100 99 95 92 95 100 100
93 83 100 94 100 100 100 100 100 100 95 89 99 87 64 79 100 100 94 98 100 100 100 97 100 100 86 71 64 60 64 46 52 49 42 37 36 50 54 52 42 41 39 35 32 30 34 42 68 93 100 100 100 100
90 100 97 100 96 97 100 100 100 95 91 100 92 70 63 83 100 100 100 95 100 100 100 98 90 90 83 74 68 66 66 59 56 53 49 45 44 40 39 46 43 36 33 31 29 27 24 22 21 24 28 46 70 92
100 94 79 90 100 100 100 100 99 100 100 81 60 46 56 99 100 100 100 96 100 100 100 100 89 72 75 76 69 65 60 53 48 47 45 46 38 33 37 36 37 35 33 31 28 24 18 14 14 16 17 16 15 15
88 93 100 100 100 100 100 97 91 80 54 45 45 59 78 100 100 100 100 96 92 97 95 97 97 92 90 78 70 62 58 53 51 50 46 28 13 14 18 21 23 24 22 20 18 10 13 14 12 12 14 16 17 16
100 100 100 100 100 86 74 53 56 75 72 76 81 78 96 98 100 100 100 95 84 89 100 99 100 100 89 75 62 60 60 61 54 44 38 16 16 18 19 22 20 16 15 14 16 18 17 15 14 13 12 12 14 17
98 100 100 98 83 72 73 75 88 86 89 97 97 96 99 99 100 100 100 99 92 94 97 100 96 88 89 78 67 62 64 57 50 37 24 16 20 25 24 23 21 21 21 21 20 21 23 24 24 24 26 28 30 31
100 100 96 96 100 100 98 92 92 93 95 97 100 100 100 100 100 100 100 100 100 99 79 75 86 95 92 82 73 68 62 51 37 21 19 20 24 27 28 28 26 24 23 21 21 21 21 21 21 21 22 23 24 28
100 100 100 100 100 96 89 82 85 96 99 98 96 99 100 100 100 100 100 100 100 100 100 92 72 64 60 57 53 46 38 29 22 21 27 31 39 63 77 76 72 70 65 62 65 71 73 69 61 53 46 41 40 41
93 94 97 90 72 57 57 50 42 42 47 64 93 100 100 100 100 100 100 100 100 100 100 100 100 100 96 75 43 35 40 41 42 57 78 88 91 96 96 95 94 93 97 94 93 93 91 92 92 91 89 89 89 89
53 49 48 37 34 36 31 30 29 28 27 26 24 23 33 69 96 100 100 100 100 100 100 100 100 100 100 100 100 100 100 100 99 98 95 98 98 98 95 97 99 98 100 99 97 97 99 97 94 92 90 88 90 90
48 49 48 48 43 38 38 37 36 35 32 29 27 24 23 23 22 25 52 88 98 100 100 100 100 100 100 100 100 100 100 100 100 100 100 100 100 100 100 100 100 99 96 94 94 92 90 87 86 85 85 83 82 78
86 90 74 63 58 56 52 50 49 48 45 41 37 32 22 19 20 20 20 19 20 35 59 82 96 100 100 100 100 100 100 100 100 100 100 99 95 91 84 82 80 77 75 73 68 70 74 80 84 86 88 88 84 80
96 88 80 76 71 67 64 62 58 54 52 50 50 49 44 44 44 36 28 24 22 19 16 16 20 34 60 89 96 96 93 86 81 76 72 69 64 63 62 63 58 57 60 66 76 86 89 87 81 76 75 76 77 76
44 46 51 57 60 62 64 61 60 58 55 54 49 47 46 45 43 35 31 30 32 29 22 17 16 14 16 16 19 31 42 47 48 48 51 54 52 50 49 53 59 68 80 86 88 85 81 80 84 85 84 80 67 49
58 74 76 73 70 72 66 61 59 56 51 50 50 48 48 46 45 47 44 42 37 31 26 22 16 14 14 13 16 15 13 16 21 29 32 42 47 53 64 71 72 70 70 71 75 80 82 83 74 55 40 35 34 33
64 66 69 70 68 62 57 54 50 47 46 43 41 39 36 28 22 25 29 30 30 28 26 21 17 14 13 13 12 14 14 11 14 23 33 50 65 73 74 72 74 79 86 90 87 69 44 35 33 34 32 24 20 20
42 37 38 38 37 36 33 30 29 25 23 22 21 20 18 16 16 16 16 18 18 16 15 15 15 13 12 12 11 12 15 13 26 64 78 81 80 79 84 90 94 93 70 43 35 35 34 28 20 18 19 17 14 15

GFSWCAN_500_rhum_066.txt.gz
RH
94 92 76 54 25 30 41 34 18 12 8 8 8 9 10 9 8 7 4 5 6 12 50 47 68 74 62 96 100 68 28 22 22 23 32 30 33 40 72 73 69 68 54 52 43 35 42 48 50 52 49 46 43 40
97 83 69 34 29 38 35 23 14 11 8 8 10 13 11 11 11 8 7 5 6 8 46 44 76 100 74 96 100 100 83 41 22 24 26 30 31 40 38 42 74 78 68 65 68 61 57 51 51 55 52 47 43 39
93 87 46 36 33 32 25 18 13 12 10 10 12 15 16 10 11 14 11 6 7 10 39 58 76 100 69 77 100 100 100 98 61 25 31 30 28 37 41 31 31 33 57 76 75 62 59 55 56 59 54 48 46 43
90 60 38 30 24 25 26 27 21 16 13 13 13 21 22 13 11 11 11 6 12 26 23 70 95 96 85 49 76 100 100 100 100 89 35 29 33 44 43 34 32 32 36 42 52 60 65 63 59 60 59 55 51 46
44 34 31 25 21 18 23 22 16 14 14 13 13 15 20 15 12 11 10 7 17 35 57 79 96 100 99 100 94 97 100 100 100 100 96 52 39 52 51 42 33 35 38 30 32 35 38 46 59 59 57 56 53 47
78 61 40 27 20 17 17 13 12 9 10 15 17 20 17 14 20 11 7 21 35 67 86 33 25 19 16 52 100 100 100 100 100 100 100 98 67 56 45 43 36 34 26 23 22 22 24 27 39 50 52 48 42 33
88 62 20 15 16 17 14 10 8 6 10 16 21 18 16 15 15 9 14 41 48 85 44 67 40 34 19 16 14 33 97 100 100 100 100 100 100 77 49 44 48 36 30 28 23 19 16 18 31 44 51 49 41 34
58 34 20 16 13 12 11 9 8 6 12 15 13 14 16 18 13 12 90 79 84 43 72 62 68 68 26 10 7 9 21 89 100 100 100 100 100 95 63 58 62 45 31 32 26 21 18 15 22 33 53 56 48 40
56 27 19 17 16 12 10 9 6 12 15 12 18 17 14 16 11 61 100 93 64 67 71 60 78 81 89 84 28 12 15 66 100 94 97 100 99 79 67 84 65 53 43 42 31 25 20 21 23 26 46 59 56 46
31 22 16 14 14 12 12 8 7 10 13 16 16 15 13 12 70 95 100 90 60 77 90 71 86 97 80 100 100 100 100 100 92 100 100 92 83 98 98 95 69 52 50 40 36 40 46 51 42 36 48 56 53 50
61 29 18 16 14 11 7 7 11 10 13 15 14 15 32 91 100 96 98 65 69 84 100 99 94 100 100 100 100 100 99 98 100 100 100 90 97 99 78 76 66 52 51 63 78 82 78 76 71 61 50 46 42 44
22 20 17 14 12 10 6 8 10 12 12 18 39 86 100 100 98 97 92 81 100 99 100 100 100 100 100 94 96 97 99 100 98 99 90 87 95 77 65 57 69 85 82 91 98 99 91 89 85 79 71 63 58 53
19 16 14 12 10 7 8 7 11 14 16 72 95 100 100 100 91 93 94 87 100 100 100 100 100 100 100 100 100 100 100 93 100 99 96 92 97 99 99 100 99 98 100 100 100 100 100 100 96 91 86 78 69 62
15 14 10 8 9 11 12 16 25 68 100 100 100 100 100 94 84 96 100 94 100 100 100 100 100 100 100 100 100 99 94 100 97 100 100 100 100 100 100 100 100 100 100 100 100 100 100 100 100 100 100 100 100 93
12 8 8 9 12 23 38 48 99 100 100 100 100 99 95 100 100 100 100 94 100 99 100 100 100 100 100 100 100 100 100 100 100 100 100 99 96 99 97 99 98 98 100 100 100 100 100 100 100 100 100 100 100 100
10 8 9 23 56 64 47 66 99 100 100 100 100 99 100 100 100 100 100 98 90 97 100 100 100 100 100 100 100 100 100 94 80 74 74 72 67 65 67 70 68 81 76 67 74 82 88 93 92 90 88 90 94 98
10 10 32 48 78 98 100 100 100 100 93 85 100 100 100 100 100 99 100 100 78 94 100 100 100 100 100 100 100 100 94 75 63 57 53 48 46 44 43 46 58 54 45 42 39 38 35 31 29 29 34 57 78 83
41 49 58 78 99 96 100 96 99 96 91 100 100 100 97 93 76 63 96 100 87 92 100 100 100 100 100 100 100 88 69 66 60 60 57 55 56 52 47 46 47 46 50 42 36 33 31 30 27 24 22 21 21 23
100 78 85 99 100 96 96 79 68 88 100 100 100 94 89 84 64 52 79 100 97 93 100 100 99 100 100 100 100 89 67 58 56 53 54 55 59 53 46 42 24 28 35 38 40 38 35 32 27 20 10 10 12 16
89 65 73 100 100 79 65 70 86 88 88 98 85 82 82 58 42 48 64 99 100 94 90 92 93 100 100 100 100 94 77 60 54 55 57 55 52 48 46 19 13 16 22 26 27 26 23 20 18 13 17 15 13 14
100 100 100 100 92 74 76 84 88 89 82 75 66 53 52 52 54 66 85 91 96 100 99 93 98 92 100 100 94 87 80 70 64 59 56 56 58 56 41 18 18 17 21 18 14 12 12 12 13 16 14 13 13 12
100 100 100 100 100 96 95 91 67 50 44 45 46 51 46 56 74 83 90 91 100 100 100 100 96 90 100 100 100 98 87 79 74 69 60 60 61 53 34 18 26 26 24 23 21 21 20 20 21 23 24 24 24 25
98 100 100 100 100 100 90 68 58 69 76 71 64 65 74 86 91 93 98 100 100 98 94 95 91 94 99 100 100 92 86 85 78 70 62 60 56 46 25 19 20 22 23 24 24 23 23 22 22 22 22 22 22 22
100 100 100 100 100 94 83 94 94 85 73 72 77 82 90 96 98 100 100 100 100 100 100 100 100 100 97 90 90 90 86 83 78 72 63 62 54 42 22 20 22 28 35 45 56 61 65 64 64 66 70 75 79 82
100 100 100 100 100 100 99 85 67 64 66 70 87 99 100 97 100 100 100 100 100 100 100 100 100 100 100 100 91 86 89 90 87 80 67 54 41 27 23 24 32 42 64 81 85 85 84 86 85 84 83 83 84 87
100 100 100 100 97 90 72 57 51 37 27 26 26 26 25 35 60 89 100 100 100 100 100 100 100 100 100 100 100 98 85 70 60 50 40 34 32 35 44 63 83 87 90 91 93 94 93 92 92 93 92 88 84 81
89 72 64 52 45 43 48 43 33 31 32 32 31 30 28 25 22 21 22 27 54 85 98 100 100 100 100 100 100 100 100 100 100 99 96 93 93 95 96 96 96 96 99 97 96 95 91 88 83 76 68 58 52 50
52 52 57 57 58 53 43 37 36 40 42 43 43 42 39 36 30 25 22 22 24 22 22 30 56 82 96 100 100 100 100 100 100 100 100 100 100 100 100 100 100 99 96 92 84 77 70 63 54 45 41 43 52 61
78 69 64 60 58 57 59 63 64 62 58 54 53 51 46 48 46 42 38 35 35 36 36 36 36 25 25 44 59 77 92 98 100 100 100 100 100 99 96 93 84 70 59 50 45 41 38 36 38 45 59 74 84 82
90 86 82 79 78 76 72 66 62 58 54 50 46 43 39 37 36 30 28 29 28 27 25 24 27 29 30 24 17 18 29 39 49 63 63 66 65 60 51 40 37 33 30 29 28 29 41 60 67 66 66 68 69 71
49 41 35 35 35 33 32 32 31 30 30 33 36 34 34 32 30 31 30 31 30 30 29 28 24 19 18 19 21 19 16 15 15 18 26 20 16 17 18 18 14 14 15 20 31 46 57 63 67 71 76 80 75 60
32 33 36 35 39 41 46 51 53 52 49 50 51 50 45 40 33 28 26 26 24 22 18 16 15 19 20 17 15 16 18 18 14 13 13 13 14 14 12 12 20 31 45 56 63 69 76 81 79 63 45 39 38 35
62 62 63 65 68 66 60 55 51 46 43 38 32 28 26 24 20 16 15 16 16 13 11 10 9 8 8 10 16 16 14 16 16 14 12 12 12 12 20 48 61 66 72 80 83 76 54 42 38 34 25 20 20 22

GFSWCAN_500_rhum_069.txt.gz
RH
98 97 98 98 97 96 92 81 70 66 54 46 31 16 12 12 13 14 14 12 14 10 6 4 5 6 22 37 55 72 63 100 68 38 27 26 26 36 32 55 82 56 52 45 39 40 38 42 38 50 73 78 80 50
98 99 100 97 98 98 95 92 75 58 44 31 17 12 10 12 12 10 12 13 15 9 6 6 10 15 15 33 54 99 69 100 100 86 28 27 26 36 39 34 56 82 70 64 63 57 52 46 44 52 57 67 60 52
100 99 99 99 97 100 97 85 56 34 38 20 10 9 7 7 7 7 16 16 12 10 7 17 59 57 27 24 39 86 99 99 100 98 65 37 28 34 39 33 37 33 39 63 73 65 62 56 59 52 52 53 55 53
98 100 100 100 100 99 88 55 32 29 33 25 20 8 8 7 7 9 12 11 9 7 4 45 66 52 53 39 66 100 100 97 99 100 99 59 29 32 40 39 37 39 29 29 32 52 70 73 69 58 52 51 52 53
99 99 100 100 73 71 73 77 55 36 36 14 17 8 8 9 8 8 11 12 9 6 6 62 52 62 55 59 88 100 100 93 100 100 99 98 80 42 37 38 45 40 33 28 28 29 38 44 50 60 64 62 55 52
99 98 100 97 98 99 98 56 24 15 12 11 10 9 13 10 7 9 10 14 10 6 12 81 70 58 38 32 29 70 100 70 82 98 96 100 100 94 70 45 57 49 37 32 28 26 22 22 25 37 40 49 60 58
100 100 100 100 99 100 97 49 19 18 25 21 17 19 11 8 7 10 12 14 7 40 89 75 67 68 54 40 21 17 43 100 89 100 100 99 100 100 85 70 73 55 40 30 26 20 18 18 17 16 18 34 48 52
100 100 100 99 98 85 62 53 26 18 17 28 28 20 21 15 12 10 11 9 16 86 75 85 71 71 86 67 48 15 12 36 99 100 100 100 100 96 76 93 100 81 47 38 28 24 23 21 17 16 17 16 26 52
100 100 98 96 99 93 66 20 27 34 26 31 26 19 13 10 11 10 9 9 57 92 76 89 65 83 84 81 80 44 8 9 33 100 100 100 99 85 81 100 100 88 66 52 40 31 31 30 21 20 16 13 19 35
100 100 99 98 81 69 85 55 24 27 20 13 10 9 8 10 10 12 12 45 86 82 92 100 78 96 99 93 90 100 67 84 31 100 100 90 64 93 100 100 97 77 78 59 45 44 40 35 29 23 20 20 29 30
100 100 94 95 78 56 39 21 17 14 11 10 9 8 9 11 18 21 46 93 92 69 89 100 99 97 99 100 100 100 99 100 99 93 72 76 100 99 90 93 90 73 76 71 62 51 45 38 39 42 48 54 52 43
100 94 86 63 41 27 21 16 17 16 12 10 9 8 9 34 49 60 92 100 97 90 100 100 100 100 99 93 97 100 100 98 97 97 92 100 100 87 86 83 84 80 75 64 50 58 77 93 88 85 77 77 79 69
92 68 44 43 35 19 19 19 16 14 10 8 9 19 68 77 70 78 100 100 96 100 100 100 100 100 100 98 100 99 100 100 100 100 100 100 95 91 83 69 63 59 77 97 100 100 100 100 100 97 96 93 89 86
91 54 39 21 21 20 17 15 14 12 8 18 35 60 86 74 81 100 100 100 100 100 100 100 100 100 99 100 100 100 99 100 100 100 100 100 100 100 100 100 100 100 100 100 100 100 100 100 100 100 100 100 100 100
49 30 26 21 20 16 14 12 11 10 21 48 90 72 73 97 100 100 100 100 99 100 100 100 100 100 100 100 100 100 100 100 100 100 100 100 100 100 98 100 100 100 100 100 100 100 100 100 100 100 100 100 100 100
29 23 20 18 16 14 10 13 24 29 45 89 70 75 98 100 100 100 100 99 98 100 100 100 100 100 100 100 100 100 100 100 100 100 100 100 97 90 82 80 77 80 98 99 99 100 100 100 99 98 100 99 100 98
25 22 17 16 14 9 10 23 60 65 85 68 80 100 100 100 98 100 94 100 100 100 100 100 99 100 98 100 100 100 100 100 86 96 95 81 60 55 56 55 54 56 63 59 60 55 52 45 36 32 30 27 26 26
20 18 16 12 9 8 20 53 59 64 66 86 100 96 100 94 81 87 76 86 97 100 100 99 86 93 97 100 100 100 100 94 74 70 65 69 65 64 63 55 48 47 46 43 47 46 40 36 34 32 31 29 25 17
14 11 10 8 16 32 53 72 70 73 100 100 99 90 86 89 95 94 81 67 83 99 98 86 80 82 98 100 100 100 100 81 72 66 70 72 66 61 54 54 52 48 38 18 20 32 33 35 36 34 32 28 15 14
10 9 8 14 68 60 70 76 79 94 100 90 80 82 92 96 92 84 66 53 52 66 99 90 75 79 88 100 100 99 100 97 74 66 65 66 61 55 54 55 52 51 27 13 14 18 24 29 28 25 22 20 15 15
9 15 42 82 100 96 94 96 100 99 75 74 83 88 95 95 77 54 47 47 44 55 94 100 100 84 83 88 97 92 89 98 100 93 74 62 60 59 56 57 54 55 28 24 23 19 15 13 13 14 14 13 15 14
46 85 100 100 100 100 100 100 100 99 85 84 74 59 50 44 37 34 41 47 61 71 68 96 86 86 93 92 96 86 83 85 90 93 87 77 65 60 63 61 59 62 41 20 29 29 27 25 24 23 22 22 22 23
99 99 100 100 100 100 100 100 100 90 64 67 62 59 58 57 56 55 58 66 67 76 81 91 93 88 99 100 99 96 91 85 91 90 82 76 71 71 70 68 60 62 57 22 18 21 24 25 25 25 25 24 24 24
100 100 100 100 100 100 100 100 90 87 86 78 68 63 63 64 71 77 83 92 95 98 99 100 100 100 100 100 100 100 100 100 96 95 96 91 85 80 79 74 63 63 60 31 20 21 27 33 53 73 80 82 81 79
100 100 100 100 100 100 100 100 100 99 80 72 72 69 71 71 79 82 86 94 99 100 100 100 100 100 100 100 100 100 100 100 100 100 95 95 91 83 75 70 66 62 50 29 22 24 30 43 63 77 79 80 84 86
100 100 100 100 100 100 100 100 87 64 51 36 28 27 26 27 33 53 75 83 94 100 100 100 100 100 100 100 100 100 100 100 100 100 97 93 90 86 81 72 60 48 36 29 28 30 50 78 86 88 88 88 88 88
100 100 100 100 100 100 99 81 54 40 32 30 31 32 32 31 29 25 22 22 26 33 60 83 97 100 100 100 100 100 100 100 100 100 100 99 94 84 76 70 64 58 57 64 81 90 93 95 94 92 90 86 81 74
100 100 100 95 93 63 44 38 35 34 34 35 37 40 41 42 40 37 35 33 31 29 28 27 29 36 50 73 87 99 100 100 100 100 100 100 100 100 100 100 100 100 100 99 100 100 100 99 94 84 69 55 44 34
100 88 70 56 56 56 54 53 52 49 47 44 44 47 50 52 52 48 44 42 39 36 35 34 31 26 27 28 27 28 37 60 84 94 99 100 100 100 100 100 100 100 100 100 98 94 81 62 46 36 28 22 18 17
85 76 76 77 75 66 63 62 58 56 54 53 51 50 53 53 49 44 41 37 35 32 30 27 26 23 21 18 20 22 23 24 23 29 38 48 54 67 78 79 77 75 70 63 50 35 21 19 19 18 18 20 27 40
94 90 89 85 77 67 59 53 46 34 26 22 22 23 23 22 22 26 31 41 36 30 24 22 21 19 18 16 15 15 19 23 22 20 19 19 18 19 24 26 30 32 27 24 23 23 20 16 15 21 35 48 56 64
86 75 61 44 32 29 27 25 23 21 18 17 17 16 17 20 20 21 33 39 37 36 38 35 32 32 29 24 19 17 15 14 13 16 19 19 17 17 17 15 13 12 12 13 14 15 20 30 44 57 70 74 66 51
38 36 34 33 32 28 26 24 24 25 28 32 37 44 47 48 43 37 33 26 20 16 14 14 14 18 22 25 24 22 19 16 14 12 10 9 13 14 14 14 13 11 11 12 20 38 53 68 75 67 53 42 30 24

GFSWCAN_500_rhum_072.txt.gz
RH
98 96 97 99 99 92 95 96 91 96 87 78 73 64 56 58 37 27 25 16 16 14 9 9 7 6 6 11 13 54 84 64 78 100 99 60 30 29 29 35 39 71 82 57 53 49 41 52 45 57 58 70 79 68
97 97 99 98 96 98 97 91 94 92 87 81 73 65 61 50 38 34 22 17 22 23 16 12 6 6 7 23 34 41 76 76 99 99 100 100 72 28 33 36 37 42 82 73 68 57 54 53 48 48 45 66 89 82
98 98 96 96 97 97 97 98 96 95 84 78 72 65 60 53 45 36 18 21 27 24 16 10 8 5 8 55 59 50 68 75 99 100 100 100 85 60 30 32 47 44 46 74 88 82 73 70 69 61 57 60 67 83
97 97 96 97 98 98 97 97 99 93 84 75 71 73 58 40 34 25 27 31 22 16 14 10 6 6 50 56 54 56 63 66 98 100 100 100 99 94 53 34 35 48 43 38 36 50 72 78 76 68 65 62 59 61
96 94 97 98 98 97 98 98 97 86 87 89 80 62 26 38 38 36 34 19 14 15 9 6 4 35 64 60 48 38 64 70 90 100 99 100 98 100 96 46 32 42 47 42 37 28 28 40 64 77 75 68 58 52
96 97 98 99 97 99 100 100 96 99 94 88 65 22 25 40 46 33 20 19 15 10 6 5 29 66 78 75 67 39 32 98 92 89 100 100 100 100 94 88 52 51 47 45 39 30 32 34 35 40 44 46 54 61
98 97 99 98 97 99 98 100 100 100 93 75 65 39 43 55 42 18 21 14 11 7 5 14 63 70 76 94 75 58 29 26 89 81 86 100 100 100 84 82 100 83 52 51 42 32 30 26 25 22 21 22 22 27
98 98 97 96 99 100 100 100 100 98 94 59 36 53 39 37 22 15 13 10 7 6 8 60 72 71 82 91 72 75 36 15 21 93 64 100 100 97 74 98 100 96 81 62 48 36 27 22 21 22 20 19 18 17
97 96 97 98 100 100 100 98 100 96 55 66 45 35 24 15 12 10 9 8 7 18 60 85 78 66 84 83 82 100 96 30 10 37 100 100 100 88 81 100 99 98 98 84 58 41 32 27 28 26 21 20 18 15
97 98 100 98 99 99 100 100 98 94 61 42 34 20 16 11 9 8 8 8 12 90 92 84 91 86 94 84 96 95 100 100 40 18 82 100 100 100 96 100 93 94 96 90 81 53 42 38 37 33 34 30 25 23
100 99 100 100 100 100 100 100 87 52 42 36 20 14 10 8 7 7 9 14 45 86 86 100 100 100 100 100 100 98 100 100 100 86 99 100 100 100 95 90 97 97 88 84 81 70 54 46 38 37 40 37 35 29
99 100 100 100 100 100 92 69 56 48 31 20 17 13 7 6 7 7 15 64 76 100 100 100 100 100 100 98 100 100 100 100 100 100 100 100 97 83 84 95 99 94 86 76 76 73 66 60 58 53 44 38 46 50
99 100 100 100 100 90 78 62 38 28 21 17 12 11 8 8 7 14 35 90 96 100 99 100 100 100 100 100 100 100 99 100 98 100 100 94 86 86 84 86 85 79 76 73 69 67 64 56 62 85 90 91 99 94
100 100 100 100 99 89 62 43 29 22 17 14 11 8 9 8 17 32 84 99 100 100 99 89 100 100 100 100 100 100 100 100 100 100 98 91 89 87 89 87 88 86 71 80 85 97 100 100 95 97 96 99 100 100
100 100 100 100 85 63 54 40 24 17 16 13 11 12 10 18 47 85 96 100 96 97 100 99 100 97 100 100 100 99 100 100 99 98 85 97 100 100 100 100 100 100 100 100 100 100 100 100 100 100 100 100 100 100
100 97 100 90 73 56 30 20 18 12 10 9 13 15 31 63 93 96 91 91 90 97 96 100 100 99 100 97 100 100 100 100 100 100 100 100 100 100 99 99 100 98 100 100 100 100 100 100 100 100 100 100 100 100
96 100 91 77 47 23 15 14 12 11 8 19 37 62 80 88 81 73 79 87 93 89 99 97 94 99 96 98 100 100 100 100 100 100 100 100 89 87 75 64 58 54 57 70 78 72 84 96 98 94 61 39 34 31
88 80 44 20 20 17 15 11 10 8 10 41 48 65 74 75 67 62 74 95 81 81 99 100 86 84 85 89 98 88 99 100 100 100 98 95 78 70 62 57 57 55 50 49 47 43 47 51 46 42 38 36 34 33
44 26 19 16 15 14 11 9 8 10 30 74 68 61 66 78 75 81 89 91 76 75 98 99 91 82 94 95 96 93 97 100 100 100 96 81 72 74 64 60 60 58 58 56 53 30 15 17 29 36 38 38 37 30
18 18 18 14 11 10 9 9 29 51 55 66 68 54 56 86 99 94 92 91 80 50 46 80 100 98 97 99 94 93 86 84 99 100 100 88 74 77 71 63 60 56 57 56 57 31 23 17 17 18 26 28 26 24
16 14 11 10 10 9 12 22 68 61 67 88 90 78 84 100 100 96 98 93 64 56 46 37 44 85 95 98 96 92 93 83 81 96 100 98 84 69 65 63 60 56 56 55 60 61 26 33 33 27 20 15 17 18
12 10 9 9 15 43 73 68 71 80 78 79 86 99 100 98 89 87 87 77 46 37 26 35 37 32 72 99 100 100 94 96 91 81 85 97 100 92 84 76 69 61 57 56 57 66 57 22 29 28 28 28 25 23
9 10 17 65 100 100 91 94 90 96 93 97 100 100 88 72 59 52 38 34 30 31 31 39 50 56 56 82 100 100 100 100 97 97 89 84 88 92 90 84 78 69 61 61 67 65 64 54 20 20 24 29 31 32
41 93 100 100 100 98 95 100 100 100 100 100 100 89 72 63 57 53 50 48 52 64 75 82 85 85 89 98 100 100 100 100 100 100 95 91 86 83 86 87 85 75 68 69 72 70 64 58 36 21 22 26 34 49
100 100 100 100 98 100 100 100 100 100 100 100 99 83 73 64 66 63 63 61 62 68 80 90 96 100 100 100 100 100 100 100 100 100 100 95 92 90 88 84 80 83 85 85 81 77 68 56 42 26 23 26 34 52
100 100 100 99 100 100 100 100 100 100 100 96 62 40 38 33 33 38 46 59 64 66 80 88 93 98 100 100 100 100 100 100 100 100 100 99 99 99 98 96 93 88 90 86 80 74 66 55 42 33 29 37 57 76
98 97 100 100 100 100 100 100 100 100 84 41 29 28 30 30 31 30 27 23 22 24 25 36 54 75 92 100 100 100 100 100 100 100 100 100 100 100 100 100 99 99 94 88 83 79 76 73 71 70 76 80 84 89
100 100 100 100 100 100 100 100 100 96 85 58 37 32 35 39 42 42 42 40 38 38 40 40 38 35 31 31 36 46 59 75 89 96 100 100 100 100 100 100 100 100 100 100 100 100 98 98 99 97 95 93 90 89
100 100 100 100 100 100 100 97 89 65 45 38 36 36 39 43 46 48 48 49 48 47 48 48 44 36 33 31 28 27 26 25 24 27 29 43 68 88 98 100 100 100 100 100 100 100 100 100 99 94 87 74 60 43
100 100 100 96 94 88 82 84 84 86 75 64 58 55 54 52 50 46 43 43 42 39 37 35 33 31 30 28 26 24 22 21 19 18 18 22 28 27 27 35 49 58 56 64 69 72 75 65 56 44 37 31 28 27
100 100 100 100 100 98 98 96 92 84 69 56 49 41 35 32 28 28 27 27 27 26 26 26 24 22 22 21 21 20 21 22 21 18 18 16 15 16 20 22 22 20 20 23 22 29 37 36 35 33 25 19 15 14
100 100 100 100 100 88 75 60 46 37 33 32 30 27 22 21 20 20 20 20 20 20 19 18 17 19 20 18 19 19 18 20 20 19 20 21 20 16 14 15 16 16 15 15 15 14 15 16 15 13 12 11 18 31
98 94 86 72 59 49 42 35 32 30 28 25 24 27 30 34 32 28 23 21 18 15 13 13 13 13 15 18 23 22 19 17 16 14 12 12 15 16 16 14 12 11 10 11 12 12 12 12 12 12 21 47 67 68

GFSWCAN_500_rhum_075.txt.gz
RH
97 96 97 97 92 99 93 99 92 84 86 98 84 78 74 63 61 70 64 53 53 49 36 39 33 23 15 5 7 19 42 60 88 100 96 100 100 63 44 46 44 38 37 42 73 64 65 71 61 61 62 58 68 71
98 98 96 97 98 96 99 98 94 89 95 96 89 87 72 65 74 71 62 50 43 47 47 38 24 18 10 7 16 54 95 74 88 100 92 92 92 100 62 38 45 40 38 52 73 61 60 55 46 54 52 55 62 73
97 97 95 99 100 98 98 96 93 96 95 91 91 86 85 82 77 73 64 52 48 43 40 29 19 16 8 8 26 58 78 75 45 75 78 92 100 95 99 66 44 40 40 37 63 73 66 57 54 56 52 58 53 81
98 99 98 98 98 97 97 95 94 97 92 96 98 96 88 84 81 68 60 57 51 44 30 24 22 11 7 24 58 65 63 57 50 50 62 80 100 95 87 100 63 40 42 42 47 80 84 78 73 67 62 57 58 69
98 97 100 98 97 96 96 95 95 96 98 100 98 98 94 85 89 70 64 62 46 32 31 20 11 10 18 70 76 69 48 40 48 60 44 68 100 100 88 100 87 44 43 48 45 46 36 44 67 77 75 66 62 61
98 100 99 98 96 96 96 96 97 97 99 98 100 95 89 92 85 70 55 40 31 27 21 10 10 14 63 78 75 65 56 38 28 56 56 78 100 100 96 94 100 98 58 48 49 44 36 36 31 34 46 74 79 74
97 97 97 97 94 90 96 97 96 97 100 100 98 94 91 92 57 21 27 26 25 15 10 10 14 30 69 71 77 71 75 61 32 31 81 76 99 99 90 70 99 98 94 61 49 52 43 37 32 29 33 41 49 50
97 98 99 95 96 98 97 97 96 100 100 96 90 97 92 55 17 11 18 21 14 13 10 11 27 70 82 74 90 93 76 97 77 22 69 100 100 93 83 76 91 100 90 75 55 50 52 43 40 35 32 34 31 25
98 98 96 97 98 97 97 97 100 100 99 96 100 93 74 30 19 17 14 14 10 10 9 22 66 89 71 77 100 87 83 94 100 48 17 73 86 80 95 99 97 100 100 95 82 73 56 52 42 34 28 25 21 21
97 96 97 97 98 95 98 100 100 100 98 100 100 72 29 20 13 12 11 12 12 8 25 81 98 87 74 80 86 72 91 87 100 99 16 54 99 96 100 100 100 100 99 98 94 86 82 61 48 37 33 30 28 24
96 98 98 97 97 99 100 100 99 99 100 100 76 42 24 19 16 14 12 9 7 8 47 87 99 99 91 79 74 82 84 85 100 97 80 46 99 100 100 95 98 98 97 95 92 93 92 86 72 47 39 39 36 34
97 97 97 99 100 100 99 100 100 100 97 74 44 29 26 20 14 10 8 6 6 20 90 100 94 92 97 93 90 89 92 99 100 100 100 100 100 100 100 99 86 90 92 94 100 96 83 78 78 69 54 46 44 42
98 100 100 100 100 98 98 100 100 96 85 50 40 29 22 17 10 6 6 6 11 44 92 100 92 81 99 86 92 95 100 100 100 100 100 95 100 100 100 97 95 97 98 100 95 83 74 69 68 69 67 62 58 54
100 100 100 100 99 100 100 100 100 88 64 51 40 24 16 14 12 8 6 8 30 78 96 100 98 83 85 91 92 97 100 100 100 100 100 95 93 88 89 91 91 91 88 81 76 75 73 69 63 60 73 89 89 85
100 100 100 100 100 100 100 100 89 74 60 45 26 17 16 11 8 8 10 51 92 90 84 95 100 90 86 91 83 93 100 100 100 100 92 95 100 100 100 100 100 100 100 100 100 97 90 93 99 97 88 84 80 86
99 100 100 100 100 100 100 99 90 72 51 35 19 14 10 8 10 14 56 84 80 78 72 86 100 100 96 87 74 76 87 100 100 98 94 100 100 100 100 100 100 100 100 100 100 100 100 100 100 98 98 99 100 100
100 100 96 96 100 100 100 96 81 61 52 30 12 10 10 10 19 55 75 67 75 69 76 94 100 100 84 77 74 75 80 90 94 100 100 100 100 100 100 100 100 93 82 71 70 73 78 81 90 100 100 100 99 95
100 100 98 100 100 100 98 80 63 43 24 14 10 12 15 37 63 66 60 64 70 80 90 94 100 95 81 73 66 76 85 85 93 90 93 100 100 100 98 90 82 76 63 59 60 56 52 44 41 69 81 62 73 54
100 100 100 100 100 98 79 61 38 21 15 11 12 15 22 41 58 62 74 91 90 84 93 80 88 100 96 80 74 78 89 92 80 78 90 99 100 100 87 80 74 69 64 63 62 62 61 45 24 17 14 23 40 41
100 100 100 99 94 85 64 44 21 14 10 11 16 35 64 59 56 58 61 93 86 88 95 84 63 78 97 98 86 90 94 94 96 92 87 99 100 100 94 93 82 76 73 70 67 63 63 62 46 30 26 19 17 18
100 100 93 85 65 33 21 22 14 9 10 15 34 61 72 82 66 59 75 97 89 97 100 90 52 31 39 88 97 100 100 100 100 96 94 97 100 100 99 88 84 80 73 67 61 62 58 59 63 64 30 35 33 24
89 77 52 47 29 32 27 13 9 14 22 39 66 81 80 82 82 84 90 87 98 99 98 96 57 39 35 36 47 90 98 100 100 100 98 96 100 100 100 98 86 80 74 68 74 72 60 60 64 66 71 39 23 24
38 25 22 25 24 16 11 14 22 48 66 91 98 86 83 78 72 87 89 89 85 86 81 58 36 24 22 28 43 41 57 91 98 99 100 100 98 94 95 96 99 100 99 97 95 83 74 65 65 67 67 66 47 21
26 20 19 15 13 11 13 29 79 98 100 100 100 100 100 97 93 94 95 85 57 40 34 30 27 31 39 52 63 62 60 64 85 100 100 100 100 100 100 94 89 86 86 90 91 89 81 75 70 69 70 67 59 44
16 13 12 11 13 21 53 96 100 100 100 100 100 100 100 100 98 99 74 57 47 41 38 44 49 51 63 80 92 100 100 100 100 100 100 100 100 100 100 100 100 100 99 94 85 84 78 72 72 71 71 69 63 54
12 14 20 34 54 82 94 97 100 100 100 100 100 100 100 99 99 77 58 49 47 46 46 47 57 70 79 91 98 100 100 100 100 100 100 100 99 99 99 99 100 100 100 98 96 90 86 85 81 76 75 72 67 63
36 45 74 96 100 100 100 100 100 100 100 100 100 100 94 65 35 28 28 29 30 30 28 26 26 31 39 47 64 85 93 95 100 100 100 100 100 100 100 100 100 100 99 96 92 90 86 82 81 81 80 76 72 75
92 100 100 100 100 100 100 100 100 100 100 100 98 76 51 36 32 35 38 40 41 41 40 39 36 34 33 35 35 33 31 32 37 50 58 67 83 93 100 100 100 100 100 100 100 100 100 100 100 98 98 95 91 94
100 100 100 100 100 100 100 100 100 100 100 100 97 92 75 61 50 41 40 42 44 47 49 48 46 42 41 38 35 34 32 31 30 31 33 34 30 24 26 30 44 70 91 99 99 98 95 94 97 98 96 94 94 93
100 100 100 100 100 100 100 100 100 100 100 97 85 73 77 81 69 58 52 49 45 43 40 34 32 31 29 30 33 33 32 33 32 30 28 27 27 26 23 19 16 15 17 25 39 42 26 25 33 36 44 46 48 48
100 100 100 100 100 100 100 99 99 98 98 96 94 90 86 76 64 52 43 37 34 32 29 28 27 28 29 28 26 24 26 25 24 24 23 22 24 24 20 18 18 17 15 15 14 16 22 26 27 24 21 22 24 22
100 100 100 100 100 100 98 96 93 87 78 76 65 47 38 36 37 36 30 27 25 24 22 21 20 19 18 19 19 18 17 17 19 22 21 19 18 18 17 16 13 13 12 13 14 14 12 13 14 14 13 12 12 12
100 100 99 98 95 88 83 81 79 67 50 40 32 26 23 21 21 21 19 18 16 15 13 12 12 11 11 12 14 15 16 15 14 14 13 12 12 13 13 13 13 12 11 10 14 16 15 12 11 11 9 9 10 11

GFSWCAN_500_rhum_078.txt.gz
RH
97 98 97 98 98 98 97 100 97 97 94 94 87 88 88 95 79 74 68 70 65 64 51 47 36 27 24 20 13 11 27 60 50 54 78 99 94 92 99 96 90 76 67 49 49 64 62 84 87 76 64 65 63 60
96 97 95 96 96 98 97 100 98 97 95 96 90 88 96 91 81 74 72 57 52 56 57 43 29 27 23 17 12 15 37 53 72 75 91 100 100 92 100 99 77 63 67 53 50 55 72 70 63 68 67 58 63 60
96 95 85 100 97 97 96 97 98 97 97 95 94 92 94 91 86 83 65 59 50 39 45 29 30 28 23 12 9 22 48 64 75 74 74 95 100 94 96 100 99 60 56 51 48 67 79 71 63 60 48 54 54 58
97 96 90 96 97 97 96 96 98 99 97 95 94 95 95 93 94 79 74 61 49 41 32 34 32 27 18 10 11 44 57 73 67 64 61 45 91 98 77 82 88 91 49 43 44 62 76 80 71 64 55 56 56 60
97 94 97 98 99 98 96 98 100 100 96 96 95 95 97 100 91 83 69 64 50 38 32 32 28 23 12 10 24 57 61 59 56 56 47 57 43 72 75 79 94 100 96 51 51 54 60 86 82 83 80 76 70 66
97 97 97 100 98 97 97 98 100 99 96 96 96 97 99 100 91 85 74 52 45 40 30 34 27 15 9 12 37 59 72 71 65 62 48 36 47 46 50 58 100 100 99 81 40 42 52 56 51 45 49 77 85 76
98 84 97 98 97 98 98 97 98 97 96 97 97 98 100 94 87 84 61 42 40 39 38 29 17 8 12 34 54 66 76 65 75 68 69 29 46 43 23 37 93 100 100 98 62 42 43 47 48 46 40 36 40 54
92 99 96 97 97 98 98 97 97 96 96 97 98 100 95 92 83 82 40 32 40 44 34 18 10 8 20 44 62 69 68 71 82 95 74 41 23 56 34 72 100 100 100 100 91 60 50 52 54 48 44 40 41 42
96 96 98 98 98 98 98 97 98 96 99 98 100 98 99 93 94 43 30 34 37 28 13 9 7 12 38 52 61 77 73 61 78 82 56 26 28 56 61 100 100 100 100 98 99 97 88 68 63 56 49 47 42 36
98 98 98 98 97 98 97 97 97 99 99 100 99 99 92 89 64 34 33 26 14 9 9 9 6 14 50 60 71 73 68 56 68 100 100 80 18 44 82 96 100 100 80 94 100 100 96 95 90 66 57 52 45 36
97 98 97 99 97 97 99 97 98 99 100 99 100 95 92 64 38 31 29 13 10 11 11 7 8 35 73 75 85 75 60 64 56 99 100 99 96 64 87 100 100 90 75 95 100 100 96 96 99 97 80 66 53 43
97 98 98 97 98 97 97 99 99 99 99 100 97 91 65 41 43 34 19 10 14 14 9 7 18 51 81 82 92 92 81 69 65 100 100 100 100 99 100 95 100 93 92 99 99 100 98 98 96 96 99 97 83 60
98 97 97 95 98 98 100 99 97 99 100 100 94 90 63 52 40 20 9 13 14 10 6 10 41 85 89 80 100 82 76 73 94 100 100 100 100 100 100 100 99 100 100 86 80 85 86 96 89 83 85 92 97 92
96 98 98 98 99 100 99 100 97 99 99 96 99 85 66 50 34 12 8 7 6 6 7 18 70 96 100 100 100 86 75 83 95 95 96 100 100 100 100 100 100 100 89 89 87 86 90 90 86 82 77 74 68 59
98 98 100 100 100 99 98 98 100 99 98 98 98 84 74 62 26 12 8 7 7 9 25 52 85 92 100 99 98 90 83 86 89 87 99 100 100 100 100 100 100 100 100 99 98 96 93 88 86 87 93 99 100 100
100 100 100 100 98 98 100 100 96 94 100 100 98 87 73 29 16 10 8 8 12 33 56 69 84 89 99 99 100 100 93 85 75 80 89 98 100 100 100 100 100 99 98 100 100 100 100 100 100 100 100 100 96 92
100 100 99 98 97 100 100 96 97 98 99 99 88 60 24 17 12 8 8 10 28 66 70 74 68 80 85 94 100 100 90 73 65 79 86 87 97 100 100 100 100 100 100 100 100 91 85 84 85 88 90 96 99 100
100 99 96 100 100 100 99 97 92 89 98 92 60 28 18 14 10 9 10 19 51 65 73 68 72 77 89 91 100 100 100 95 76 73 80 83 88 100 100 100 100 100 95 90 87 74 71 70 63 45 32 27 36 83
99 98 98 100 99 96 99 100 95 96 98 83 32 19 16 11 9 10 14 28 56 74 75 57 65 89 88 85 98 100 100 100 99 97 92 86 76 80 99 100 99 98 96 89 76 69 66 66 68 68 55 33 30 22
99 99 100 100 99 100 100 100 100 99 93 60 40 28 18 10 10 12 24 39 54 60 72 78 93 82 80 60 78 90 100 100 98 100 100 98 93 85 83 99 100 97 96 84 76 72 69 66 64 64 68 67 43 35
100 100 100 100 100 97 96 95 98 88 57 38 33 26 13 10 13 22 45 48 48 52 67 83 82 67 80 89 61 50 84 98 99 98 100 100 100 100 91 82 100 99 96 90 80 78 76 67 67 68 68 73 72 71
100 100 100 99 93 94 87 84 80 56 48 42 31 14 11 15 27 45 62 72 53 66 68 81 83 87 95 100 78 48 40 42 73 96 93 100 100 100 100 100 100 100 100 96 93 91 79 74 75 80 78 70 69 73
100 99 98 94 90 89 80 67 54 49 45 28 16 12 14 28 57 66 67 66 67 72 79 77 77 82 86 79 57 28 28 31 35 42 60 96 100 100 100 100 100 100 100 100 100 100 97 95 100 96 86 82 74 65
100 96 93 89 81 71 59 48 41 30 20 12 13 20 54 88 86 77 78 70 63 69 84 80 54 40 36 29 25 26 30 38 47 51 52 56 62 92 100 100 100 100 100 100 100 100 100 98 98 92 85 85 80 74
83 71 72 65 52 41 28 17 14 14 15 22 44 84 93 88 81 74 81 87 82 87 68 54 48 36 31 32 36 40 48 63 77 92 94 89 82 78 89 100 100 100 100 100 99 100 100 99 95 89 82 78 76 72
56 45 43 41 33 22 16 17 21 30 53 89 94 93 91 79 89 100 100 100 98 81 66 56 47 40 36 40 47 54 65 79 89 94 97 100 100 100 100 100 100 100 100 99 99 98 99 99 97 97 93 89 84 81
29 29 23 19 16 15 17 35 61 88 99 94 85 88 91 98 100 100 97 83 55 33 26 28 30 30 28 29 33 36 44 52 55 72 86 95 99 100 100 100 100 100 100 99 98 99 100 99 98 99 99 94 88 83
22 19 18 21 23 36 53 80 87 88 83 84 95 100 100 100 93 70 45 28 27 32 39 42 41 41 41 39 38 36 33 30 28 30 32 32 32 48 67 76 89 95 100 100 100 100 100 100 100 100 100 100 100 100
27 33 38 54 67 81 85 84 85 96 100 100 100 100 100 85 54 44 45 50 59 60 52 44 43 42 42 37 32 28 27 27 28 30 32 34 36 29 21 22 23 27 29 32 33 46 68 86 93 84 73 67 66 65
74 76 85 86 86 93 98 100 100 100 100 100 100 100 97 96 98 91 81 70 63 66 62 56 50 43 37 34 32 31 29 27 27 25 21 24 30 31 32 31 28 26 24 22 20 19 18 18 16 16 32 41 40 39
100 100 100 98 100 100 100 100 100 100 100 100 100 100 100 100 99 99 98 93 75 56 47 41 38 35 34 27 18 15 17 18 18 19 19 20 22 23 25 26 28 28 28 27 24 20 15 13 13 15 15 13 14 14
100 100 100 100 100 100 100 100 100 100 100 100 100 100 100 97 69 50 43 43 45 45 42 32 25 20 17 15 14 13 12 12 14 14 14 13 14 14 14 16 20 21 21 23 23 21 20 18 15 12 11 12 15 15
100 100 100 100 98 96 100 100 100 100 100 99 87 70 60 54 49 45 37 29 24 22 20 18 16 13 11 10 12 15 19 24 25 23 18 14 12 11 10 10 10 13 15 16 16 18 18 15 12 11 10 10 11 15

GFSWCAN_500_rhum_081.txt.gz
RH
86 99 95 98 98 96 97 98 98 97 97 95 92 98 96 92 88 97 92 90 81 78 64 54 43 34 28 24 22 14 9 15 29 32 32 74 32 74 94 95 100 100 98 90 87 85 71 76 92 93 81 75 77 66
81 98 97 99 98 94 97 97 96 96 97 97 97 96 95 87 88 96 97 94 95 82 69 54 40 35 28 25 18 9 11 24 43 53 41 82 72 76 66 78 100 99 99 98 77 68 57 61 84 81 76 80 71 68
86 100 100 86 93 97 98 98 97 97 96 99 96 97 97 90 95 94 95 88 92 83 63 46 39 33 28 22 14 8 16 32 45 51 53 42 77 100 100 72 84 100 100 84 71 70 59 58 74 78 64 68 70 56
88 99 100 98 97 100 99 98 96 97 96 99 98 97 98 97 94 95 89 77 76 73 52 42 38 30 26 19 12 8 15 42 54 45 50 52 41 63 86 86 70 97 100 95 66 66 58 52 52 72 66 62 51 53
83 95 98 98 98 96 97 97 96 97 98 99 97 96 92 96 97 96 92 83 74 64 52 40 33 29 22 17 10 8 15 43 61 50 63 56 55 43 54 71 65 77 94 98 93 58 46 45 45 66 77 76 79 70
95 100 96 98 96 97 98 96 96 97 98 98 97 93 94 97 95 84 86 79 69 60 42 36 32 24 21 15 9 11 24 46 57 58 71 78 68 51 39 25 56 74 58 79 100 82 48 44 41 46 81 87 85 81
79 100 99 96 99 100 97 97 97 95 98 97 95 100 96 98 89 91 77 75 71 55 40 36 30 23 22 15 8 18 45 55 55 57 86 95 57 37 34 40 49 46 69 100 98 100 95 55 43 53 56 54 46 46
54 86 98 100 97 98 97 97 97 99 98 98 97 96 97 95 91 84 82 82 63 48 42 34 28 26 20 10 10 31 56 54 74 73 84 93 96 25 27 38 48 50 65 100 96 100 100 95 52 44 51 51 47 41
55 72 97 98 97 96 100 98 98 98 97 99 96 94 98 94 93 82 86 72 52 44 35 30 31 26 13 9 19 49 63 60 75 78 74 83 94 50 28 35 47 25 47 81 100 100 100 94 72 67 66 65 56 49
97 96 96 100 98 97 97 98 98 99 100 98 91 99 95 96 90 91 79 53 52 42 34 34 28 14 8 10 33 63 64 67 71 66 59 73 77 94 51 54 45 52 86 90 94 100 100 100 100 100 93 81 72 60
98 88 95 98 98 98 98 99 98 96 95 94 100 97 96 97 95 88 59 52 40 31 32 20 10 12 8 14 46 84 70 60 62 54 60 74 73 84 95 67 79 80 98 100 100 94 99 100 100 99 100 100 98 85
98 98 100 99 100 99 99 99 94 95 96 99 98 97 97 97 98 70 55 42 29 30 12 18 14 7 7 27 67 86 85 80 73 60 80 94 95 100 100 100 100 100 100 100 89 90 99 100 100 100 100 100 100 100
98 97 98 100 99 99 96 95 96 98 100 97 99 99 95 96 90 68 63 36 26 22 11 9 12 6 10 35 78 87 92 97 82 66 68 78 95 100 100 100 87 100 100 92 95 100 100 96 90 99 100 100 99 98
98 99 99 98 96 95 96 98 100 100 97 99 100 100 96 97 93 90 70 35 21 7 12 13 8 9 19 43 78 84 92 92 94 83 73 75 85 99 100 100 100 89 78 85 96 100 94 93 98 89 93 93 86 84
97 98 98 97 95 97 100 100 99 97 99 99 100 100 99 97 93 84 52 14 7 10 13 6 8 17 50 61 67 89 95 98 92 84 82 86 82 90 100 100 100 100 100 100 100 100 100 97 92 88 86 85 81 76
96 96 98 99 99 100 100 98 97 100 100 100 100 100 98 92 89 66 21 11 9 13 13 9 17 39 60 75 74 78 92 98 88 88 88 93 100 88 95 100 100 99 100 100 100 100 97 98 100 99 99 99 99 100
100 100 99 100 100 98 98 99 92 91 98 100 100 98 97 95 86 40 18 12 13 12 11 10 29 50 60 64 76 86 87 95 95 96 86 89 99 100 98 100 100 98 100 100 100 100 100 97 94 93 85 86 85 84
100 100 99 99 100 97 90 90 94 100 100 100 98 95 96 94 76 44 24 19 9 9 10 15 33 62 65 79 92 87 85 78 81 96 98 88 94 100 97 100 100 100 100 100 100 97 99 92 84 76 68 57 40 31
98 98 99 99 92 95 100 100 99 100 100 100 97 94 99 89 71 65 46 15 9 9 10 21 48 69 74 69 68 61 69 88 78 86 84 93 98 100 100 97 91 100 100 100 99 98 88 81 73 67 66 66 68 68
100 100 100 100 100 100 100 98 100 100 100 100 98 96 95 91 80 57 29 12 9 9 13 25 57 67 67 66 63 78 83 62 83 91 88 88 89 96 100 100 100 97 94 100 100 99 99 86 78 75 76 69 68 70
100 100 100 100 100 98 98 100 98 99 100 100 100 100 98 90 65 38 17 14 12 15 24 54 54 58 57 66 81 82 90 86 51 54 81 84 88 96 100 100 100 100 100 96 100 100 100 96 90 86 86 81 76 81
100 100 100 100 99 95 93 95 99 100 97 100 100 97 86 68 54 30 17 13 12 27 29 56 66 60 60 75 84 78 74 90 86 53 38 42 77 90 96 100 100 100 100 100 100 100 100 100 100 100 96 88 83 90
99 96 93 89 93 88 97 96 100 100 98 96 82 63 48 36 20 13 11 15 22 32 45 61 73 67 74 76 77 78 75 70 65 31 19 19 24 35 44 69 96 100 100 98 100 100 100 100 100 100 100 100 100 97
98 100 100 92 84 87 93 93 94 92 77 54 41 31 25 19 15 13 16 32 49 64 69 70 77 72 81 68 49 42 31 23 17 14 15 17 24 37 51 54 56 68 95 100 98 100 100 100 100 100 100 100 100 100
92 90 83 83 82 83 83 81 62 45 33 22 21 20 17 20 17 23 45 64 71 77 92 100 100 88 70 52 39 31 31 28 24 27 33 35 43 59 76 82 90 89 81 74 84 98 100 100 100 100 99 98 99 99
90 90 87 86 79 65 50 41 38 31 25 22 18 18 22 23 41 63 80 81 84 94 100 100 93 73 55 42 35 34 36 33 30 25 26 40 50 61 72 79 85 94 95 96 97 99 100 100 100 100 99 98 97 98
95 90 77 59 54 42 37 33 27 22 18 17 18 23 34 59 83 89 88 91 98 100 100 81 50 32 26 28 29 29 30 30 31 32 35 45 50 60 66 74 78 87 100 100 100 100 100 100 100 100 100 100 100 100
48 34 28 26 24 25 24 22 20 19 20 25 40 76 86 89 88 98 100 100 100 97 70 37 27 32 39 43 43 41 40 39 39 38 38 40 41 30 25 28 31 34 39 54 77 97 100 100 100 100 100 100 100 100
30 28 28 26 24 22 20 20 23 28 45 68 87 93 92 93 100 100 100 100 89 59 29 28 43 60 65 63 52 43 38 35 32 32 31 31 36 37 32 28 30 31 30 28 29 29 31 39 46 59 70 70 65 62
29 27 25 23 22 26 34 42 54 66 78 80 90 100 100 100 100 100 100 81 65 68 73 79 81 79 78 74 65 55 44 37 34 30 25 20 17 17 17 19 23 25 26 26 24 24 27 28 27 25 22 21 19 17
25 27 31 38 50 59 67 76 78 84 94 100 100 100 100 100 100 100 100 100 99 97 95 93 90 71 56 45 42 38 32 25 20 18 15 13 12 11 10 10 10 10 12 16 22 22 17 18 22 26 26 26 24 18
53 66 71 76 76 72 79 90 95 100 100 100 100 100 100 100 100 100 94 82 77 73 64 58 48 35 26 22 18 13 12 11 10 10 10 11 10 10 10 11 11 11 11 11 12 15 20 22 18 19 24 25 24 23
77 79 81 87 96 98 99 100 100 100 100 100 100 100 100 100 95 80 71 63 54 44 34 28 22 20 18 14 12 10 9 20 37 42 37 27 21 19 20 23 29 34 27 19 14 13 13 14 16 18 17 18 18 20

GFSWCAN_500_rhum_084.txt.gz
RH
98 96 77 97 98 99 96 96 98 96 76 96 97 98 97 96 96 93 96 89 99 92 84 77 72 64 47 34 26 19 15 11 10 20 31 31 31 46 81 100 100 100 100 99 96 80 74 88 82 67 68 74 74 67
98 95 96 89 98 98 98 95 96 74 75 97 98 98 97 97 95 93 95 95 92 78 76 71 70 60 42 31 23 18 13 10 11 30 40 41 37 23 61 80 92 94 88 94 100 98 83 80 74 72 76 77 77 71
97 98 97 83 87 98 97 98 96 96 96 95 96 97 98 99 93 96 96 95 83 75 76 69 67 53 37 30 22 17 12 10 13 35 42 52 52 46 31 40 68 82 100 98 96 100 84 70 59 64 76 78 71 76
98 97 94 95 98 99 98 96 95 97 97 97 97 99 99 97 98 100 96 92 81 71 76 70 63 47 38 27 20 15 11 9 14 39 46 50 65 72 62 67 79 85 100 100 100 100 87 65 56 62 79 79 66 68
96 96 84 91 98 98 98 96 98 97 98 98 97 96 95 99 97 96 96 90 83 70 75 71 59 45 32 24 20 14 11 8 16 37 44 62 68 68 74 66 50 88 92 90 100 98 81 61 58 56 53 78 76 73
97 97 96 98 98 97 97 98 98 98 96 98 97 91 93 95 98 97 94 79 70 74 78 67 53 37 29 24 18 12 8 8 18 38 45 51 54 71 84 56 71 42 73 79 96 95 95 78 59 51 46 47 78 86
97 97 96 88 99 97 98 98 97 97 96 96 96 96 95 94 92 98 89 73 67 72 72 61 42 34 30 22 15 11 7 8 21 35 46 57 49 72 92 44 36 32 49 66 83 89 100 90 84 53 44 45 54 78
97 97 90 93 99 98 98 97 97 97 97 96 96 97 94 94 99 96 96 78 76 75 68 51 41 35 28 18 15 9 6 12 36 43 60 69 52 74 96 38 26 34 27 47 70 57 93 97 95 84 55 43 50 54
97 97 90 96 98 97 94 96 96 98 98 97 97 96 93 97 98 96 94 77 81 70 62 48 41 34 21 18 14 7 7 22 44 52 75 63 50 62 94 47 28 35 34 24 51 89 100 88 86 96 98 57 44 48
97 97 86 96 97 96 98 92 100 98 98 97 97 91 93 100 96 94 92 84 81 72 55 46 41 31 19 18 9 7 11 36 55 55 68 65 58 56 97 58 37 42 46 39 67 100 93 91 97 100 91 63 58 58
97 95 76 94 98 93 93 98 100 98 97 97 98 94 100 98 94 95 98 88 77 65 53 46 40 20 23 15 8 7 13 35 56 67 66 60 62 57 90 92 60 57 61 62 67 97 100 100 100 100 100 100 100 94
97 92 65 65 81 99 100 100 98 98 98 98 97 98 99 96 94 96 100 90 81 64 54 48 29 25 20 11 8 10 16 47 58 67 69 58 62 68 76 100 98 92 91 97 94 98 100 100 100 100 100 100 98 100
98 97 78 59 88 97 95 99 97 97 93 98 99 98 99 94 98 93 90 90 76 71 63 34 25 23 14 10 8 10 25 49 78 82 80 62 58 80 98 98 100 100 100 100 100 100 99 100 100 100 93 90 98 100
97 96 98 98 98 98 100 99 97 98 100 98 99 98 97 97 96 95 91 94 90 86 44 24 28 20 14 8 9 12 24 60 78 87 89 81 88 90 100 100 99 95 97 93 98 98 99 99 98 93 93 89 84 98
95 98 98 100 100 99 99 99 99 97 98 100 98 99 99 98 90 89 92 99 95 55 26 27 29 25 12 10 11 20 35 58 82 85 91 92 96 99 95 100 100 100 100 100 96 98 100 100 98 98 90 93 96 96
100 98 97 100 97 96 100 98 97 100 99 99 98 99 97 86 87 96 98 96 80 46 25 30 33 16 14 10 13 29 50 63 62 76 86 92 96 98 94 100 100 97 100 100 100 100 100 100 100 100 100 100 100 100
96 96 96 93 99 100 100 100 100 100 99 98 100 97 85 88 95 99 98 96 74 42 38 26 18 13 9 8 16 34 46 58 63 61 73 89 97 95 97 100 100 100 97 100 100 100 100 100 100 100 98 91 74 66
100 100 99 99 99 100 100 100 100 99 100 100 97 94 94 98 100 99 96 96 84 60 40 22 16 10 10 8 17 34 53 69 66 69 66 68 88 96 98 100 100 100 100 100 100 100 100 100 100 100 98 87 76 73
99 100 100 100 100 100 99 100 100 100 99 98 95 93 96 100 100 99 99 94 84 73 56 17 15 13 14 10 15 41 51 65 84 71 72 78 80 75 91 100 100 100 100 100 100 100 100 100 99 100 99 86 77 73
100 99 97 97 98 100 100 100 100 100 99 99 98 98 99 100 98 93 87 81 81 73 41 19 20 22 13 12 19 51 64 71 84 90 66 67 76 70 76 86 97 98 99 100 100 100 100 100 100 94 96 97 93 94
98 100 100 100 100 100 98 100 100 100 100 100 100 100 100 99 92 82 78 81 76 65 50 35 16 12 12 18 32 51 56 68 80 91 88 62 52 54 75 80 79 85 92 96 90 94 100 100 100 100 100 99 97 97
100 100 100 98 100 100 100 100 100 100 100 100 99 100 99 89 80 81 84 80 69 42 27 16 11 11 20 38 62 62 68 80 89 79 76 99 99 64 33 42 71 87 83 80 83 95 93 93 100 100 100 100 100 100
99 100 100 100 100 99 100 100 100 100 100 99 100 97 92 92 95 85 72 54 34 27 16 10 10 18 34 52 74 80 82 80 81 82 81 77 50 23 13 12 14 19 28 40 72 94 92 90 96 99 98 99 100 100
100 100 100 100 97 100 100 100 100 100 100 97 90 87 88 86 76 63 42 29 19 12 10 12 21 42 55 61 77 82 80 71 55 44 36 26 20 14 13 17 21 25 28 28 35 44 55 76 93 98 100 100 99 99
100 100 100 100 100 100 100 100 100 99 96 90 87 84 74 56 44 35 23 16 13 12 16 35 58 66 83 96 95 84 66 50 39 34 28 27 23 17 16 19 20 27 42 56 65 74 83 87 81 77 91 100 100 100
99 100 100 99 100 99 100 100 97 96 92 87 76 60 50 41 33 25 16 14 18 32 62 75 90 96 97 96 97 77 48 43 38 35 36 34 32 26 24 25 23 25 32 47 65 78 90 97 100 100 99 98 99 100
95 92 94 94 92 92 90 84 77 68 59 53 45 37 34 27 16 16 19 34 57 76 90 97 100 100 100 96 80 50 33 30 31 30 30 30 29 26 26 30 30 28 26 28 38 49 66 83 96 100 100 100 100 100
98 100 96 89 87 81 75 68 52 37 31 30 28 21 17 16 25 34 52 75 93 100 100 100 100 100 73 43 35 33 40 45 45 45 44 45 43 36 31 28 27 28 30 30 28 28 30 33 38 62 86 99 100 100
99 93 85 78 65 50 40 35 33 31 27 22 19 20 24 44 69 86 96 100 100 100 100 100 100 87 74 51 37 42 67 78 76 66 59 55 49 44 37 33 30 28 25 22 22 23 23 24 30 35 34 34 41 55
74 69 56 46 40 35 30 27 24 22 22 25 34 50 72 91 99 100 100 100 100 100 100 99 91 81 77 79 85 89 90 86 79 71 64 53 44 39 34 30 26 25 25 23 20 18 16 18 19 21 22 28 31 30
42 35 30 29 28 26 26 26 27 36 49 65 74 85 92 100 100 100 100 100 100 100 97 96 92 89 89 90 83 67 59 55 49 46 41 32 23 18 13 12 11 10 10 10 11 12 14 14 13 12 13 17 21 24
33 29 28 26 26 29 35 46 57 65 74 85 94 100 100 100 100 100 100 100 100 100 100 95 84 78 69 58 46 39 33 29 23 17 12 9 8 9 12 26 38 46 41 35 28 20 16 13 13 14 13 13 13 17
32 32 33 40 55 60 62 70 81 91 100 100 100 100 100 100 98 99 96 94 90 84 75 62 51 42 35 32 29 23 16 11 9 8 14 41 68 84 92 90 94 98 92 80 59 35 22 19 26 38 36 19 14 12

GFSWCAN_500_rhum_087.txt.gz
RH
98 99 98 100 99 99 96 98 98 98 97 95 95 97 98 98 96 98 98 95 95 84 79 67 62 65 66 56 47 38 25 17 12 8 12 20 22 27 76 80 86 92 82 92 100 100 83 76 87 83 72 66 61 59
98 98 98 97 97 96 97 99 97 97 97 95 98 98 97 96 96 98 96 96 94 82 76 69 65 62 64 57 45 33 23 17 11 8 15 28 28 34 29 69 100 100 85 91 99 94 100 84 76 76 72 65 59 57
97 99 97 98 97 97 91 97 98 96 98 97 97 96 93 95 97 97 96 96 89 80 72 62 67 66 65 56 41 29 22 15 10 7 16 32 34 62 64 45 33 91 89 94 89 97 98 100 89 77 72 71 73 70
96 98 97 97 98 99 90 98 99 97 97 97 96 93 96 97 97 97 97 95 83 68 62 63 63 65 60 51 36 28 22 14 9 6 15 28 40 51 59 60 60 44 55 62 81 100 99 100 83 79 76 72 68 75
92 98 98 98 98 98 99 100 98 98 95 93 96 96 98 100 95 96 97 96 80 74 61 61 62 62 60 48 35 29 20 13 8 7 10 20 36 48 64 74 78 72 63 62 76 100 99 82 89 81 78 72 82 80
98 98 99 98 96 98 98 98 98 98 95 98 97 98 98 96 96 97 97 96 89 79 73 71 64 61 57 45 35 27 18 11 9 7 9 26 32 38 53 64 84 71 66 54 61 90 98 88 86 76 71 68 63 76
95 98 97 97 97 97 96 98 98 97 98 98 97 98 98 96 97 97 97 96 82 87 83 75 67 63 55 42 36 24 16 10 9 7 12 25 36 34 42 64 65 57 40 49 47 81 100 94 79 82 66 57 52 48
93 97 95 98 99 100 100 97 97 98 98 97 98 100 98 98 96 97 97 95 82 90 86 76 68 62 52 45 33 22 15 11 8 8 14 30 37 33 43 54 55 41 20 27 39 62 100 100 92 88 84 72 50 45
89 97 97 98 98 97 98 96 96 97 96 98 98 96 97 98 98 97 96 94 84 87 92 77 70 61 51 43 27 22 14 11 8 8 16 34 39 37 46 53 63 36 22 28 32 54 98 99 85 85 84 81 74 62
97 97 98 98 98 98 97 96 98 96 99 98 96 96 99 99 98 98 96 91 84 89 84 70 68 60 54 36 28 19 14 10 9 10 21 42 45 48 54 56 72 49 36 37 36 54 93 75 80 98 85 89 95 96
95 98 97 98 96 94 98 98 94 96 98 98 96 100 100 98 99 96 97 82 76 83 74 70 69 63 52 36 28 20 13 11 9 13 23 43 47 49 50 61 78 65 49 46 44 48 57 82 100 100 100 100 100 100
98 97 97 97 95 82 88 93 96 98 100 99 98 98 98 98 98 97 97 77 79 74 67 69 69 64 54 37 27 18 16 12 10 12 27 47 48 49 48 66 83 84 82 56 61 57 90 100 100 100 100 100 100 100
98 97 97 98 95 99 100 96 97 100 96 97 99 98 98 98 97 97 96 86 77 70 72 75 72 69 50 35 30 20 17 11 10 13 24 41 54 56 53 66 83 89 92 90 80 64 85 100 100 100 100 100 100 97
97 96 98 98 98 97 98 100 100 95 96 99 98 98 100 97 97 98 94 84 74 71 79 81 84 66 51 39 28 23 17 11 11 16 27 51 67 66 73 83 86 89 84 94 100 100 100 100 100 100 96 95 89 88
99 100 100 97 96 96 96 98 98 99 100 98 98 97 98 98 98 97 94 82 70 70 84 93 79 64 49 42 27 23 18 12 10 16 27 52 70 74 77 85 91 96 98 90 93 91 90 93 95 80 77 86 93 95
98 98 98 98 97 96 93 93 95 100 99 98 98 98 98 98 97 92 88 76 79 88 99 94 76 62 50 43 32 28 24 11 9 14 32 44 58 75 81 86 92 100 100 100 92 92 95 99 100 96 100 100 100 100
98 96 92 97 94 99 100 100 98 99 97 97 99 99 98 96 92 94 84 82 92 100 99 89 77 62 54 46 38 36 28 18 9 11 28 45 51 60 80 85 90 100 98 100 100 100 100 100 100 100 100 99 98 96
100 98 98 98 100 100 100 100 100 99 98 99 99 98 95 93 95 86 80 92 100 100 95 89 77 65 58 49 41 40 35 17 11 11 29 56 53 56 59 76 87 96 98 100 100 100 100 100 100 100 100 100 98 96
99 99 99 98 98 100 100 100 99 99 100 99 99 97 98 96 90 84 87 97 100 100 96 92 76 64 50 45 45 43 19 13 12 16 33 56 59 53 55 56 69 94 100 99 100 100 98 100 100 100 100 100 100 100
100 100 100 100 100 99 98 99 100 100 99 100 98 99 99 93 86 85 92 100 100 98 96 88 65 57 51 50 48 26 16 10 10 14 33 50 53 72 54 63 68 68 86 99 100 100 100 100 100 100 100 100 100 100
100 100 100 100 100 100 100 100 100 100 99 97 97 93 90 88 90 97 100 100 100 93 87 70 64 62 56 45 32 12 9 10 11 21 42 51 65 85 87 62 56 69 77 69 81 94 98 100 100 100 100 100 100 100
100 100 100 100 100 100 99 100 100 100 98 100 99 96 94 97 100 100 100 98 93 83 68 69 65 55 45 36 16 12 11 10 12 30 52 60 77 80 96 100 100 64 35 43 66 85 88 92 96 100 100 100 100 100
100 100 100 100 100 99 100 100 99 100 98 96 97 98 100 100 100 100 96 88 79 69 65 61 54 46 31 16 14 11 9 13 26 53 63 76 87 92 91 97 95 44 17 18 23 23 30 38 48 71 87 97 99 100
100 100 100 100 99 99 99 99 100 100 100 100 100 100 100 100 94 83 75 77 67 64 59 50 40 24 19 14 9 10 18 31 48 67 76 81 79 72 65 42 26 22 18 16 18 19 19 22 27 33 42 55 66 90
100 99 99 98 100 100 99 100 100 100 99 98 98 100 95 85 74 71 73 66 59 55 46 39 32 18 9 9 12 24 41 56 80 88 70 55 49 41 40 42 41 35 28 21 21 20 18 19 29 44 60 78 91 96
96 99 98 100 100 100 99 98 99 99 98 95 87 84 80 75 74 69 62 56 50 43 33 17 10 10 11 23 41 62 77 87 95 85 63 56 55 50 48 47 43 35 34 25 21 21 18 16 16 24 45 64 81 95
99 100 100 100 100 99 99 99 94 88 86 84 86 84 78 68 61 51 49 44 38 25 14 11 11 18 41 64 77 92 99 94 81 62 46 41 42 39 37 36 38 38 35 31 29 28 27 25 23 22 23 28 46 73
100 100 100 100 100 100 100 99 99 100 95 86 74 63 57 50 43 40 34 24 16 13 12 16 32 57 78 96 100 100 98 88 62 40 45 53 62 70 67 62 56 48 42 37 33 30 28 26 25 26 26 27 29 33
100 99 98 98 98 99 98 96 90 80 68 61 54 48 43 40 34 25 17 14 14 15 24 44 67 82 94 98 99 99 84 47 42 52 55 78 100 96 86 80 73 67 62 58 52 47 42 37 34 31 28 27 25 27
96 92 94 95 91 88 75 65 59 53 48 44 39 35 31 25 18 15 13 14 20 37 60 77 84 86 82 81 87 93 95 97 96 93 91 87 78 71 70 66 61 57 51 45 37 28 24 22 20 20 20 23 26 25
90 86 82 76 69 59 52 44 39 36 32 29 25 21 17 16 15 16 24 43 65 81 87 88 87 88 93 98 100 100 95 85 80 77 73 68 62 56 48 40 32 25 20 16 12 11 10 10 11 11 10 10 10 11
77 68 57 47 38 32 30 29 28 25 23 21 20 19 19 23 34 53 70 82 84 82 83 86 92 96 94 82 78 73 67 66 63 57 50 42 34 26 18 12 8 8 17 48 74 81 82 80 77 80 84 79 62 48
65 55 43 34 31 31 30 28 25 24 26 28 31 36 45 58 67 72 78 80 82 88 93 90 81 73 64 57 52 46 39 34 29 22 15 11 9 10 18 42 63 71 68 52 35 35 44 59 75 86 96 100 100 93

GFSWCAN_500_rhum_090.txt.gz
RH
5 6 69 100 100 100 97 95 97 98 97 97 96 96 97 97 98 95 98 95 88 94 89 78 72 70 60 56 48 42 38 30 26 18 11 8 12 22 27 49 61 72 66 68 99 100 92 91 95 96 78 75 63 67
4 40 99 100 100 98 97 98 98 97 96 96 98 97 98 97 94 91 94 95 93 92 83 70 70 64 58 56 45 46 37 32 25 18 11 8 12 26 35 37 45 92 100 82 90 93 92 93 86 78 80 74 68 66
27 99 100 100 96 99 98 99 98 97 96 98 98 97 97 97 91 88 95 93 90 90 76 62 57 56 56 51 50 45 37 33 25 18 11 9 11 26 37 49 48 46 44 91 95 98 100 100 82 85 74 73 73 68
98 100 97 91 79 98 98 96 96 98 98 97 98 97 96 96 91 94 97 98 92 84 74 67 60 60 53 49 47 44 38 33 25 16 11 8 11 26 34 43 59 58 48 68 58 83 96 76 57 71 100 94 88 81
99 99 86 87 94 97 98 98 95 96 98 98 98 97 96 95 96 96 97 97 92 88 85 73 66 66 53 47 46 44 40 33 24 16 11 8 10 23 36 38 46 70 77 63 74 82 68 78 70 56 100 98 89 92
99 96 88 84 95 96 98 98 96 96 98 98 98 97 96 96 96 95 95 97 94 90 84 73 73 67 58 47 48 45 41 32 24 15 11 8 9 17 31 33 47 54 59 66 53 56 73 76 66 64 99 100 99 98
100 97 93 96 97 97 98 98 97 95 98 98 98 98 98 97 97 95 97 98 93 90 80 62 65 65 53 50 50 47 42 33 22 15 11 9 7 12 24 29 38 38 45 52 25 37 63 76 94 100 100 100 95 82
98 100 97 94 94 97 98 97 97 96 100 96 98 98 98 98 98 98 96 96 89 85 81 63 64 63 55 51 51 49 43 33 22 16 11 8 8 9 19 26 34 34 50 42 19 34 56 79 99 100 100 100 77 63
97 100 98 97 96 98 98 97 96 96 94 98 98 98 98 98 98 97 97 95 90 91 73 66 69 57 52 51 53 51 45 31 23 16 12 9 8 11 20 30 31 39 49 42 31 33 50 72 94 99 100 100 100 89
99 91 98 100 98 98 98 96 99 93 100 98 98 98 98 98 98 98 95 95 92 84 71 67 56 50 46 51 53 55 43 30 22 16 12 10 9 12 24 34 32 45 50 50 41 33 43 68 83 100 99 100 97 96
91 87 100 98 97 98 96 96 86 90 96 97 98 97 98 99 99 98 97 97 88 80 68 59 50 48 50 49 55 57 44 32 22 16 13 10 9 12 25 41 34 42 54 62 44 39 44 61 93 92 85 88 88 96
96 97 98 98 98 97 95 92 91 90 96 99 98 98 99 97 98 97 96 94 93 86 75 64 57 51 48 50 62 58 44 32 21 17 13 11 9 10 22 40 38 42 62 79 69 45 52 76 86 65 98 100 97 94
97 99 98 98 97 94 100 100 98 98 99 99 97 96 99 98 96 96 98 96 93 92 86 71 59 54 52 57 65 58 45 30 22 19 14 10 10 11 19 35 47 46 66 76 83 67 59 73 61 82 100 84 100 100
90 92 98 94 97 99 86 93 96 97 97 96 98 99 98 97 98 98 97 95 93 86 83 70 59 55 56 62 71 58 44 30 25 22 14 11 12 11 18 35 54 53 66 84 72 81 92 65 94 100 100 100 100 100
96 98 98 98 97 93 98 100 98 98 98 98 99 97 95 98 99 98 97 96 93 86 75 66 58 53 60 67 74 58 42 32 29 27 24 18 16 12 16 33 52 59 62 78 93 86 99 100 100 100 97 94 86 87
99 100 100 97 94 98 99 98 97 98 98 98 97 98 98 99 98 97 97 95 90 85 72 63 54 56 62 75 74 56 44 35 34 32 25 20 16 12 14 31 43 58 61 74 88 97 96 98 99 98 98 100 100 99
98 97 95 96 99 98 98 97 97 98 97 96 98 99 99 98 97 98 96 93 85 81 70 60 56 62 71 79 70 58 46 40 37 33 26 22 12 10 12 32 45 48 60 67 83 96 100 99 99 100 100 100 100 100
99 95 99 99 99 94 98 96 97 96 93 95 100 99 98 98 98 97 96 90 82 78 69 62 64 77 91 84 71 58 48 43 38 32 28 16 11 9 12 36 53 48 54 60 69 87 98 100 100 97 98 100 99 99
99 98 99 99 96 96 96 98 97 96 99 99 99 98 98 98 97 98 97 86 82 76 66 68 82 98 92 83 67 57 52 46 36 32 21 15 14 11 15 34 53 59 58 62 72 83 89 96 100 100 100 100 100 100
99 100 98 95 100 100 99 98 100 99 99 99 99 99 98 97 96 95 89 84 80 72 75 94 100 92 87 77 64 60 54 48 38 34 23 18 11 10 20 47 61 67 85 66 74 78 91 95 92 96 100 97 100 100
99 98 99 100 100 100 99 99 99 99 100 100 100 99 100 98 96 91 87 79 76 84 100 95 99 94 84 73 63 56 50 43 39 30 24 14 9 11 25 45 55 74 91 88 67 62 84 90 93 98 97 98 100 100
99 100 100 100 100 100 100 100 100 100 99 100 99 100 96 92 88 85 81 81 92 100 98 100 99 91 81 69 58 53 47 41 32 26 17 9 9 14 26 48 58 81 95 94 96 98 59 54 78 88 93 91 93 98
100 100 100 100 100 100 100 100 100 100 100 100 98 91 89 89 86 82 82 96 100 96 97 97 92 81 69 63 57 50 42 34 27 14 9 9 12 23 52 71 78 83 89 95 98 98 70 30 26 24 21 18 20 23
100 100 100 100 100 100 100 100 100 100 100 98 94 90 86 83 81 84 94 100 91 94 92 87 75 66 62 57 47 40 34 21 12 10 9 14 30 44 68 75 78 79 70 75 67 38 28 27 23 19 17 11 9 9
100 100 99 98 98 99 99 100 100 99 97 96 91 83 83 84 84 90 100 100 97 89 72 64 59 55 50 44 38 29 16 12 11 12 15 32 54 74 79 70 61 64 66 57 52 45 41 42 41 32 25 22 21 20
100 99 98 98 100 98 98 98 98 98 95 90 86 89 93 90 93 98 100 92 79 66 61 58 53 47 42 36 24 16 13 13 14 24 40 70 90 88 73 66 62 59 54 47 42 37 33 30 28 27 26 23 21 20
98 96 93 95 100 100 100 99 100 97 95 94 100 99 98 99 100 95 85 74 65 60 54 48 43 35 26 19 16 14 14 20 42 68 91 92 75 55 45 42 53 56 62 65 70 74 69 62 48 38 33 31 28 26
100 100 100 100 100 100 100 100 100 100 100 100 100 100 97 91 83 75 67 60 52 46 43 39 33 26 19 14 13 20 36 62 91 100 89 88 93 86 83 83 78 76 84 92 91 88 82 76 70 60 52 46 41 35
100 100 100 100 100 100 100 100 100 100 100 100 99 93 83 79 73 64 56 51 47 43 36 25 15 12 12 16 32 59 80 95 100 100 100 100 97 82 81 80 80 80 80 84 84 80 75 72 70 67 64 60 55 52
100 100 100 100 100 100 100 100 100 100 100 94 90 87 80 67 58 51 46 41 33 23 15 13 14 18 31 54 77 83 86 91 93 96 99 96 94 92 88 82 76 70 65 62 61 59 54 47 40 34 28 22 19 17
100 100 100 100 100 100 100 100 99 96 92 89 79 64 54 49 44 37 27 20 16 15 15 21 35 56 74 82 85 87 83 80 74 70 65 65 68 71 71 64 53 41 32 26 22 19 16 13 11 10 10 12 18 25
98 98 99 100 100 100 100 98 92 83 70 58 50 44 39 32 24 20 20 20 23 32 50 68 72 73 75 74 71 67 66 63 62 61 61 52 40 29 21 16 13 11 10 9 12 23 39 56 67 70 69 69 69 68
91 91 96 96 96 92 83 73 60 48 39 36 32 27 22 20 21 26 29 38 50 61 69 70 69 69 64 60 58 57 55 48 38 30 20 14 11 9 8 16 36 60 65 60 50 44 42 43 48 54 62 71 71 67

GFSWCAN_500_rhum_093.txt.gz
RH
36 49 44 48 29 8 14 17 7 39 89 94 98 98 97 96 97 96 97 98 94 97 92 83 73 62 57 49 42 37 37 32 32 27 20 14 9 9 14 27 26 43 51 64 74 70 83 88 100 80 76 95 88 80
54 18 33 40 20 12 19 13 12 87 96 99 96 96 96 97 96 96 98 88 85 94 89 81 67 56 46 46 37 36 36 35 33 27 20 14 9 9 14 30 35 34 35 47 69 78 80 68 63 78 71 62 82 95
44 7 18 32 11 49 98 53 67 98 97 98 97 90 97 97 97 97 97 83 88 93 85 78 67 57 54 43 35 33 36 36 34 30 22 14 10 9 13 28 34 41 40 46 45 55 81 100 100 100 76 59 68 85
12 4 18 21 90 100 89 96 97 98 97 99 96 95 95 98 98 97 92 84 92 92 82 76 72 68 63 54 41 36 37 38 37 32 23 16 11 9 10 17 29 39 53 61 60 88 81 65 91 100 80 88 99 88
3 4 9 15 95 98 99 98 98 98 97 98 97 97 97 98 98 95 91 86 92 90 87 88 78 79 73 62 41 38 39 40 40 34 24 18 12 9 9 12 21 32 37 50 60 63 70 89 81 77 96 80 86 100
3 4 11 88 98 100 92 91 97 96 99 97 97 97 98 97 97 92 87 89 92 90 90 88 76 68 68 59 43 40 38 42 43 36 25 19 13 10 8 9 16 27 28 39 52 42 33 36 81 82 86 82 96 100
4 7 79 98 96 90 97 100 98 99 97 97 96 96 98 97 98 96 96 98 93 81 90 93 78 70 59 51 41 40 40 45 46 37 29 21 14 10 8 8 12 21 25 26 49 35 26 19 31 82 82 84 71 100
4 41 97 87 91 94 98 97 98 99 98 96 97 97 98 97 97 94 96 98 88 85 78 86 83 75 60 45 37 39 40 46 44 39 32 22 14 11 8 8 8 18 27 23 35 36 28 22 49 79 78 81 86 100
8 77 81 83 90 98 100 96 97 98 98 98 98 98 98 97 96 99 97 89 86 78 79 76 70 62 50 38 34 38 43 45 44 41 33 22 15 11 9 8 8 13 22 21 27 40 35 40 72 71 74 100 100 100
41 90 84 84 94 97 99 97 98 98 97 98 98 97 97 96 98 98 93 89 83 80 71 72 64 50 43 37 36 39 44 46 45 41 33 22 15 11 10 9 8 8 18 27 28 44 40 52 73 86 100 100 100 100
86 85 80 80 93 98 95 96 97 97 95 96 97 97 99 98 96 100 96 88 86 80 71 73 62 55 52 46 40 41 46 48 49 42 35 22 15 12 11 11 9 10 22 33 40 45 41 44 80 96 100 100 100 100
92 75 66 71 99 91 94 98 96 97 98 93 99 100 99 98 100 99 98 90 90 82 76 76 77 75 64 52 42 46 51 52 52 45 34 23 16 13 12 12 9 10 20 39 51 59 56 49 65 95 100 96 86 89
78 78 84 96 90 93 98 98 98 100 100 99 94 95 97 96 97 95 97 97 89 86 79 76 79 75 65 51 46 49 55 57 53 45 36 24 16 14 13 14 10 10 16 35 51 64 62 52 60 92 89 69 78 98
95 94 98 98 96 100 94 92 96 94 98 95 89 88 92 96 93 100 98 96 94 93 82 75 73 72 59 49 46 55 58 59 56 45 37 24 16 14 14 14 9 8 15 26 46 74 71 76 61 57 68 73 100 99
99 99 99 100 96 82 96 100 100 100 99 100 95 93 98 98 99 98 97 95 96 93 85 74 79 68 57 50 51 56 64 63 59 50 36 25 18 16 16 15 10 9 12 21 36 56 76 82 82 98 90 91 100 100
99 99 97 91 96 98 100 100 99 99 98 97 97 98 99 100 99 98 96 96 95 93 81 79 76 67 58 53 55 58 70 67 61 51 35 26 20 17 16 16 14 11 11 24 32 44 60 78 96 87 97 95 95 98
98 94 92 99 100 100 100 99 99 98 96 95 97 98 99 98 98 98 97 95 95 90 83 81 73 64 58 55 53 61 70 70 67 52 37 30 23 18 18 17 14 10 10 19 42 43 53 68 85 100 100 100 100 100
80 72 83 87 92 99 98 99 98 96 95 100 99 100 99 98 97 98 96 96 93 86 84 75 67 58 58 55 55 69 77 78 73 54 40 36 29 24 20 16 12 9 9 13 42 53 51 62 89 98 100 100 100 100
86 85 94 100 100 100 98 95 96 95 99 100 99 99 98 98 98 97 97 95 86 83 76 65 61 61 56 56 64 72 79 82 74 54 45 41 34 27 22 18 13 9 9 16 34 48 61 55 73 100 100 100 100 100
100 100 99 99 98 97 96 97 94 96 99 99 99 99 98 98 98 97 96 93 83 76 67 65 66 54 56 62 71 81 83 83 72 58 49 43 35 28 23 16 12 9 10 24 43 57 79 76 68 90 100 100 100 100
98 98 98 98 97 100 99 96 98 99 99 99 99 98 98 97 97 98 94 77 73 70 70 65 58 58 65 71 81 84 83 82 70 57 49 42 33 28 21 14 11 10 15 33 48 62 83 98 100 100 78 88 100 100
99 99 100 99 100 100 99 99 100 100 100 100 99 99 98 98 98 88 78 74 70 69 62 60 62 68 74 79 81 85 88 80 64 52 44 38 32 24 17 16 13 13 24 45 68 76 86 100 100 100 100 81 66 88
100 100 100 100 99 99 99 100 100 100 99 100 99 100 100 100 96 86 75 74 70 56 61 70 74 79 83 86 90 92 81 66 54 45 39 34 28 20 19 15 13 18 39 63 71 78 82 90 96 95 93 73 40 39
100 100 100 100 100 100 99 100 100 100 100 100 100 100 98 97 95 86 73 71 59 66 73 80 86 89 91 93 92 81 64 52 44 40 37 28 22 20 14 13 20 39 61 75 72 78 76 73 82 77 59 53 44 37
99 100 98 98 98 99 99 100 100 99 100 100 99 96 98 96 88 77 73 72 70 75 79 85 91 94 95 87 72 58 52 46 40 32 27 24 20 12 14 24 52 81 84 77 77 80 80 75 68 61 55 49 44 36
100 95 94 91 98 99 100 100 100 100 100 96 94 92 93 89 78 75 88 82 79 81 88 94 99 98 80 65 57 49 42 36 32 28 21 14 15 21 46 78 83 78 66 61 59 56 53 47 46 46 52 55 52 44
98 97 99 100 100 100 100 100 100 99 98 94 96 94 87 84 81 86 91 90 91 94 97 96 87 72 61 52 45 40 36 32 24 17 15 19 39 71 94 87 66 64 68 74 85 92 97 99 99 99 100 100 97 89
98 100 100 100 100 100 100 100 100 98 94 95 94 93 93 89 92 89 89 96 100 100 93 79 66 56 49 44 39 33 27 19 17 16 23 40 69 84 93 99 100 100 100 98 89 86 87 89 91 93 91 90 87 82
100 100 100 100 100 99 98 98 100 100 100 99 96 94 94 97 96 96 98 98 93 84 75 64 55 48 42 35 26 20 16 15 17 32 54 70 82 92 98 96 92 88 83 83 82 80 79 77 76 76 76 74 72 70
100 100 100 100 100 100 100 100 98 98 98 98 98 99 100 100 100 100 99 91 81 68 57 49 43 35 27 20 17 15 16 22 35 49 63 74 79 85 86 83 78 74 69 61 51 42 36 32 32 32 32 28 23 19
100 100 100 100 100 98 98 99 100 100 100 100 100 100 100 100 98 91 82 68 57 50 43 35 28 22 18 16 16 21 29 41 51 58 62 64 63 59 51 45 40 33 26 19 15 12 10 10 10 12 12 15 17 17
100 100 100 100 99 99 100 100 100 100 100 100 100 100 97 94 86 69 58 49 42 33 26 22 19 17 18 21 29 37 44 48 51 50 50 43 38 30 21 15 11 9 9 9 16 36 54 57 56 52 48 50 50 51
100 100 100 100 100 100 100 100 100 97 96 95 96 93 85 70 56 47 38 31 26 22 19 18 19 25 35 41 41 42 43 42 40 33 26 20 14 11 9 9 19 48 58 55 44 44 52 66 73 75 71 60 46 43

GFSWCAN_500_rhum_096.txt.gz
RH
94 83 86 6 18 12 14 94 100 95 100 46 53 83 92 97 97 95 96 96 96 98 99 91 88 81 65 49 44 40 38 33 34 32 27 23 17 12 9 10 12 18 20 28 38 69 83 96 99 91 84 76 64 72
85 75 67 5 11 12 24 57 99 77 58 70 100 99 92 96 94 91 97 97 98 96 98 95 81 67 50 50 39 34 34 34 34 33 29 25 20 14 10 10 12 17 20 23 31 30 58 64 70 70 82 84 82 79
79 70 46 4 6 10 10 65 62 70 99 94 70 90 93 94 98 96 97 97 97 98 93 87 86 65 60 54 45 40 35 35 37 38 34 27 22 15 10 9 9 15 23 31 46 54 62 61 66 100 79 63 66 72
96 65 36 3 6 9 12 24 98 92 85 89 100 93 94 90 87 97 98 97 98 93 85 82 78 74 71 69 59 46 38 38 37 40 36 30 24 16 11 9 8 9 19 33 51 72 72 61 69 59 100 100 100 90
99 60 39 2 5 7 9 54 76 46 79 100 96 95 95 96 97 98 98 96 97 83 83 82 84 84 81 71 60 45 40 36 36 39 38 31 26 17 12 9 7 6 9 14 20 31 53 50 42 52 52 100 100 100
56 70 43 3 5 7 10 12 38 61 100 94 95 95 97 98 98 95 96 96 94 87 87 86 83 75 64 63 54 45 38 35 37 41 38 33 28 18 13 9 7 6 6 9 14 21 33 38 36 28 44 96 76 95
17 54 35 3 6 8 10 14 57 98 98 79 98 98 97 98 96 92 96 99 98 90 85 82 85 75 72 59 52 42 35 35 38 40 39 34 27 20 13 9 7 6 5 5 7 15 25 32 25 22 34 78 100 99
33 96 9 3 7 11 11 17 85 81 80 78 98 99 98 96 95 94 98 97 90 82 80 79 86 77 72 63 46 37 33 32 38 40 40 35 29 20 14 9 6 6 5 6 9 15 22 32 24 22 27 93 100 95
97 41 7 4 9 11 19 68 72 79 92 98 99 98 98 95 90 97 98 96 86 80 71 73 85 70 62 46 36 33 31 31 35 41 42 36 32 23 14 9 6 6 5 6 8 13 23 32 32 39 73 100 97 97
64 13 7 12 44 75 72 48 62 98 99 98 98 98 99 97 97 97 97 85 78 75 74 75 74 60 50 42 42 40 36 31 35 41 41 39 35 25 14 9 6 6 6 6 6 12 28 36 48 60 66 69 66 88
11 30 73 63 37 67 87 87 93 98 96 98 96 98 99 98 98 97 94 83 80 75 70 71 66 57 51 52 57 51 41 34 35 42 41 42 38 27 14 9 6 6 7 8 7 10 24 40 37 72 80 100 100 98
35 100 59 30 58 83 70 90 96 86 94 99 98 97 97 97 97 89 83 80 74 75 76 68 66 67 69 72 68 54 42 36 40 39 43 47 40 29 14 8 7 7 9 10 8 9 27 36 36 51 86 96 100 100
77 79 68 78 78 86 95 99 98 99 98 97 97 98 96 96 85 74 76 84 86 88 74 74 76 76 73 71 65 53 42 41 40 41 47 48 46 31 14 8 7 8 10 11 8 8 21 57 49 42 60 76 93 88
99 100 84 84 86 97 98 99 97 97 98 95 81 91 91 77 87 89 100 98 96 89 82 80 81 78 74 71 60 51 45 41 41 45 51 51 49 34 16 10 8 8 9 10 8 8 14 46 82 86 49 55 83 83
100 96 82 76 94 98 99 99 99 98 96 90 80 84 83 99 91 97 97 97 96 90 84 79 78 76 75 72 60 54 46 40 43 49 52 54 52 40 22 14 12 11 11 11 10 8 9 16 49 77 100 99 95 68
95 94 85 94 98 98 98 99 98 96 97 96 84 82 85 94 99 98 98 94 94 88 78 80 81 77 73 68 63 53 46 44 50 52 56 60 60 48 32 24 19 16 15 14 12 11 9 12 26 51 75 100 99 92
98 98 98 99 98 98 98 99 100 100 96 90 95 100 98 95 98 97 95 95 91 85 85 83 76 72 66 65 54 47 48 52 53 56 63 69 67 54 40 33 27 21 18 16 14 14 11 9 24 37 53 85 96 100
98 98 97 96 97 97 100 99 97 88 80 94 100 99 98 98 99 98 96 97 92 88 88 82 77 72 68 58 48 47 49 53 55 60 69 75 71 60 48 40 31 23 22 20 16 16 12 10 15 43 55 59 100 100
96 96 97 99 100 100 96 95 92 87 92 100 100 98 98 98 97 97 97 97 95 92 85 82 72 69 62 51 47 47 49 52 61 72 78 78 71 63 55 46 35 27 25 20 19 17 12 11 21 48 79 69 68 98
100 100 100 98 98 97 97 93 92 100 99 100 99 99 98 97 97 98 98 98 96 93 90 76 66 62 53 49 45 47 49 55 66 78 82 77 72 68 59 48 36 32 25 22 21 15 12 14 28 53 85 100 82 86
96 97 97 97 96 97 93 94 100 100 99 99 99 98 98 98 98 98 97 97 97 93 74 62 55 48 47 45 46 46 50 62 73 80 81 76 74 69 58 45 36 31 25 23 16 13 14 20 46 64 77 96 100 100
98 98 99 100 100 100 100 100 99 98 99 99 99 99 99 98 98 98 98 97 88 70 60 54 48 46 43 43 46 52 63 72 76 79 79 78 74 63 49 39 34 27 24 18 13 15 17 33 58 72 82 89 100 100
100 100 100 100 99 97 98 99 98 99 100 100 99 99 99 99 98 96 98 90 71 60 57 52 48 44 43 45 55 65 72 76 76 76 78 76 64 51 42 36 29 26 18 15 17 20 32 63 76 79 81 94 100 100
100 100 100 100 98 98 97 98 100 100 100 99 99 100 100 99 98 95 92 82 68 64 60 55 49 47 49 56 65 71 74 77 81 80 73 62 52 44 36 32 26 17 17 20 27 40 66 79 80 84 91 97 100 100
100 100 99 98 98 99 100 100 100 100 100 100 100 100 100 99 97 90 82 77 71 67 59 55 52 52 56 63 68 73 78 82 81 72 62 52 43 36 32 22 19 18 23 44 71 77 84 87 83 86 90 91 85 70
100 97 91 89 95 96 99 99 100 100 100 100 100 100 100 96 88 78 82 76 69 63 60 58 58 63 68 71 76 81 84 81 71 60 49 42 36 28 22 19 18 28 58 79 64 54 56 54 57 67 80 84 83 90
96 95 93 96 100 100 100 100 100 100 100 100 100 99 95 88 82 81 84 79 73 68 69 71 72 74 79 84 89 88 80 68 56 48 41 32 25 22 18 18 26 52 83 100 100 97 96 100 100 100 99 99 96 92
100 100 100 100 100 100 100 100 100 99 99 99 99 96 95 95 98 96 88 84 84 82 79 77 79 83 88 90 85 78 69 58 48 38 28 24 20 16 15 20 34 55 71 77 79 80 80 83 88 87 88 92 100 98
100 100 100 100 99 99 100 100 100 100 100 100 99 100 100 100 96 92 90 89 88 86 87 88 90 90 89 86 77 63 52 42 33 27 22 18 16 18 24 38 60 66 65 62 62 60 56 54 50 46 44 44 43 42
100 100 99 99 99 100 100 100 100 100 100 100 99 94 95 98 99 98 96 94 93 92 94 95 96 93 83 66 52 44 35 29 24 20 16 16 19 25 35 46 51 47 40 35 32 27 21 17 14 11 10 10 10 10
100 100 100 100 100 100 100 100 100 100 100 99 98 100 100 100 100 100 99 98 98 98 97 94 84 68 56 48 38 30 24 20 17 15 16 20 28 37 39 37 32 26 20 16 12 10 9 12 26 42 54 56 55 52
100 100 100 100 99 99 100 100 100 100 100 100 100 100 100 98 98 95 95 95 94 90 82 71 60 48 38 31 26 22 17 15 16 18 22 26 30 27 19 13 10 9 9 14 33 45 47 48 51 56 65 72 73 74
100 100 98 97 97 99 100 100 100 100 100 100 100 100 99 96 95 93 90 88 79 71 61 49 40 33 26 21 17 15 16 18 21 21 23 20 13 9 8 14 33 44 43 42 46 56 65 68 60 38 18 16 16 16

GFSWCAN_500_rhum_099.txt.gz
RH
15 8 23 81 74 7 4 7 11 52 96 100 92 60 60 93 99 100 94 97 98 98 95 96 96 90 88 85 67 52 40 36 34 34 31 27 22 16 12 9 7 6 6 11 17 19 29 58 78 99 100 99 99 100
14 7 39 73 69 6 4 10 15 56 97 98 94 99 97 100 90 90 97 97 98 98 89 96 99 94 86 67 54 41 38 35 35 34 32 29 24 18 13 10 8 6 5 8 14 20 38 41 57 82 93 93 92 97
10 9 59 65 56 5 6 12 27 92 100 97 99 100 98 100 98 98 98 97 97 98 92 93 100 94 62 56 46 44 40 37 36 34 34 31 27 20 15 11 8 6 5 6 13 22 38 53 65 69 57 66 77 86
8 35 65 63 50 6 6 17 65 87 85 98 100 98 100 97 93 97 98 98 98 96 90 96 97 71 62 61 61 57 43 40 38 37 35 32 29 22 17 12 9 6 5 5 7 11 21 32 45 54 56 56 88 91
23 56 70 66 45 11 8 18 73 66 71 100 95 92 76 85 99 98 96 98 97 95 92 96 94 73 73 74 73 60 45 40 37 37 35 33 30 24 18 13 9 6 5 5 5 7 12 18 33 37 40 43 44 92
58 34 22 23 28 10 8 17 44 38 93 86 83 93 92 97 99 98 96 98 98 95 96 96 84 79 83 73 66 55 45 38 35 33 34 34 32 26 21 15 10 6 5 5 5 4 5 7 18 27 30 29 41 79
33 42 21 8 15 9 11 25 30 94 76 88 97 100 99 96 98 96 97 100 98 98 97 96 90 89 67 62 56 49 40 36 34 32 31 33 33 30 25 18 11 7 5 6 5 5 4 4 8 17 20 19 27 54
28 41 19 26 42 6 21 89 92 89 65 78 96 90 100 97 98 94 97 100 98 98 96 95 91 74 72 72 57 43 34 31 32 30 29 31 31 32 29 21 12 9 6 6 5 5 4 5 10 16 14 16 26 45
17 37 20 98 46 6 29 80 77 57 51 87 96 81 98 97 96 98 98 99 96 96 90 89 82 80 75 66 48 33 31 33 34 32 29 30 30 34 32 25 14 9 6 5 6 6 5 6 22 31 21 38 45 78
29 27 79 100 13 6 22 67 69 70 89 100 83 100 97 98 99 99 99 96 91 88 92 76 74 71 62 51 38 38 43 43 40 37 33 31 33 37 37 30 15 8 6 6 5 6 6 6 21 50 50 61 87 100
29 71 100 76 8 10 18 45 49 82 77 87 98 93 98 100 99 97 96 86 78 78 79 73 61 61 56 46 43 49 55 47 42 39 36 33 35 39 41 36 19 10 6 6 6 6 7 7 9 30 56 60 58 57
76 99 88 22 7 12 18 20 71 42 51 98 89 88 100 99 92 93 92 72 70 78 74 65 56 61 58 51 56 65 60 52 43 40 36 34 38 42 47 42 27 12 7 6 7 7 8 8 8 14 32 51 73 84
100 60 30 17 7 15 19 55 41 59 95 100 92 95 94 90 92 94 70 61 66 85 75 71 72 73 66 68 74 69 62 50 44 42 38 36 40 44 49 47 37 18 8 8 9 10 10 10 10 8 18 45 41 71
40 34 30 7 8 10 11 12 32 90 97 84 95 96 91 92 90 62 71 96 99 83 76 76 79 80 81 78 74 73 58 52 45 44 40 39 42 46 52 52 49 34 17 13 14 14 14 13 13 10 9 29 67 47
30 41 13 7 9 12 13 20 73 96 99 99 100 99 93 87 86 92 95 92 85 80 82 83 81 78 78 80 80 72 63 55 48 44 40 40 42 46 53 56 57 50 35 23 19 18 17 16 16 12 10 11 32 79
33 25 12 15 17 50 57 54 77 92 98 99 92 95 96 85 94 97 95 89 88 82 82 84 80 78 84 83 82 73 65 52 45 40 39 39 40 46 54 61 63 62 51 38 30 23 22 19 18 14 12 10 16 36
99 92 89 98 75 84 92 99 100 100 99 97 100 93 86 91 96 99 95 91 85 85 90 84 77 75 76 79 76 69 58 49 44 40 37 36 39 46 56 65 68 70 61 50 40 28 25 21 20 16 13 12 12 28
100 100 100 96 98 98 100 99 99 96 97 99 100 97 96 100 94 88 89 90 94 92 86 81 76 70 77 81 75 68 58 50 44 38 36 36 40 47 58 68 72 74 69 58 48 35 27 24 20 16 15 12 13 17
100 100 100 99 99 100 97 97 96 94 99 99 100 100 100 99 96 96 94 98 92 90 86 78 74 79 82 75 69 64 54 48 42 38 36 36 40 48 60 69 75 78 73 63 50 36 29 26 18 16 15 14 16 26
100 100 100 100 99 99 98 92 88 94 100 100 100 99 99 98 97 94 95 90 88 85 83 80 83 81 74 70 64 56 50 43 39 37 35 37 41 50 61 70 77 80 73 61 46 37 29 26 17 16 15 14 22 39
100 100 99 99 97 97 94 90 91 100 100 99 99 99 98 97 96 97 94 89 85 86 90 86 82 82 77 63 53 47 43 41 38 36 36 41 46 54 61 70 79 76 67 55 44 34 31 20 18 16 15 15 25 50
99 98 98 99 100 99 98 100 100 100 100 100 99 99 99 98 97 96 93 94 95 89 80 77 79 79 62 53 48 44 41 39 38 38 41 46 52 58 66 74 74 68 59 48 38 33 22 19 17 15 15 18 30 58
100 100 100 100 98 98 98 99 99 99 99 99 99 98 98 98 98 96 95 98 94 84 82 84 79 66 56 51 48 46 42 39 39 41 47 54 59 67 72 73 69 62 51 41 33 24 20 17 17 22 26 40 68 83
100 100 99 99 98 98 98 98 98 99 100 100 99 99 98 99 98 98 99 96 86 81 83 75 67 62 59 57 52 47 41 39 41 47 53 57 66 71 72 70 63 52 43 33 24 20 18 20 32 50 62 76 88 94
100 100 100 100 98 98 98 99 100 100 100 100 100 99 100 98 97 97 99 95 89 89 85 81 74 68 64 57 50 43 43 44 49 55 61 69 71 71 70 62 53 44 31 24 19 19 30 53 70 64 60 62 64 67
100 98 97 98 100 100 100 100 100 100 100 100 100 100 99 97 95 94 100 96 97 93 82 74 69 65 58 52 48 47 50 56 61 66 70 72 72 71 66 56 43 31 23 20 17 20 37 58 80 97 98 88 90 92
98 97 100 100 100 100 100 100 100 100 100 100 100 99 98 94 91 100 100 98 92 81 74 70 65 60 55 52 54 58 60 65 71 74 74 74 74 68 54 40 30 25 20 16 21 31 51 64 74 78 80 86 92 91
93 93 98 100 100 100 100 100 100 100 100 100 100 100 96 96 100 100 97 91 88 83 78 74 69 64 62 64 64 65 69 75 77 74 73 72 61 47 37 30 23 18 16 18 25 36 43 51 52 49 48 48 51 52
100 100 100 100 100 100 100 100 100 100 100 100 100 100 100 100 98 98 96 93 92 91 85 80 75 72 72 74 75 77 77 75 74 74 65 54 44 34 26 21 17 14 16 20 26 29 28 24 21 19 17 16 14 13
100 100 100 100 100 100 100 100 100 100 100 100 99 99 100 100 100 98 96 94 90 85 85 86 88 86 84 81 79 76 76 74 67 58 48 37 30 25 18 15 14 13 16 19 16 11 10 15 23 34 43 47 49 51
100 100 100 100 100 100 100 100 100 100 100 99 100 100 99 97 98 96 92 92 93 95 95 93 90 85 80 79 79 76 69 60 50 40 32 25 19 17 15 13 13 13 10 9 21 38 42 41 44 51 58 61 60 58
98 99 100 100 100 100 100 99 99 99 99 99 100 100 100 100 99 96 95 94 96 95 89 86 84 84 80 76 70 62 51 40 32 26 21 18 16 13 12 9 7 8 27 38 35 38 41 38 22 12 11 13 16 18
27 58 87 91 92 95 97 98 97 98 98 98 99 98 97 94 95 96 96 94 92 88 87 86 82 77 72 66 55 42 33 26 22 18 17 15 13 10 8 13 33 36 33 35 34 15 8 8 10 14 16 23 35 43

GFSWCAN_500_rhum_102.txt.gz
RH
61 47 54 52 27 9 54 60 5 7 11 21 51 79 99 100 99 97 98 98 100 99 96 100 92 95 98 94 89 80 57 43 33 33 32 30 27 22 16 12 10 8 7 7 6 7 13 26 40 68 95 100 100 96
48 37 54 47 23 9 48 42 4 10 12 37 73 100 100 98 96 97 97 98 98 96 98 96 90 93 99 96 86 58 49 40 36 35 32 31 29 24 19 14 11 8 8 7 7 6 11 20 45 60 59 76 98 99
47 32 48 37 15 9 35 25 5 11 22 61 74 100 98 100 97 90 96 99 98 98 98 95 95 99 98 95 67 51 42 39 38 37 33 31 30 26 21 16 12 10 8 8 7 5 7 11 17 28 47 66 63 56
39 34 34 19 10 12 32 17 5 15 23 58 96 90 99 100 88 96 97 97 99 98 97 98 97 95 96 76 60 50 50 45 41 35 31 31 31 27 24 19 14 11 9 8 7 5 6 6 9 18 29 37 45 57
32 30 16 19 25 31 36 12 6 13 46 70 88 92 99 94 96 97 96 95 99 98 93 98 92 93 85 66 62 63 60 47 41 32 30 31 30 29 26 23 18 12 11 8 8 7 6 6 5 7 16 26 30 38
25 14 21 47 36 32 44 24 11 12 58 90 88 82 90 98 98 98 98 97 100 100 97 91 95 88 74 70 72 72 63 49 37 31 30 29 30 29 28 27 23 16 12 9 8 7 7 6 6 6 5 8 15 23
13 23 56 22 8 8 33 39 18 11 60 86 86 100 99 99 98 96 93 100 100 100 98 95 96 96 84 82 78 63 56 46 36 30 29 29 30 29 30 30 28 22 14 9 8 8 8 8 8 7 7 6 6 16
28 45 18 9 14 23 31 44 23 13 67 100 100 100 100 98 100 97 96 99 99 100 99 96 95 96 92 80 61 51 48 37 29 30 29 31 30 29 30 31 31 28 19 10 8 9 8 8 8 8 6 7 7 15
38 12 7 7 19 32 32 57 22 12 66 99 97 91 100 99 93 98 100 98 99 95 88 90 97 96 85 68 66 58 41 30 36 37 37 34 34 33 31 32 34 34 24 11 9 8 8 8 7 7 6 15 18 16
7 4 10 12 34 30 47 64 11 11 71 94 97 100 99 98 98 98 100 98 99 94 84 91 95 95 86 73 64 50 32 35 42 42 39 38 37 32 32 34 37 38 34 16 12 10 7 7 8 8 8 21 39 56
3 3 19 28 35 33 100 35 7 34 85 89 99 86 87 92 96 98 98 98 96 80 79 86 86 87 77 74 59 40 38 42 48 48 41 40 35 34 34 36 39 41 42 33 18 11 10 10 9 9 9 8 20 38
7 16 33 38 42 99 88 13 7 43 63 64 83 89 96 99 96 96 89 84 68 72 76 87 81 73 83 65 53 43 44 50 55 50 42 40 36 34 35 37 40 42 46 46 40 23 16 15 13 11 10 10 8 14
35 43 42 47 100 100 26 15 8 44 48 66 100 100 97 92 84 70 56 47 50 65 86 94 86 74 72 61 49 48 52 59 58 51 46 41 37 36 35 36 40 44 48 54 54 47 34 24 18 15 14 12 11 8
34 48 70 100 100 62 52 15 12 31 56 100 98 92 86 77 63 61 69 81 75 94 98 90 72 62 63 57 53 58 64 56 56 55 51 42 37 36 34 35 37 42 47 54 58 60 54 41 28 22 18 15 13 10
57 92 100 97 60 87 54 62 25 60 99 99 98 91 70 63 65 73 80 94 97 94 84 70 68 72 66 56 64 66 60 56 62 58 49 42 38 37 34 34 34 39 43 52 60 66 65 56 42 29 22 18 15 12
97 98 88 54 77 100 61 34 62 99 100 99 88 72 76 80 77 76 94 97 94 67 67 72 76 72 67 63 70 67 63 70 60 52 51 47 42 37 34 33 32 34 40 51 63 68 69 66 54 37 27 23 18 15
100 87 60 100 100 100 66 86 100 100 100 92 86 85 90 86 80 85 96 97 78 70 72 75 77 77 70 68 68 68 72 61 59 62 59 53 45 38 34 31 30 33 39 51 63 69 72 71 60 42 32 28 20 17
78 95 100 100 100 95 56 86 93 98 92 81 81 80 86 91 94 96 99 91 83 83 81 80 80 82 74 75 72 68 67 69 68 66 61 52 44 38 32 30 30 32 39 49 60 67 73 74 60 46 36 29 22 18
91 100 100 100 100 88 89 62 76 87 84 99 94 95 98 100 99 97 98 96 89 86 90 86 82 80 80 80 74 70 74 72 67 62 56 48 40 35 32 30 29 34 41 52 60 66 73 70 57 45 37 27 21 17
100 100 100 100 95 82 58 47 76 80 82 98 98 100 99 100 99 100 95 92 90 90 88 87 89 88 87 81 76 77 76 72 70 61 49 42 38 35 34 32 32 35 45 55 61 67 71 66 55 45 33 25 20 16
100 100 100 100 89 47 50 60 73 87 100 100 100 99 99 99 99 98 93 88 86 89 95 91 88 91 85 83 85 83 80 77 69 54 45 40 39 38 35 33 35 41 52 58 65 70 70 61 49 38 28 22 17 14
100 100 100 100 100 92 88 88 87 87 100 99 99 99 98 98 98 100 97 95 100 99 94 86 81 82 89 93 92 83 81 75 59 49 44 44 42 39 36 36 38 50 56 62 68 70 64 56 44 32 23 18 16 17
100 100 100 100 100 99 100 99 100 100 100 99 99 99 99 99 99 97 94 95 99 94 83 78 83 88 89 88 84 85 77 62 54 52 51 48 42 37 35 37 46 54 58 64 66 65 60 48 33 25 19 17 21 34
100 100 100 100 98 98 98 99 99 100 99 99 98 98 99 98 96 92 97 98 92 89 84 84 86 85 83 85 88 78 68 61 59 58 54 47 42 39 38 46 55 59 61 63 64 59 45 35 28 20 19 23 45 69
99 100 100 99 97 97 96 99 98 98 99 99 99 98 98 97 94 94 100 96 97 94 90 90 89 89 90 87 81 79 76 71 66 58 51 45 40 40 48 57 59 61 61 60 56 47 37 27 20 18 19 32 46 66
98 97 99 98 100 99 99 99 99 100 99 99 98 98 98 98 98 97 100 98 100 99 97 95 91 89 90 88 87 84 76 69 61 54 47 45 46 54 58 60 61 59 57 53 47 36 28 20 16 16 21 31 40 48
98 96 97 100 100 100 100 100 100 100 100 99 100 100 100 98 95 100 99 98 100 98 96 93 91 91 93 93 89 78 70 63 56 53 50 52 59 63 63 61 57 55 51 43 34 26 19 16 14 14 18 24 26 26
92 97 100 100 100 100 100 100 100 100 99 100 100 100 98 94 98 99 98 98 97 97 96 95 96 98 95 86 77 71 67 63 58 57 60 66 68 63 59 56 51 44 38 30 23 19 15 12 9 9 10 15 28 38
95 96 100 100 100 100 100 100 100 100 100 100 100 100 97 98 98 98 99 98 96 97 99 100 100 97 96 91 84 76 67 65 69 73 73 67 61 58 52 45 37 30 24 19 16 13 11 8 9 22 32 35 40 46
100 100 100 100 100 100 100 100 99 99 99 100 97 97 96 96 97 99 99 99 100 100 100 100 100 100 98 89 78 72 75 79 79 73 67 61 55 48 40 32 24 19 16 13 10 7 9 24 27 26 23 14 8 8
100 100 100 100 100 100 100 100 100 100 100 100 100 100 100 100 100 100 100 100 100 100 99 100 100 96 86 80 82 84 82 77 73 66 59 53 45 35 26 19 16 12 10 8 9 21 24 23 11 7 7 8 8 9
99 100 100 100 100 100 100 99 100 100 99 99 100 98 99 99 100 99 100 100 99 99 100 100 99 94 90 88 85 80 75 70 64 60 51 41 29 21 17 13 12 10 8 16 24 21 8 6 6 7 8 8 8 10
96 98 99 100 100 100 100 100 100 100 100 100 100 100 100 99 100 100 100 100 99 99 99 99 96 92 88 84 80 75 69 66 58 46 32 24 19 16 14 11 8 11 23 26 16 8 8 10 15 18 18 16 13 12

GFSWCAN_500_rhum_105.txt.gz
RH
89 92 74 58 50 42 24 9 10 41 4 7 15 16 27 54 74 85 91 96 99 93 98 98 100 97 95 97 89 87 73 49 37 32 33 31 31 28 23 18 14 12 12 11 9 11 8 7 6 13 26 58 88 98
95 90 72 61 50 40 16 6 10 30 3 5 21 48 48 60 84 91 96 97 98 96 96 99 100 99 95 100 94 86 67 47 35 34 34 32 32 29 25 21 16 13 12 12 10 10 9 6 6 12 22 31 41 56
94 88 77 64 51 38 12 5 11 26 4 25 25 28 43 72 96 87 96 96 99 100 94 100 98 98 90 98 95 79 55 42 36 36 34 32 30 28 25 22 20 18 15 12 10 10 10 7 6 7 12 19 36 40
91 90 82 64 46 30 12 4 13 24 6 8 16 48 86 84 79 86 89 98 99 96 96 100 100 99 96 96 93 72 50 43 42 38 33 31 30 27 26 24 24 21 17 14 12 10 9 10 8 9 10 8 14 23
93 91 80 60 41 34 14 5 13 21 9 18 54 68 84 79 79 96 98 99 96 100 99 98 100 100 98 93 81 62 51 55 47 40 32 30 27 27 26 26 26 24 22 18 13 10 9 11 11 11 11 12 8 7
90 92 76 49 43 27 11 8 14 17 22 33 60 64 83 84 81 86 94 98 98 97 100 98 100 98 100 96 69 62 66 67 54 40 31 28 27 26 24 26 27 27 27 25 20 14 9 9 11 12 13 14 13 10
93 84 70 49 29 18 9 21 21 11 25 12 49 55 77 94 89 86 83 95 100 100 99 98 98 97 98 96 69 69 76 73 53 36 28 28 28 27 25 26 27 29 30 31 26 18 14 10 10 10 12 14 15 13
84 73 58 35 18 10 28 36 14 7 22 15 25 54 78 89 88 90 95 97 99 100 98 94 92 99 97 95 74 75 76 63 45 32 28 31 32 30 27 26 27 29 31 33 34 25 14 11 11 10 9 12 16 14
69 58 39 18 13 38 37 9 4 7 32 21 17 27 32 76 84 82 99 96 96 97 99 98 92 95 96 95 79 79 63 51 41 31 36 38 37 34 29 27 27 29 31 33 38 37 26 20 15 13 10 10 13 13
56 33 17 11 32 25 6 4 6 14 61 21 10 15 43 69 78 89 100 96 98 96 94 89 88 87 94 88 81 70 65 58 37 37 41 42 38 35 31 29 28 28 30 32 35 40 43 43 34 24 16 12 11 11
29 19 12 26 16 5 6 6 13 33 76 22 15 29 65 81 92 100 98 92 86 82 87 85 83 86 89 92 83 73 69 56 37 44 44 46 38 34 31 30 29 28 28 29 31 37 46 49 52 46 28 16 13 10
17 14 21 13 4 5 22 24 35 50 75 16 18 65 79 100 99 95 80 76 64 78 78 79 84 83 94 90 78 73 66 47 38 48 52 48 37 36 31 30 30 28 27 27 29 33 39 48 54 57 45 31 19 15
21 43 15 6 12 27 50 58 44 79 76 20 24 46 100 97 91 73 55 50 47 67 96 99 94 91 94 87 74 62 51 40 42 48 58 49 43 40 35 34 31 28 27 26 26 28 35 49 58 65 60 48 31 22
56 19 11 34 61 63 69 51 68 100 76 19 20 78 99 86 66 52 52 63 79 100 100 99 87 89 92 82 66 58 44 43 45 58 61 51 45 42 41 40 35 30 27 25 26 30 35 47 57 67 70 61 46 30
28 13 29 60 71 69 55 94 100 100 97 29 38 83 83 66 55 65 71 82 99 100 98 97 89 94 83 57 56 49 47 46 55 59 57 51 48 51 52 47 38 32 27 26 27 30 34 48 56 66 71 68 54 40
17 31 77 84 79 98 100 100 100 100 76 41 46 74 77 66 65 67 86 96 94 97 91 82 83 68 63 64 49 51 54 61 62 55 49 51 54 57 55 49 40 32 29 29 28 29 33 42 51 59 71 71 59 46
64 100 94 100 100 100 100 100 100 100 99 38 55 83 81 76 76 82 97 97 95 97 94 85 74 63 66 59 58 64 72 65 51 50 55 56 61 60 56 48 39 33 31 31 30 30 32 41 50 58 68 70 61 51
85 91 92 89 97 98 99 100 100 100 88 68 93 90 100 89 91 98 98 98 98 100 100 95 84 77 69 68 73 71 66 62 57 57 59 66 66 62 57 47 39 35 35 35 33 32 33 40 48 57 69 69 61 50
100 100 98 100 100 100 100 100 100 90 80 84 80 96 100 100 98 95 96 95 96 100 98 94 89 80 76 77 78 71 70 68 62 63 70 72 70 69 58 46 39 40 40 39 37 35 36 43 51 59 68 65 61 49
100 100 99 100 100 100 100 100 100 64 59 55 59 97 100 100 99 98 97 97 97 95 85 82 94 92 81 82 77 73 74 71 68 74 78 79 78 71 58 48 44 44 44 42 39 36 39 46 53 62 65 63 55 41
100 100 100 100 100 100 100 100 100 72 53 62 96 100 100 99 96 95 95 94 93 92 99 100 99 92 90 85 79 76 76 72 73 79 83 84 77 69 58 51 49 49 48 45 40 38 40 48 56 60 59 52 43 34
100 99 100 100 100 100 100 100 99 80 87 100 100 100 100 100 94 97 100 100 100 100 99 99 96 92 88 84 84 78 76 75 81 88 91 86 75 65 57 54 55 54 51 44 41 43 46 54 58 56 52 45 34 26
100 100 100 100 100 100 100 100 89 78 100 100 100 100 100 99 95 95 99 100 100 99 98 97 96 92 90 94 87 81 77 82 89 89 88 83 74 64 63 64 62 56 48 43 47 49 54 58 55 51 44 35 26 20
100 100 100 100 100 100 100 100 100 100 100 100 98 97 96 96 93 96 100 100 98 97 98 100 99 97 97 96 93 86 82 80 83 88 89 78 74 75 72 67 60 52 50 52 53 56 58 54 49 43 35 26 20 16
100 100 100 99 100 100 97 96 99 99 97 99 97 97 98 98 100 100 100 98 99 98 98 98 98 97 96 96 97 95 87 82 85 85 84 84 83 81 74 64 57 56 56 57 59 58 53 47 41 32 24 18 14 13
100 95 96 98 98 90 81 85 76 88 98 96 98 98 100 100 100 100 100 96 98 98 98 98 97 96 97 97 98 99 92 86 88 92 92 91 87 78 68 63 61 60 62 63 59 51 44 38 29 21 16 12 9 8
85 80 81 86 88 78 73 74 80 90 98 99 100 100 100 99 96 99 98 98 99 98 98 97 96 96 99 100 99 99 91 92 98 97 94 89 80 73 70 67 66 67 66 58 49 42 36 28 20 14 12 8 8 13
91 94 94 96 100 94 95 95 99 100 100 100 100 100 98 93 94 97 98 98 97 96 96 95 96 99 100 100 100 98 99 100 100 99 91 85 84 83 75 72 72 66 56 47 39 34 26 19 15 11 8 12 18 14
100 100 100 100 100 100 100 100 100 100 100 100 99 99 98 94 93 92 93 94 94 95 98 99 100 100 100 100 100 100 100 100 100 97 95 96 89 80 77 73 65 54 45 39 33 25 18 13 8 9 14 11 6 7
100 100 100 100 100 100 100 99 99 99 99 100 100 99 97 96 98 98 97 95 98 100 100 100 100 100 100 100 100 100 100 100 99 99 98 89 83 78 71 62 52 45 40 32 26 18 12 8 13 15 9 13 22 27
100 100 100 100 100 100 100 100 99 99 100 100 99 99 98 98 99 99 99 99 99 100 100 100 100 100 100 100 100 100 100 100 100 96 89 83 77 69 59 52 47 39 31 24 16 11 9 16 16 11 22 34 33 35
100 100 100 100 100 100 100 100 100 100 100 100 100 100 100 100 100 100 100 100 100 100 100 100 100 100 100 100 100 100 100 100 95 88 82 76 69 62 55 47 37 30 22 15 9 10 20 18 13 32 42 39 38 41
95 94 96 96 96 97 97 96 96 99 98 99 99 100 100 100 100 100 100 100 100 100 100 100 100 100 100 100 100 100 97 92 89 86 80 73 65 55 45 36 28 21 13 9 14 23 16 11 32 47 42 38 41 46

GFSWCAN_500_rhum_108.txt.gz
RH
85 85 81 83 96 95 74 56 44 24 10 13 20 21 22 38 54 64 65 83 85 95 98 95 93 97 96 97 75 76 66 52 42 33 32 31 30 28 26 21 18 16 16 15 14 16 14 17 14 15 12 12 26 29
90 84 85 85 89 89 77 59 47 38 6 21 22 28 24 39 58 59 72 85 86 83 88 93 90 93 91 96 85 75 71 55 43 35 34 32 30 29 26 22 20 18 18 17 16 16 17 16 15 15 15 13 10 13
90 90 84 79 86 84 82 63 45 30 6 15 33 41 43 50 54 62 68 86 88 82 89 91 91 95 96 95 89 79 70 54 41 36 37 32 28 27 25 23 22 22 21 21 18 17 18 14 14 14 16 16 13 10
86 95 84 77 80 80 78 58 43 27 10 6 26 37 41 43 50 60 66 90 98 90 84 86 95 97 96 90 86 83 69 47 40 38 38 32 28 24 23 22 23 23 23 25 23 20 18 17 13 12 14 17 18 14
94 93 76 73 72 75 72 54 36 27 12 5 13 22 26 34 53 60 70 94 100 96 82 84 87 92 95 94 87 87 66 45 46 43 39 32 26 24 23 23 23 24 25 27 26 25 25 19 14 14 14 14 18 20
92 85 82 78 80 81 71 55 36 27 12 7 10 12 24 34 51 60 63 78 86 95 96 88 87 84 90 91 89 89 59 48 56 49 40 30 26 24 23 23 23 23 24 27 27 27 28 27 19 22 21 16 16 21
86 75 81 83 84 83 75 60 38 23 10 5 12 14 29 35 40 49 60 77 98 100 92 84 79 80 90 94 91 84 60 61 63 56 39 28 26 27 27 24 23 23 23 25 24 26 30 32 32 32 30 28 23 21
76 76 83 85 86 85 75 54 34 21 8 6 8 15 16 25 31 44 61 75 97 93 88 79 79 86 92 93 91 78 63 68 68 53 34 28 31 33 31 26 25 22 23 24 24 24 26 30 32 35 36 40 36 23
80 90 89 83 84 76 60 43 28 18 10 14 29 28 30 16 25 39 54 74 99 94 82 88 89 93 87 92 91 76 65 71 62 47 32 32 36 37 34 28 25 24 25 24 23 22 24 26 31 38 40 42 43 36
78 74 77 75 73 61 44 28 19 14 21 36 31 29 31 25 34 51 63 76 95 92 96 84 83 89 94 94 88 84 73 66 60 48 32 38 40 40 34 30 26 27 26 24 23 22 24 26 30 34 38 43 49 47
89 87 84 72 58 43 26 18 15 38 36 26 15 14 30 39 45 48 60 78 87 74 79 92 88 93 93 91 86 83 77 68 62 55 35 43 44 41 36 33 29 30 27 25 23 22 24 26 29 34 40 45 52 55
96 82 64 54 38 22 14 16 37 29 16 13 11 28 74 56 37 35 57 74 66 62 71 89 97 93 93 86 86 90 80 65 56 52 36 47 43 42 39 37 33 34 31 28 25 22 25 27 29 32 37 43 51 60
93 66 43 31 20 13 18 27 15 13 25 32 55 100 100 93 100 49 50 46 42 44 62 91 99 94 90 83 79 82 77 63 62 47 39 49 42 46 43 40 42 42 38 31 26 25 28 28 28 30 34 41 49 58
70 33 29 23 14 14 21 11 11 29 59 62 96 100 100 100 46 42 37 39 44 62 91 100 99 92 87 80 80 76 75 61 52 38 46 47 49 48 44 48 51 50 42 33 28 28 31 32 32 32 32 37 44 53
26 24 17 12 20 18 11 16 69 98 100 99 100 100 100 65 31 43 44 44 56 89 99 97 96 94 92 65 70 74 64 48 42 47 48 51 50 49 48 53 53 50 44 34 31 32 34 36 36 36 35 38 46 54
19 13 23 29 18 17 34 95 100 100 100 100 100 100 86 55 45 43 46 60 85 98 96 90 86 75 63 59 61 63 55 46 55 54 49 46 54 52 51 56 55 54 45 37 35 36 38 40 41 40 38 40 48 57
22 36 31 17 25 82 100 100 100 100 100 100 97 98 84 58 53 55 84 83 96 97 86 80 80 71 53 55 59 64 58 66 59 53 50 54 54 51 56 58 60 58 50 42 39 39 42 43 44 43 40 42 50 55
54 34 21 25 63 100 100 100 100 99 98 99 96 100 87 87 100 92 97 95 94 85 94 95 84 69 58 66 90 90 66 61 57 58 60 60 60 61 61 62 64 61 55 48 44 45 46 48 49 45 42 45 52 57
62 60 59 80 81 83 100 100 100 100 100 98 82 99 100 100 100 100 100 100 100 100 99 98 87 67 72 93 95 78 68 66 66 72 70 66 64 66 66 70 71 65 59 53 49 49 52 53 51 47 45 48 54 59
92 100 98 99 100 100 96 99 100 99 100 100 73 95 100 93 100 100 100 99 94 98 96 89 96 98 98 98 93 77 74 75 75 77 72 69 69 70 70 73 69 63 60 54 55 57 57 56 52 49 50 53 57 54
100 100 100 92 96 100 99 100 100 93 92 96 87 100 100 100 99 99 100 99 96 92 92 94 100 96 98 98 95 87 83 79 78 74 71 71 68 73 75 73 66 63 60 62 64 62 60 57 54 54 56 58 57 49
100 100 98 100 100 100 100 100 100 99 94 94 93 100 100 100 100 100 100 98 97 93 92 94 95 94 96 98 96 91 85 83 84 75 74 70 68 74 72 68 66 64 67 72 71 66 63 59 59 59 60 59 52 42
100 100 100 100 100 100 100 100 100 98 94 96 100 100 100 100 100 100 98 98 98 95 96 92 93 96 99 98 96 89 90 97 91 80 79 80 84 82 71 68 66 68 74 78 74 68 64 64 63 62 62 55 44 35
100 100 100 100 100 100 100 100 100 100 98 100 100 100 99 100 100 99 95 100 98 87 95 96 98 99 99 97 96 96 97 97 93 86 85 88 91 86 78 72 72 74 80 81 74 69 70 68 66 64 57 46 36 29
100 100 100 100 100 94 99 100 100 100 94 90 99 100 100 100 100 99 99 99 97 90 96 97 98 98 99 98 98 98 98 98 96 93 93 94 93 90 84 81 80 82 84 80 77 77 74 71 66 59 48 39 33 25
100 100 100 95 99 100 99 100 98 86 97 100 100 100 100 99 100 100 100 99 96 89 94 100 99 99 100 99 98 97 98 98 97 97 96 97 97 94 90 88 88 88 88 85 83 78 72 68 60 49 40 34 27 18
98 87 87 99 100 82 84 99 100 98 100 100 100 100 100 100 100 100 96 95 92 94 94 100 100 100 99 97 98 98 98 98 98 98 97 97 97 96 94 94 93 94 93 88 80 74 68 60 50 42 35 27 20 10
75 97 83 73 75 70 74 87 98 100 100 100 100 100 100 96 96 100 98 94 88 97 100 100 99 98 98 98 98 98 98 98 98 98 97 98 98 99 99 97 96 93 88 82 76 69 60 52 44 36 29 20 10 10
44 50 56 64 81 80 94 100 100 100 100 100 100 100 100 100 100 100 100 97 95 100 100 100 100 99 98 98 98 98 98 98 99 100 99 99 100 100 99 97 93 90 83 76 69 61 54 46 37 29 19 10 12 14
87 73 87 99 100 98 100 100 100 100 100 100 100 100 100 100 99 99 100 97 97 98 99 99 99 99 99 99 99 100 100 100 100 100 100 100 100 100 98 95 91 83 76 71 64 56 47 37 29 19 10 12 14 23
100 100 100 100 100 100 100 100 100 100 100 100 100 100 98 96 95 98 99 98 100 100 100 100 100 100 100 100 100 100 100 100 100 100 100 99 99 99 98 90 82 78 74 66 59 48 37 29 19 11 12 13 29 39
100 100 100 100 100 100 100 100 100 100 100 100 99 98 96 98 100 100 100 100 100 100 100 100 100 100 100 100 100 100 100 100 100 100 98 98 100 97 90 87 83 77 70 60 47 35 28 15 12 17 27 44 43 39
100 100 100 100 100 100 100 100 100 100 100 100 100 100 100 100 100 100 100 100 100 100 100 100 100 100 100 100 100 100 100 100 100 99 99 99 96 94 92 87 80 73 61 47 36 26 13 12 25 43 46 45 43 39

GFSWCAN_500_rhum_111.txt.gz
RH
89 89 80 91 89 82 57 44 39 15 8 12 13 14 19 28 34 38 52 62 67 66 62 76 78 77 76 93 73 58 51 41 33 28 28 26 24 22 20 17 17 17 18 18 17 17 15 20 16 18 20 21 19 13
80 95 83 94 92 87 61 49 45 33 8 10 15 16 17 23 29 38 51 67 64 68 65 74 78 78 78 86 92 65 51 39 32 29 28 26 24 21 19 18 18 19 19 19 19 18 19 20 20 18 18 20 25 16
60 97 79 91 95 93 73 46 44 51 38 10 16 18 21 22 24 34 43 62 68 64 68 71 74 75 75 79 81 72 62 46 34 29 31 26 22 20 18 18 18 20 21 21 21 21 20 21 22 23 24 19 21 26
61 81 85 97 94 99 78 60 51 50 53 37 11 17 22 30 30 35 38 55 65 67 68 68 72 75 78 77 78 77 74 56 39 30 32 27 22 19 19 18 18 20 20 20 23 22 20 21 24 27 29 24 20 27
51 68 99 100 94 95 74 71 53 53 54 42 29 10 14 26 31 34 39 44 56 62 67 71 71 76 75 78 80 76 74 60 40 33 34 30 23 19 20 19 19 19 20 21 21 20 20 21 23 28 30 30 30 26
53 79 96 100 93 93 74 72 70 56 60 48 34 22 6 15 32 39 39 46 49 62 70 72 74 73 72 73 79 78 72 64 41 38 40 34 24 21 21 22 21 18 20 21 21 19 20 19 21 23 26 29 29 31
71 91 96 96 96 91 76 73 82 78 66 52 33 28 15 4 14 31 35 40 53 65 81 77 73 70 70 72 79 80 77 70 44 47 48 38 25 22 24 25 23 20 20 22 20 19 19 18 20 22 23 24 27 29
56 86 94 97 97 93 81 73 83 81 71 56 36 35 23 7 6 18 28 31 47 58 74 75 72 74 69 72 75 77 78 70 50 49 53 40 26 24 30 29 25 22 21 23 21 20 18 18 20 22 22 24 25 28
67 86 100 99 99 99 90 76 66 69 70 60 40 33 28 17 4 11 16 25 42 50 60 64 74 73 69 69 73 77 76 72 53 54 51 40 28 30 31 30 27 24 25 24 22 20 19 19 22 23 24 24 26 28
77 86 97 98 99 99 95 79 69 68 64 59 45 33 29 21 11 15 34 26 32 42 49 62 75 67 70 73 77 78 77 71 52 56 45 40 31 30 34 33 29 27 27 27 23 22 22 22 24 26 27 27 28 30
80 100 100 94 99 99 99 100 88 72 58 48 38 29 22 18 17 18 22 27 25 30 42 57 66 73 80 80 78 77 76 67 57 56 45 39 34 31 38 34 32 31 30 32 30 28 26 25 27 30 31 31 32 33
94 96 100 88 100 99 99 100 92 87 55 31 20 18 20 25 38 36 29 25 22 24 36 50 66 85 86 91 87 82 77 65 56 56 48 45 34 34 39 34 34 35 36 38 39 34 29 28 30 33 35 37 37 37
97 99 93 95 99 96 99 100 99 67 36 20 18 19 33 44 48 34 22 16 15 17 30 45 69 85 98 100 96 83 75 57 59 52 47 49 37 36 42 37 37 41 46 46 43 39 32 30 33 36 38 42 42 42
100 99 99 99 98 95 100 99 72 26 20 18 26 39 46 38 22 18 13 14 17 19 30 51 92 100 98 100 100 77 61 62 55 53 58 53 36 36 42 42 41 44 48 48 45 42 33 32 35 38 39 41 46 46
85 100 98 97 100 99 76 43 26 21 26 43 49 42 31 33 36 32 43 26 26 33 41 69 96 100 100 98 87 74 61 44 43 65 59 49 40 39 44 47 45 46 52 52 50 44 37 36 39 40 40 44 49 48
97 93 93 99 98 75 45 26 25 30 41 48 32 24 41 60 95 94 72 45 57 42 58 100 100 100 86 82 63 60 44 40 67 72 61 49 40 43 48 46 46 51 54 55 54 52 47 44 43 43 44 47 51 51
98 97 96 86 49 22 18 21 30 37 32 38 54 77 100 100 100 100 74 88 99 88 70 99 97 83 78 66 55 50 47 81 98 91 69 50 44 51 50 50 52 56 57 56 54 52 50 50 50 52 51 53 53 54
100 92 56 22 17 16 24 27 26 30 42 72 100 98 100 100 97 100 100 100 100 100 88 98 96 95 70 58 56 90 91 87 87 73 64 50 54 57 56 58 60 61 62 61 54 51 51 54 58 57 58 58 58 58
83 36 20 18 36 37 27 32 51 78 94 94 100 100 100 100 100 100 100 100 90 100 100 100 99 84 72 80 98 100 90 96 83 71 55 55 60 62 64 65 66 66 65 62 56 52 52 57 60 63 66 63 62 63
22 21 24 39 44 35 61 89 90 100 100 86 99 100 100 97 100 100 99 100 96 100 100 90 79 81 98 100 100 98 90 100 91 77 62 62 65 67 67 68 68 68 63 60 57 56 59 62 67 68 68 65 68 70
25 31 48 51 56 58 98 100 100 91 79 99 100 100 100 100 99 90 100 100 100 100 100 98 100 99 100 100 100 96 92 100 96 80 67 72 76 73 73 73 73 72 71 65 63 62 61 68 74 71 69 70 72 70
42 59 80 90 78 88 94 100 96 94 74 98 97 100 100 94 95 100 100 100 100 100 100 100 99 100 100 100 100 100 99 100 94 83 81 82 80 79 76 75 77 78 75 69 67 67 69 75 76 74 75 74 73 69
71 89 100 89 78 97 100 100 100 98 96 97 100 100 100 91 99 100 100 95 99 100 100 100 100 100 98 94 100 99 99 100 100 91 87 87 88 85 78 78 83 80 75 71 70 72 77 79 78 78 76 74 71 64
100 100 100 99 92 100 100 100 100 100 100 100 96 95 100 92 97 100 92 100 100 100 100 100 100 100 96 94 94 99 99 100 100 98 96 96 96 94 86 84 85 84 80 77 78 80 82 82 80 78 76 73 67 58
100 100 100 98 94 100 100 100 95 98 100 100 100 100 100 100 100 100 96 100 100 100 100 100 100 92 88 94 96 98 98 100 100 98 98 99 100 97 96 93 91 89 85 85 85 86 85 83 81 79 74 68 60 54
100 100 100 96 99 97 100 91 86 100 100 100 77 91 100 96 100 96 100 100 99 100 100 100 99 95 99 100 100 99 99 99 99 99 98 99 99 98 98 98 94 91 89 87 87 87 86 83 81 76 70 62 56 48
100 97 100 89 87 82 74 72 98 100 100 87 72 81 88 93 97 100 100 100 100 100 100 100 97 98 99 99 98 99 99 99 99 99 99 99 98 98 98 97 95 94 89 88 88 86 84 84 79 71 64 58 50 37
100 96 85 92 96 89 85 95 96 86 75 69 80 83 83 77 100 100 100 100 100 100 100 100 98 99 98 99 99 99 99 100 99 98 99 100 99 99 98 97 96 92 90 89 86 85 87 81 74 67 61 51 39 30
100 82 86 98 100 98 94 87 80 74 68 59 74 94 88 97 100 100 100 100 100 100 100 100 98 100 100 100 100 99 99 99 100 99 99 100 100 99 98 98 95 90 88 87 89 91 85 77 70 62 52 40 30 18
94 88 100 97 83 66 54 50 57 62 59 60 83 94 99 100 100 100 100 100 100 100 100 99 98 100 100 100 100 99 99 99 100 100 99 99 100 100 99 94 90 91 89 91 92 87 79 73 64 52 38 30 18 12
82 65 60 56 44 39 38 41 48 49 60 90 100 100 100 100 100 100 100 100 100 100 100 100 100 100 100 100 100 100 100 100 99 99 100 100 100 99 97 95 94 94 96 92 87 81 75 64 51 39 31 17 13 25
74 48 40 67 87 88 92 89 65 77 100 100 100 100 100 100 100 100 100 100 100 100 100 99 99 100 100 100 100 100 100 100 100 100 100 100 100 100 99 99 98 96 92 88 83 75 62 52 41 33 17 12 27 36
98 100 100 100 100 100 100 100 100 100 100 100 100 100 99 96 97 97 100 100 100 100 100 100 100 100 100 100 100 100 100 100 100 100 100 100 100 100 99 97 95 94 91 83 73 63 53 40 32 16 14 29 34 32

GFSWCAN_500_rhum_114.txt.gz
RH
95 73 54 61 50 60 66 78 63 31 11 10 12 15 24 28 26 30 39 38 37 40 43 48 53 58 58 59 64 56 49 44 31 24 24 22 19 16 15 14 15 15 14 14 14 15 14 15 18 19 20 22 23 17
94 72 58 70 48 53 80 77 76 44 25 12 9 12 14 23 27 25 30 36 36 36 44 44 52 58 55 59 66 58 54 45 32 25 24 22 18 16 14 14 16 16 15 14 14 15 14 15 16 18 20 22 23 20
95 86 76 74 49 45 71 82 77 66 42 25 18 10 9 15 17 20 28 31 35 35 41 43 49 60 58 57 66 63 54 49 35 27 26 24 19 16 15 15 14 15 16 14 13 14 14 14 16 17 18 21 19 21
95 78 78 71 48 42 90 87 82 75 54 43 25 16 11 9 13 18 20 30 34 40 40 42 47 57 62 62 64 68 63 57 43 35 26 27 23 19 16 15 16 15 16 16 15 14 14 14 15 17 18 19 21 22
96 88 73 63 52 55 83 96 83 80 74 48 38 28 20 14 10 12 18 22 23 37 48 47 49 53 60 64 64 64 64 59 56 50 32 27 28 22 17 16 17 18 16 17 18 15 14 14 15 17 19 21 22 22
98 95 90 62 45 58 71 88 88 88 84 60 43 38 33 24 18 13 8 13 19 31 45 54 51 51 57 62 65 68 66 62 58 59 40 29 31 28 20 18 18 20 17 17 20 17 15 15 16 17 19 21 22 24
96 97 94 63 48 64 76 88 95 95 90 81 53 44 41 33 30 24 15 11 19 25 30 47 52 48 51 58 62 68 69 69 60 60 50 34 34 33 24 21 20 22 19 17 21 19 17 16 17 19 20 22 24 27
98 96 96 73 58 80 91 88 100 99 97 91 79 55 48 41 37 35 27 14 11 21 30 33 43 52 56 60 61 64 68 67 65 59 56 42 37 37 28 21 24 26 22 19 22 21 18 18 18 21 23 23 26 29
92 89 93 83 59 85 100 85 99 99 96 92 92 73 58 46 44 38 35 28 18 10 14 27 33 54 65 66 68 64 62 65 62 63 63 48 40 40 32 24 26 27 25 22 24 25 20 21 21 22 25 24 27 31
96 97 97 68 64 77 94 97 100 98 99 97 90 76 59 58 62 49 39 33 26 23 14 9 26 40 59 72 76 72 65 64 60 63 63 49 43 49 36 27 28 28 28 25 26 28 28 26 25 23 25 25 28 31
84 95 93 95 69 83 96 98 100 98 97 88 94 95 87 80 76 66 48 42 35 28 23 17 11 30 54 68 79 76 64 62 58 58 61 46 53 46 34 31 29 30 28 27 29 31 34 35 32 26 26 27 29 30
74 88 96 98 96 93 98 99 100 97 97 98 98 98 98 82 76 66 55 47 38 32 22 19 12 16 48 77 89 82 76 64 54 53 57 45 70 42 38 32 32 32 29 29 33 35 35 36 36 30 28 29 32 31
96 85 86 90 95 100 98 98 98 99 94 99 100 100 98 88 71 55 45 35 25 19 19 16 16 18 27 68 92 100 79 61 54 51 47 50 69 53 45 36 35 35 32 31 37 38 37 37 38 33 30 33 35 36
90 82 93 100 100 100 99 100 100 99 100 100 100 98 96 78 50 34 39 35 27 22 20 19 21 32 38 36 98 99 80 66 48 40 45 72 73 56 49 39 37 38 36 36 38 39 38 38 40 40 38 37 37 38
100 100 100 100 100 100 99 99 100 96 95 98 98 90 64 57 58 39 31 27 24 25 24 29 37 42 53 63 53 94 79 50 36 38 63 95 82 58 50 41 39 42 44 42 40 40 40 42 42 40 40 38 38 42
100 100 98 100 100 100 100 100 100 100 92 98 81 69 55 53 46 35 27 28 35 43 51 55 55 62 58 50 43 64 51 34 36 54 93 98 97 81 65 46 41 45 49 45 43 43 46 46 43 41 41 42 46 50
100 98 100 100 100 100 100 100 100 90 80 73 68 66 50 30 21 22 32 53 62 58 48 64 41 38 45 29 28 45 37 39 60 93 97 99 100 100 70 50 45 53 54 49 50 52 53 53 49 46 47 48 52 55
99 100 100 100 100 100 100 97 100 99 90 75 50 24 22 27 40 45 60 59 66 76 100 88 86 56 30 16 28 43 68 80 100 99 97 98 100 93 71 58 54 60 60 58 59 59 60 59 55 50 51 52 55 57
100 100 100 100 100 100 100 100 99 88 62 30 23 30 40 40 36 76 84 99 100 100 100 95 100 86 28 23 43 81 100 98 99 98 96 97 100 94 69 67 69 68 68 68 68 65 62 62 58 54 54 53 58 61
100 100 100 100 100 100 100 96 79 38 26 25 34 44 43 49 90 89 99 100 100 100 100 92 77 90 82 54 82 100 100 98 97 98 98 99 99 99 79 76 77 78 76 74 71 67 64 65 62 58 59 61 63 65
100 100 100 100 100 100 84 37 25 26 33 47 47 52 61 77 89 90 100 100 100 94 93 91 81 100 100 100 100 100 99 97 99 100 98 98 98 99 87 80 84 84 80 76 74 71 71 71 65 65 66 66 68 68
100 100 100 100 91 38 27 28 38 56 57 49 57 72 94 97 100 77 89 99 93 91 100 100 100 100 100 100 98 98 99 99 98 99 98 98 98 99 98 92 92 87 83 83 81 77 76 74 73 74 75 75 73 72
100 100 98 64 31 28 40 52 66 58 46 53 77 92 94 97 91 95 91 79 83 100 100 100 100 100 100 99 99 100 99 100 99 99 99 99 99 99 100 100 98 94 92 92 88 84 84 84 84 83 83 81 77 73
100 73 41 39 35 42 59 76 69 59 49 65 86 97 100 96 100 93 58 62 83 100 100 100 100 100 100 100 100 100 100 100 99 99 99 98 98 99 98 100 100 98 98 99 98 95 94 94 92 90 88 83 77 72
55 58 53 53 44 69 99 86 70 62 55 75 99 100 100 100 100 87 64 91 100 100 100 100 100 100 100 100 100 100 99 100 100 100 99 99 98 98 99 98 98 98 98 98 98 100 100 99 97 92 85 79 74 71
88 75 73 57 88 100 80 79 100 91 85 97 100 99 100 99 94 94 100 100 100 100 100 100 100 100 100 100 100 99 99 100 100 100 99 98 99 99 99 99 98 99 98 98 98 100 100 100 96 88 82 77 73 70
100 100 79 85 100 92 89 98 96 90 97 98 100 100 100 100 98 94 77 96 98 100 100 100 100 100 100 98 99 99 99 100 98 97 100 100 100 99 98 99 99 100 99 99 99 100 100 98 90 86 81 76 71 65
100 100 96 86 99 100 100 100 81 83 95 96 100 99 80 70 72 79 94 99 100 100 100 100 100 100 100 100 100 100 100 100 100 99 100 100 99 99 100 99 100 100 99 99 100 100 98 93 88 83 78 71 66 57
100 100 88 82 100 97 100 100 91 96 92 94 100 100 94 87 89 87 99 100 100 100 100 100 100 100 100 100 100 100 100 99 99 99 99 99 99 100 100 100 100 100 100 100 100 98 94 89 84 79 73 67 57 45
99 87 84 84 86 97 92 99 97 90 86 88 75 61 63 88 95 95 99 100 100 100 100 100 100 100 100 100 100 100 100 99 98 99 100 100 100 100 100 100 100 100 100 100 99 95 90 85 81 74 67 57 43 28
99 92 56 57 71 90 100 98 92 90 77 75 68 51 60 68 72 92 98 100 100 100 100 100 100 100 100 100 100 100 100 100 100 100 100 100 100 100 100 100 100 100 100 99 96 91 86 81 74 66 56 43 30 17
87 90 91 99 100 97 99 88 74 50 49 41 34 34 40 48 87 92 99 98 100 100 100 100 100 100 100 100 100 100 100 100 100 100 100 100 100 100 100 100 100 100 99 96 92 88 81 75 66 55 42 32 17 10
91 92 100 100 98 90 64 54 48 40 33 31 37 64 62 78 100 100 100 100 100 100 100 100 100 100 100 100 100 100 100 100 100 100 100 100 100 100 100 100 100 100 98 93 87 81 74 64 51 41 32 17 10 20

GFSWCAN_500_rhum_117.txt.gz
RH
96 94 85 82 97 90 57 48 77 77 62 36 16 11 13 14 24 25 23 22 23 27 32 32 33 37 41 37 39 38 31 37 35 28 21 21 18 15 12 12 13 11 10 9 9 9 10 11 13 15 16 17 17 17
96 95 92 85 94 73 66 53 48 67 78 66 38 27 12 11 15 16 26 24 26 25 28 34 36 36 42 42 41 47 41 33 38 32 24 21 20 17 14 12 13 13 12 11 9 9 9 10 12 14 16 18 19 20
97 95 94 89 89 73 62 52 53 48 62 75 69 41 32 15 10 11 12 13 15 23 27 29 32 39 43 49 47 47 49 41 36 36 28 23 23 21 16 14 13 13 14 14 12 10 10 11 11 12 14 17 19 20
96 96 97 95 96 93 79 60 55 55 46 55 75 68 45 35 14 11 9 10 14 17 25 27 32 34 39 46 54 52 51 53 44 40 32 27 23 25 23 17 15 15 15 14 15 15 12 11 11 12 14 15 15 19
94 97 98 98 94 96 87 73 65 67 56 48 58 85 71 48 31 17 15 11 10 13 20 27 25 28 37 40 48 57 56 56 58 53 45 33 30 24 26 22 16 16 17 17 15 18 16 13 13 13 14 16 15 16
96 96 96 96 97 98 96 91 70 80 68 56 57 77 80 74 51 34 26 22 20 10 12 20 23 25 28 36 45 51 59 60 55 59 55 43 43 32 25 28 23 18 18 20 17 17 20 16 15 14 15 16 17 17
91 96 98 97 95 96 98 97 96 72 89 77 63 61 63 87 74 50 39 33 27 25 19 15 17 22 31 38 44 46 51 58 60 57 58 51 52 39 29 35 29 23 20 23 20 18 22 19 17 17 17 18 18 19
88 97 93 98 93 95 96 97 96 96 94 94 78 79 60 73 82 74 59 46 39 34 31 25 27 18 22 31 41 48 49 52 53 57 60 61 50 44 38 42 35 29 22 25 25 20 22 23 20 20 20 20 20 21
48 94 97 97 94 93 96 98 97 97 95 95 86 81 67 65 94 99 83 68 52 46 39 32 37 32 20 17 28 46 51 52 50 48 54 58 50 40 54 49 39 34 25 27 27 24 23 26 26 25 25 24 24 23
63 48 95 96 95 95 95 98 98 96 98 96 87 89 61 76 99 100 96 87 66 55 45 37 36 39 32 22 16 29 44 58 46 46 52 44 39 64 65 56 43 38 29 28 30 28 26 28 30 34 33 31 28 26
90 94 96 98 97 98 99 98 98 96 98 94 96 94 80 85 99 97 95 79 72 54 49 40 36 39 38 30 22 18 24 45 51 49 48 38 36 70 88 61 43 48 33 33 33 30 31 32 35 35 35 34 32 29
81 99 99 99 99 100 98 94 96 90 94 96 98 98 98 97 92 99 83 62 48 63 64 38 41 49 47 39 30 25 21 27 40 43 43 35 44 75 94 76 55 54 37 36 37 34 35 37 36 36 35 35 36 35
100 99 99 91 83 100 98 100 97 97 99 100 98 95 94 95 90 75 76 50 38 70 75 74 74 64 56 40 30 25 22 17 16 33 34 33 53 73 94 90 63 58 39 41 42 39 40 40 39 38 37 39 39 37
97 99 89 95 98 99 99 99 100 100 100 99 97 94 92 75 76 77 52 68 100 100 100 98 93 78 59 40 30 25 21 18 14 12 24 37 55 90 94 88 73 65 48 42 44 46 45 42 42 41 41 42 40 40
98 100 99 68 78 100 99 100 96 99 100 99 93 89 72 83 90 76 64 85 99 100 99 100 100 92 75 54 32 23 18 11 9 9 16 42 57 89 95 88 84 74 65 47 50 53 54 48 46 46 46 47 46 44
77 76 90 98 100 100 100 100 100 98 98 100 86 77 79 93 69 56 81 100 100 100 100 98 98 97 67 36 26 18 15 9 9 9 14 31 65 96 98 100 96 76 76 55 52 56 59 54 52 52 52 54 54 51
100 98 99 100 100 100 100 100 99 100 96 83 71 72 79 67 67 76 92 100 100 100 100 100 94 65 38 22 13 10 10 12 17 14 13 26 47 97 99 100 100 90 92 75 59 58 63 60 58 61 62 62 60 59
99 100 100 100 100 100 100 100 100 97 86 74 76 70 68 87 100 100 100 100 100 98 72 45 30 19 13 10 10 14 16 20 25 26 37 36 39 98 98 99 98 85 94 82 70 70 70 65 65 68 68 67 66 66
100 100 100 100 100 99 100 98 97 90 81 80 80 80 91 97 100 100 100 99 67 35 33 25 19 13 13 13 14 17 20 24 27 29 31 27 50 99 100 100 100 90 89 82 81 87 77 73 75 74 75 77 75 74
100 100 100 100 100 100 100 100 98 98 92 87 91 95 98 100 100 100 74 32 34 34 26 20 18 20 23 27 37 29 46 41 44 37 27 24 90 99 100 99 99 98 92 86 91 95 87 84 84 84 86 86 84 82
100 100 100 100 100 100 100 98 98 90 89 89 94 100 100 100 92 36 30 33 30 24 25 25 34 51 69 73 84 82 100 100 93 47 58 66 100 99 100 99 99 100 99 95 100 99 97 94 94 94 93 92 93 92
100 100 99 100 100 100 100 96 98 97 100 96 100 100 94 57 34 34 38 31 25 29 40 60 83 94 93 92 100 99 100 100 97 81 93 100 100 100 100 100 100 100 98 99 100 100 100 100 100 100 100 98 99 100
100 100 100 100 100 100 100 99 97 95 96 100 99 68 36 36 36 33 30 26 36 61 73 89 88 82 86 96 97 99 100 100 100 100 100 100 100 100 100 99 99 99 99 99 100 100 100 100 100 98 98 98 99 100
100 100 100 100 99 99 93 90 82 88 100 66 38 38 41 39 32 31 30 41 53 65 72 68 68 87 95 87 94 100 100 100 100 100 100 100 100 100 100 98 98 98 98 99 99 98 98 99 99 99 99 99 99 100
100 100 100 95 90 89 81 85 100 91 47 42 54 49 42 40 42 44 49 87 87 54 56 83 98 100 100 100 100 100 100 100 100 100 100 100 100 100 99 98 99 99 98 96 98 99 98 99 99 99 99 99 100 99
100 97 98 86 81 88 92 93 73 51 56 63 55 57 64 83 82 60 62 98 92 67 79 89 95 100 99 100 100 100 100 100 100 100 100 99 98 100 99 98 99 99 99 99 100 99 99 99 99 99 98 98 97 91
99 90 88 86 91 87 69 62 64 65 66 63 54 70 82 78 60 74 100 93 96 86 99 100 100 100 100 100 100 100 100 99 98 100 100 98 100 100 100 100 100 99 99 100 100 99 99 99 99 99 97 95 90 84
88 82 86 83 72 66 56 71 80 84 78 61 57 80 74 52 76 100 99 95 93 94 97 100 100 100 100 100 100 98 94 95 96 100 100 100 100 100 100 100 99 99 100 100 100 100 99 99 100 98 94 90 84 74
92 84 70 57 76 81 75 77 75 80 90 73 68 65 58 82 96 97 94 71 83 80 100 100 100 100 100 100 100 98 99 99 95 100 100 100 100 100 100 100 100 100 100 100 100 100 100 100 99 94 89 82 74 65
72 79 81 83 96 98 84 82 91 97 75 68 82 72 91 100 97 93 100 99 95 97 100 100 100 100 100 100 100 100 100 100 100 100 100 100 100 98 99 100 100 100 100 100 100 100 100 99 94 88 81 72 64 50
92 94 99 95 89 100 100 100 100 86 71 75 81 92 81 64 64 79 96 100 95 100 100 100 100 100 100 100 100 100 100 100 100 100 100 100 100 100 100 100 100 100 100 100 100 100 98 93 88 81 72 63 44 18
89 94 99 97 80 82 93 96 98 98 85 78 83 73 68 70 81 97 100 97 98 100 100 100 100 100 100 100 100 100 99 100 100 100 100 99 99 100 100 100 100 100 100 100 100 97 93 88 79 70 58 31 14 12
82 88 94 97 87 72 79 85 96 99 99 88 71 45 40 40 44 50 86 99 100 100 100 100 100 100 100 100 100 100 100 100 100 100 100 100 100 100 100 100 100 100 100 100 97 94 87 77 66 44 20 15 13 9

GFSWCAN_500_rhum_123.txt.gz
RH
81 80 74 68 72 72 71 72 86 86 75 54 42 52 36 33 27 12 11 10 10 11 12 18 21 22 23 26 33 39 43 40 38 36 32 27 22 18 17 16 13 11 12 12 12 11 9 8 10 11 12 12 12 10
85 88 86 76 72 75 84 82 75 83 90 78 45 46 45 40 34 36 26 22 18 12 11 13 14 16 14 18 27 31 33 36 41 45 42 38 33 31 24 19 18 16 14 13 13 13 12 10 9 10 12 12 13 12
81 83 91 88 77 73 78 82 81 89 92 94 94 79 52 45 50 38 37 47 36 23 20 11 12 10 13 14 14 21 26 29 37 41 47 46 47 39 37 30 22 20 16 14 13 13 14 15 13 10 10 12 13 14
89 83 92 95 92 85 83 76 88 86 94 96 86 96 78 53 42 47 40 39 52 46 32 26 18 19 16 12 12 12 17 28 26 28 35 46 51 48 50 44 37 27 22 19 17 15 16 15 16 16 12 11 13 14
96 94 89 86 96 97 92 87 84 92 98 94 93 99 97 84 64 57 56 45 48 56 45 50 40 37 29 25 19 15 13 14 19 19 19 26 38 52 50 46 51 44 29 23 24 20 16 17 18 17 18 14 13 15
97 94 92 86 89 97 95 96 90 96 99 100 100 96 98 98 96 93 72 83 61 62 44 43 50 52 52 45 36 29 22 14 14 14 14 13 19 36 31 35 58 77 61 44 28 26 22 18 19 19 17 20 17 16
98 98 96 96 89 90 96 93 88 86 92 96 99 100 97 97 97 98 89 82 84 65 53 35 35 48 68 71 61 49 34 30 23 22 20 17 17 21 13 15 52 93 83 66 54 33 30 26 20 22 20 18 21 19
92 100 96 96 97 98 97 94 92 88 98 98 96 98 97 96 95 92 100 98 96 93 76 42 30 49 83 79 76 69 58 51 40 30 30 31 27 21 12 11 38 70 80 72 65 46 37 35 29 24 25 21 21 23
62 90 92 90 94 97 93 70 86 99 99 99 98 98 96 84 78 89 100 98 98 96 81 48 42 55 70 90 91 78 83 76 63 51 44 37 34 21 19 19 24 50 58 63 75 60 54 44 39 32 26 29 23 22
21 22 38 51 58 63 35 40 76 100 100 98 97 96 93 88 99 100 98 97 96 96 86 61 49 57 71 86 87 86 76 83 62 52 59 52 42 39 32 31 23 20 32 46 55 73 79 62 55 47 32 31 31 26
2 3 4 8 8 24 17 30 100 100 99 97 97 100 98 97 100 99 97 94 88 78 80 77 68 65 84 96 95 95 74 65 64 57 43 32 32 49 53 52 36 28 18 33 49 57 71 77 78 63 50 34 33 31
1 1 1 2 3 4 8 18 93 99 98 98 100 99 99 99 99 100 94 90 80 65 64 79 87 88 98 98 98 92 91 74 59 43 30 20 39 42 57 47 38 28 17 17 37 61 70 75 81 83 70 56 36 36
2 2 2 2 1 2 4 8 83 100 100 100 100 99 98 98 99 85 66 45 44 56 74 85 95 97 97 100 96 94 92 78 65 46 34 28 45 61 61 53 41 29 17 13 17 42 63 73 84 86 90 76 43 40
2 2 2 2 2 1 2 4 22 99 100 100 100 100 98 97 77 69 65 46 58 67 89 98 98 79 88 100 98 92 94 79 66 47 53 46 53 52 62 66 53 40 28 14 12 15 40 65 77 89 96 90 63 43
3 3 2 2 2 2 2 2 50 27 100 100 100 100 90 78 75 71 82 83 74 98 100 98 98 98 100 100 95 93 76 62 49 48 65 50 48 55 58 62 58 49 31 21 14 10 12 48 72 82 100 96 78 48
3 3 3 2 3 63 72 72 100 33 40 100 100 100 89 87 76 67 75 74 83 94 100 98 98 97 97 100 91 84 68 44 61 84 60 45 52 54 54 54 56 52 47 32 22 12 10 11 47 78 91 99 87 56
3 2 11 26 51 46 92 100 100 100 100 100 100 90 88 94 88 96 100 100 100 100 99 100 97 100 98 97 82 57 47 82 96 74 64 54 49 48 47 56 56 50 45 45 29 14 9 10 12 66 90 100 96 77
4 9 48 34 54 61 91 88 86 100 100 99 81 73 88 98 89 100 98 99 96 96 98 98 100 96 95 82 50 53 76 95 90 76 71 63 55 53 51 54 54 50 47 41 31 19 13 10 10 46 85 97 99 94
100 100 100 100 100 100 100 100 100 100 97 89 87 84 88 78 88 100 100 96 94 97 99 99 99 79 76 69 89 84 79 77 70 58 54 58 58 53 48 48 49 45 39 29 25 21 16 11 10 21 90 98 100 98
100 100 100 100 100 100 100 89 86 98 96 97 95 88 85 84 100 100 100 100 100 100 98 80 67 86 100 100 86 90 86 68 58 54 55 58 54 47 46 46 43 40 32 23 18 13 13 13 13 17 87 99 100 100
100 100 100 100 100 100 100 100 100 100 96 88 74 67 81 100 98 76 95 100 100 86 73 60 84 95 100 100 86 89 85 70 58 52 48 50 54 55 51 45 37 30 23 17 12 12 12 16 20 38 85 100 99 98
100 100 100 100 100 100 100 93 94 100 100 100 100 100 100 100 100 100 100 100 93 80 79 91 100 100 98 92 99 95 73 58 53 54 54 48 40 32 24 20 19 16 12 9 12 15 15 26 55 100 100 100 100 99
100 100 100 100 100 99 98 100 100 100 100 100 100 100 99 100 100 100 100 85 76 88 100 100 100 96 91 91 78 65 57 54 48 38 30 24 18 14 14 15 15 14 14 17 25 34 52 35 75 100 100 100 100 100
100 100 100 100 100 100 96 88 96 100 100 93 94 92 96 100 100 100 85 79 97 100 100 99 98 93 78 70 60 54 46 34 21 12 12 18 26 49 63 65 53 66 59 52 86 100 100 98 95 100 100 100 100 100
100 100 100 99 96 95 98 88 79 76 79 69 63 72 90 100 100 98 79 86 100 100 100 98 82 64 54 52 41 24 14 14 16 27 48 79 93 87 100 100 100 100 82 98 100 100 100 100 100 100 100 100 100 100
100 98 96 92 86 80 91 100 100 99 97 98 99 94 100 100 100 90 83 100 98 84 73 64 58 52 40 23 13 24 67 66 43 54 74 76 92 100 100 100 100 100 100 100 100 100 100 100 100 100 100 100 100 100
88 76 77 75 61 65 82 96 100 100 100 100 100 100 100 94 74 66 99 94 78 67 59 50 40 25 17 17 39 56 55 40 48 78 97 86 62 94 100 100 100 100 100 100 100 100 100 100 100 100 100 100 100 100
88 83 91 87 77 90 98 100 100 100 100 99 100 97 85 75 80 100 94 79 67 56 47 34 19 18 20 38 55 53 64 86 83 90 98 98 70 72 100 98 98 100 100 100 100 100 100 100 100 100 100 100 100 100
65 63 74 74 81 91 87 93 98 100 100 100 96 95 100 100 100 87 72 65 55 41 29 25 25 19 28 37 48 59 80 85 96 100 100 100 90 69 82 82 82 93 100 100 100 100 100 100 100 100 100 100 100 100
72 79 95 94 92 93 95 100 100 99 94 87 85 89 92 93 87 75 65 52 43 38 37 34 31 49 40 37 40 63 89 99 87 100 100 97 98 100 100 100 100 100 100 100 100 100 100 100 100 100 100 100 100 100
88 99 100 100 100 100 100 100 98 93 88 86 91 93 95 93 81 64 47 46 46 50 55 50 50 53 36 32 53 97 100 98 94 100 100 99 99 100 100 100 100 100 100 100 100 100 100 100 100 99 100 100 100 100
100 100 100 100 100 98 95 92 94 96 93 87 81 78 72 65 58 50 51 51 54 58 66 64 68 47 33 51 83 95 96 98 100 99 100 100 100 100 100 100 100 100 100 100 100 100 100 100 100 100 100 100 100 93
100 100 100 100 98 93 98 100 95 92 88 86 79 74 70 61 59 61 62 56 57 58 56 48 52 49 43 50 66 96 100 100 100 99 100 100 100 100 100 100 100 100 100 100 100 100 99 100 100 100 100 100 92 70

GFSWCAN_500_rhum_126.txt.gz
RH
63 60 61 71 66 67 64 62 62 62 64 66 66 66 68 56 33 27 30 33 30 38 20 14 11 10 11 14 17 18 23 27 28 36 42 42 39 37 34 32 28 21 18 14 12 12 12 12 9 11 12 12 11 9
78 66 60 72 74 65 65 66 72 71 68 72 75 71 76 73 67 41 32 34 37 31 44 44 34 20 14 11 10 10 10 11 15 23 26 31 36 42 45 41 37 34 28 21 18 14 13 13 13 11 10 12 13 12
81 78 74 71 75 78 72 65 64 67 73 70 73 82 76 81 86 64 56 51 41 44 35 42 59 50 40 21 14 13 14 10 11 13 18 24 26 31 38 45 49 49 42 37 25 22 15 14 14 14 14 11 11 13
85 91 80 78 76 78 88 77 73 68 77 80 80 84 92 92 93 89 92 81 71 59 51 46 39 41 52 56 42 28 25 19 14 12 11 11 19 18 19 25 40 56 61 61 45 35 24 21 16 16 15 15 15 12
59 73 95 97 89 76 90 86 88 83 81 84 89 96 98 93 97 93 88 93 94 85 63 68 59 50 52 58 72 63 54 40 30 26 21 12 10 12 12 12 16 53 64 62 56 57 39 30 26 22 18 17 17 17
56 55 45 76 82 78 71 84 92 96 92 94 99 97 97 98 95 97 91 88 96 98 88 66 65 79 74 67 60 66 67 61 66 49 39 30 17 18 17 13 18 34 48 55 53 55 51 51 40 30 25 19 19 19
51 38 51 68 72 75 74 67 93 99 100 98 100 98 98 97 97 96 92 89 100 100 93 73 74 77 73 96 87 74 64 53 66 56 40 44 39 35 28 21 26 22 23 28 39 36 41 51 56 58 34 29 22 22
28 37 59 72 78 86 98 95 93 100 99 98 100 99 98 99 97 80 76 78 87 97 96 77 65 58 89 100 96 94 76 60 53 47 33 47 50 44 21 44 35 35 27 22 21 17 20 34 50 59 59 39 33 24
12 17 62 84 94 98 100 99 100 100 99 99 100 100 98 93 84 91 92 100 96 97 85 74 67 67 77 98 100 97 94 78 62 52 50 42 35 22 45 52 53 48 37 32 30 26 20 17 32 50 60 66 42 34
2 3 8 13 48 100 100 100 99 99 100 100 100 99 97 94 96 98 98 99 95 92 80 54 46 71 90 97 100 98 96 97 81 63 62 48 35 35 40 48 54 45 46 46 43 43 36 23 17 24 45 56 68 48
2 2 1 2 2 8 52 90 100 100 100 98 99 99 100 100 99 100 98 97 88 81 72 48 62 70 81 98 97 98 97 97 96 84 69 54 32 58 56 52 46 46 45 40 28 37 40 31 24 16 19 42 63 76
2 2 2 2 2 2 2 5 13 45 98 84 92 100 100 100 100 100 96 87 75 45 49 66 66 69 94 97 99 97 98 96 91 84 74 45 50 63 56 39 30 43 40 38 37 42 35 27 23 16 14 30 57 89
3 3 2 2 2 2 2 2 2 2 5 28 25 38 100 100 100 99 83 64 59 44 46 68 81 96 99 98 98 98 98 93 88 68 36 41 76 64 50 41 33 40 49 36 38 48 47 27 15 11 10 14 32 67
4 4 3 3 3 3 3 3 3 3 2 6 38 42 95 100 99 79 69 63 69 77 84 87 99 98 97 100 98 96 99 88 86 52 42 97 79 76 66 39 34 40 48 38 36 42 48 48 31 12 10 9 13 33
4 4 4 4 3 3 3 4 4 4 4 8 80 100 88 66 90 82 78 74 78 85 86 96 100 99 99 100 94 95 85 71 77 63 90 92 83 67 48 41 51 55 46 36 37 46 50 50 36 23 17 9 9 16
6 5 5 5 5 5 4 4 4 16 100 100 80 100 99 91 58 79 93 70 80 88 99 100 99 99 92 96 92 94 92 64 60 100 98 91 87 68 49 48 58 59 44 37 33 33 39 48 47 41 30 14 9 9
6 5 5 5 6 6 5 4 5 58 100 100 100 89 79 91 60 30 60 100 100 100 99 100 99 100 100 91 91 75 54 77 98 98 95 98 82 67 48 53 62 58 50 40 35 33 34 41 49 44 41 34 18 14
5 5 5 6 6 5 4 5 6 82 100 94 94 99 72 48 98 85 69 64 100 90 99 96 100 97 84 70 62 65 79 99 100 99 97 87 64 52 53 62 70 65 57 50 39 41 37 34 35 40 41 35 29 21
6 6 7 7 8 7 8 15 26 98 100 84 96 85 57 80 95 99 100 100 100 96 100 100 100 86 63 69 75 77 95 100 98 100 92 74 61 58 61 69 74 66 60 55 48 43 40 35 33 40 41 38 30 20
6 8 9 10 15 70 100 93 98 100 99 98 89 99 100 99 100 100 88 100 100 100 100 88 78 80 81 71 98 100 100 98 89 86 84 88 85 72 70 72 68 63 58 55 52 48 44 40 39 41 40 29 20 19
8 9 9 30 63 100 100 99 89 59 81 99 78 89 83 87 100 96 90 100 100 95 74 66 90 88 72 88 100 100 96 94 79 77 80 79 78 81 79 73 66 59 54 50 48 47 46 44 44 41 38 34 26 18
11 56 99 100 100 100 99 91 90 84 64 55 57 69 70 62 70 78 100 100 92 73 91 86 79 74 85 89 96 92 93 78 73 82 86 88 89 83 71 62 56 52 47 44 40 38 35 34 31 28 27 25 20 15
62 100 100 100 100 99 98 80 88 88 94 98 95 100 100 100 85 100 100 94 80 75 75 79 98 87 97 100 87 68 80 81 87 97 98 84 74 63 54 47 39 26 17 14 15 15 12 10 9 9 14 16 16 20
100 100 100 100 99 100 89 95 73 60 74 80 93 99 89 73 87 100 90 69 82 100 100 100 100 94 89 82 73 86 100 96 96 89 68 55 46 33 18 12 10 11 13 13 19 27 35 34 40 41 40 33 46 90
100 100 100 100 91 88 82 81 74 89 61 55 64 88 94 100 100 93 82 91 100 100 100 92 74 74 81 92 95 92 95 90 66 49 40 23 14 12 16 30 42 53 71 84 75 92 98 100 94 62 89 100 100 100
96 97 85 88 72 65 72 76 66 75 91 100 100 100 100 100 100 94 87 100 100 98 92 81 80 82 87 92 88 80 66 51 38 16 18 16 20 37 57 70 67 74 85 80 93 100 100 100 96 100 100 100 100 100
93 87 92 92 84 90 99 100 100 100 100 100 99 100 100 100 98 91 100 100 98 93 85 88 94 90 75 63 58 48 37 19 11 12 18 38 45 40 51 78 68 70 99 100 100 100 100 100 100 100 100 100 100 100
81 87 100 100 100 100 100 100 100 100 100 100 100 100 100 93 91 100 100 98 93 86 76 71 67 61 55 52 39 22 12 12 17 27 44 59 68 66 76 87 62 67 93 97 99 100 100 100 100 100 100 100 100 100
99 100 100 100 100 100 100 100 100 100 100 100 100 100 98 100 100 96 86 73 71 69 64 61 58 55 46 30 20 14 13 21 40 63 66 69 69 74 88 84 58 67 88 90 95 100 100 99 100 100 100 100 100 100
100 100 100 100 100 100 100 100 100 100 98 100 96 94 91 95 99 93 85 71 66 70 70 63 54 43 29 21 17 20 25 29 46 48 73 99 86 100 100 62 49 76 89 90 100 100 100 100 100 100 100 100 100 100
89 94 96 94 92 100 100 98 95 100 98 94 87 90 96 96 91 83 81 75 73 71 69 57 42 29 25 21 27 46 44 36 38 55 97 98 98 100 80 43 50 63 93 100 100 98 99 100 100 100 100 100 100 100
71 82 94 100 100 100 100 100 99 99 97 94 87 84 80 75 76 73 76 78 78 74 65 45 34 30 28 29 50 49 37 34 52 94 97 99 100 100 96 67 70 80 93 100 98 97 100 100 100 100 100 100 100 100
90 93 99 100 100 97 90 88 87 93 90 84 80 76 74 73 72 82 78 76 71 62 46 37 33 34 37 42 48 39 36 54 79 85 95 100 100 100 100 100 92 91 100 100 99 100 100 100 100 100 100 100 100 100

GFSWCAN_500_rhum_132.txt.gz
RH
68 65 60 64 61 56 55 64 73 71 66 55 56 54 54 53 52 49 53 53 48 46 52 52 56 63 63 66 76 72 68 65 53 42 38 28 14 15 16 10 9 11 13 16 23 30 38 39 36 27 20 13 12 10
59 60 62 60 58 53 55 58 58 61 70 77 66 54 57 59 57 53 53 55 51 48 45 52 56 58 60 70 66 70 78 80 82 69 50 40 40 35 32 26 13 13 14 12 14 16 14 15 33 43 41 28 19 13
45 49 45 53 62 61 54 53 57 56 58 64 71 70 59 66 68 67 64 73 61 45 47 44 58 64 58 63 68 67 82 76 87 84 74 68 53 52 42 34 28 25 20 13 14 18 15 11 11 16 36 49 46 34
40 47 41 40 39 54 63 56 54 54 58 66 64 69 67 65 78 80 73 76 73 59 48 49 63 60 60 57 66 68 84 88 87 93 92 92 83 75 72 63 35 36 21 18 18 20 14 15 12 12 12 20 37 49
28 34 43 47 25 28 44 53 51 58 62 65 75 72 73 76 88 99 96 74 74 80 63 60 76 69 78 66 71 86 91 98 89 87 88 88 83 87 71 65 52 37 28 25 22 24 21 23 21 17 14 15 14 14
13 17 22 25 19 19 22 31 47 81 82 93 98 94 84 92 100 100 88 75 86 100 96 65 59 79 75 73 74 89 88 92 100 95 89 75 85 83 50 46 59 73 54 36 32 29 22 29 28 26 18 23 24 22
2 4 7 8 8 5 11 12 23 59 100 100 100 99 99 100 100 99 95 76 92 100 98 99 79 55 71 81 93 100 100 99 100 90 80 84 88 79 49 34 100 83 82 74 40 32 23 34 20 19 22 20 21 30
1 1 1 1 1 1 1 1 4 11 72 100 100 96 100 99 100 97 99 98 95 100 100 97 82 66 65 70 89 100 99 99 96 96 83 98 90 71 34 76 97 92 78 68 65 48 42 42 36 29 19 16 20 25
2 2 2 2 2 2 1 1 1 1 2 13 59 100 98 100 96 99 100 100 99 100 99 96 82 74 67 71 78 88 100 98 96 94 99 96 83 49 63 82 86 100 83 70 73 72 65 48 27 37 30 16 19 26
3 3 2 2 2 2 2 2 2 2 2 2 2 18 57 89 95 100 100 100 100 99 100 83 74 75 72 67 78 92 97 99 94 94 98 87 61 60 79 95 78 92 69 58 62 62 42 31 27 33 28 21 24 29
4 4 4 3 3 3 3 3 3 3 2 2 2 2 3 4 8 50 94 100 100 100 95 73 57 61 75 88 87 95 95 98 95 89 92 65 54 61 97 92 80 75 58 62 63 71 68 37 32 38 29 22 24 34
5 5 4 4 4 4 4 4 4 4 4 4 4 3 3 4 4 5 23 45 71 87 88 85 71 70 72 77 86 94 95 98 92 85 77 54 53 64 89 84 68 72 73 66 72 44 39 33 31 46 32 21 27 31
7 7 6 5 5 5 4 4 4 4 5 6 6 5 6 5 6 4 4 5 5 8 40 96 98 98 98 89 88 90 100 98 91 84 64 47 58 81 82 71 80 83 80 72 52 40 39 38 35 47 41 34 23 28
10 9 8 7 6 7 7 6 6 5 5 6 8 7 8 7 5 3 2 3 23 32 52 100 100 100 100 100 100 100 100 100 96 70 47 55 81 79 87 84 90 90 92 76 65 48 46 46 43 38 52 51 31 35
12 10 9 8 8 10 11 9 8 7 7 7 8 7 4 4 5 5 4 5 6 8 26 100 100 98 99 100 100 100 100 98 83 55 56 77 92 98 92 83 78 100 85 85 74 63 54 45 49 51 46 43 40 36
13 13 13 14 14 13 13 12 11 25 17 12 6 4 4 4 4 5 6 7 15 71 74 78 99 100 100 100 100 100 100 100 76 65 89 100 100 98 94 82 84 100 84 86 83 69 59 58 53 48 52 53 46 41
22 17 14 14 15 16 17 28 54 89 75 13 5 5 5 5 5 6 7 8 11 24 75 100 61 82 77 100 100 93 71 58 100 100 100 100 100 100 91 91 80 95 98 84 85 76 66 71 70 68 72 65 57 55
16 14 13 14 14 16 24 43 75 67 26 8 7 8 10 7 6 6 7 9 89 84 32 60 91 100 100 100 93 64 71 59 100 100 96 99 99 96 96 95 90 88 100 99 92 76 65 69 73 77 70 56 53 57
15 15 16 22 42 75 61 31 30 25 10 10 11 15 11 10 8 6 7 8 64 100 87 40 100 100 93 86 66 98 100 94 80 100 100 100 100 100 100 100 100 98 99 98 93 80 77 85 89 78 64 53 50 53
23 23 28 32 76 90 85 46 27 27 12 12 22 15 9 9 10 13 11 8 11 52 100 86 96 94 90 78 78 90 100 100 94 78 94 99 100 100 100 100 100 100 100 100 99 90 90 95 90 76 68 62 64 67
25 32 69 100 100 100 100 81 33 19 23 16 18 21 18 15 11 9 7 8 12 10 7 5 5 7 10 29 73 86 71 99 100 100 100 99 100 100 100 100 100 100 100 100 97 97 99 97 89 90 86 81 72 68
42 64 71 100 100 100 70 32 30 39 37 19 26 30 20 12 10 9 22 24 9 6 5 5 20 83 98 86 87 80 68 84 100 100 100 100 100 96 97 99 100 96 85 100 100 94 80 86 91 89 79 74 71 72
91 87 95 100 92 47 30 50 47 38 27 21 39 35 15 14 20 47 32 13 6 5 6 23 82 86 81 76 90 100 99 100 97 80 93 100 99 100 86 92 76 94 100 100 99 96 100 100 100 100 100 78 64 50
100 100 100 99 70 39 33 42 50 38 31 20 21 32 72 96 100 98 25 20 31 26 34 68 96 100 100 100 89 86 100 100 100 100 100 100 99 99 91 98 100 75 72 96 100 100 100 100 100 83 48 24 20 22
95 84 64 46 39 35 35 40 48 43 26 29 72 91 100 100 100 96 87 42 59 85 93 83 75 78 92 89 88 92 88 95 93 77 69 71 88 90 87 96 100 100 100 100 100 100 100 97 54 24 27 40 44 48
51 37 31 22 38 48 41 40 53 69 58 65 73 95 100 100 98 96 100 94 66 61 70 69 53 48 49 69 73 64 90 100 99 95 94 93 94 86 85 100 100 100 100 99 100 93 54 25 26 44 70 60 61 74
42 26 26 42 61 68 61 61 94 100 100 100 100 100 100 96 94 100 100 100 100 100 100 93 76 72 68 56 55 75 74 75 84 100 100 100 100 100 100 100 100 100 96 95 56 30 28 39 67 87 69 57 63 70
33 46 44 68 76 84 72 96 100 100 100 100 100 100 100 100 100 99 96 92 98 100 100 100 100 100 85 74 64 62 86 99 100 100 100 100 100 100 100 100 100 94 64 32 30 38 53 72 80 71 51 69 98 100
32 45 57 58 62 73 82 97 100 100 100 100 100 100 100 100 100 94 84 79 87 100 100 100 100 100 100 100 100 100 100 100 100 100 100 100 100 100 92 72 35 24 29 44 66 75 81 86 55 57 71 98 100 85
44 61 65 69 76 94 100 100 100 100 100 100 100 100 99 96 92 86 88 80 91 100 100 100 100 100 100 100 100 100 100 100 100 100 100 93 77 53 30 22 27 38 60 75 78 90 91 52 52 66 88 99 98 96
80 68 89 99 100 100 100 100 100 99 96 100 100 100 98 95 99 100 98 96 100 100 100 100 100 100 100 100 100 100 100 100 100 79 61 50 34 22 19 36 54 82 93 90 90 92 52 44 56 82 100 100 100 100
100 100 100 100 100 100 98 100 100 99 100 100 100 100 100 100 100 100 100 100 100 100 100 100 100 100 100 100 99 98 95 68 50 42 32 24 20 21 29 49 51 62 91 96 94 60 42 59 96 100 100 100 100 99
100 100 100 100 100 100 100 100 96 94 100 100 100 100 99 95 100 99 100 98 97 100 100 100 100 100 100 99 95 83 67 55 38 30 27 24 26 32 41 45 61 92 100 97 54 40 49 66 100 100 100 100 98 95